<?xml version="1.0" encoding="UTF-8" standalone="no" ?>
<gpx xmlns="http://www.topografix.com/GPX/1/1" xmlns:xsi="http://www.w3.org/2001/XMLSchema-instance" xsi:schemaLocation="http://www.topografix.com/GPX/1/1 http://www.topografix.com/GPX/1/1/gpx.xsd" version="1.1" creator="VisuGPX - https://www.visugpx.com">
  <metadata>
    <name>circuit Rosselle amélioré</name>
    <desc><![CDATA[réalisable quelque soit la météo]]></desc>
  </metadata>
  <trk>
    <name><![CDATA[Rosselle avec bonus]]></name>
    <trkseg>
      <trkpt lat="49.16674" lon="6.8698">
        <ele>217</ele>
        <time>2013-05-22T06:33:25Z</time>
      </trkpt>
      <trkpt lat="49.1667" lon="6.8696">
        <ele>218.3</ele>
        <time>2013-05-22T06:34:06Z</time>
      </trkpt>
      <trkpt lat="49.16655" lon="6.86963">
        <ele>217.1</ele>
        <time>2013-05-22T06:34:15Z</time>
      </trkpt>
      <trkpt lat="49.1665" lon="6.86959">
        <ele>218.1</ele>
        <time>2013-05-22T06:34:20Z</time>
      </trkpt>
      <trkpt lat="49.16646" lon="6.86954">
        <ele>217.6</ele>
        <time>2013-05-22T06:34:25Z</time>
      </trkpt>
      <trkpt lat="49.16641" lon="6.8695">
        <ele>217.9</ele>
        <time>2013-05-22T06:34:30Z</time>
      </trkpt>
      <trkpt lat="49.16636" lon="6.86948">
        <ele>217.9</ele>
        <time>2013-05-22T06:34:35Z</time>
      </trkpt>
      <trkpt lat="49.1663" lon="6.86946">
        <ele>217.9</ele>
        <time>2013-05-22T06:34:40Z</time>
      </trkpt>
      <trkpt lat="49.16624" lon="6.86944">
        <ele>218.7</ele>
        <time>2013-05-22T06:34:45Z</time>
      </trkpt>
      <trkpt lat="49.1662" lon="6.86942">
        <ele>218.8</ele>
        <time>2013-05-22T06:34:50Z</time>
      </trkpt>
      <trkpt lat="49.16614" lon="6.8694">
        <ele>218.5</ele>
        <time>2013-05-22T06:34:55Z</time>
      </trkpt>
      <trkpt lat="49.16608" lon="6.86938">
        <ele>219.5</ele>
        <time>2013-05-22T06:35:00Z</time>
      </trkpt>
      <trkpt lat="49.16603" lon="6.86936">
        <ele>221.1</ele>
        <time>2013-05-22T06:35:05Z</time>
      </trkpt>
      <trkpt lat="49.16598" lon="6.86935">
        <ele>221.5</ele>
        <time>2013-05-22T06:35:10Z</time>
      </trkpt>
      <trkpt lat="49.16597" lon="6.86935">
        <ele>221.6</ele>
        <time>2013-05-22T06:35:11Z</time>
      </trkpt>
      <trkpt lat="49.16585" lon="6.86931">
        <ele>222.6</ele>
        <time>2013-05-22T06:35:20Z</time>
      </trkpt>
      <trkpt lat="49.1658" lon="6.86929">
        <ele>223.4</ele>
        <time>2013-05-22T06:35:25Z</time>
      </trkpt>
      <trkpt lat="49.16574" lon="6.86926">
        <ele>223.5</ele>
        <time>2013-05-22T06:35:30Z</time>
      </trkpt>
      <trkpt lat="49.16568" lon="6.86924">
        <ele>224</ele>
        <time>2013-05-22T06:35:35Z</time>
      </trkpt>
      <trkpt lat="49.16564" lon="6.86922">
        <ele>224.9</ele>
        <time>2013-05-22T06:35:40Z</time>
      </trkpt>
      <trkpt lat="49.16559" lon="6.86917">
        <ele>225.3</ele>
        <time>2013-05-22T06:35:45Z</time>
      </trkpt>
      <trkpt lat="49.16554" lon="6.86913">
        <ele>225.2</ele>
        <time>2013-05-22T06:35:50Z</time>
      </trkpt>
      <trkpt lat="49.1655" lon="6.86909">
        <ele>225.8</ele>
        <time>2013-05-22T06:35:55Z</time>
      </trkpt>
      <trkpt lat="49.16546" lon="6.86904">
        <ele>226.5</ele>
        <time>2013-05-22T06:36:00Z</time>
      </trkpt>
      <trkpt lat="49.16542" lon="6.86899">
        <ele>227.3</ele>
        <time>2013-05-22T06:36:05Z</time>
      </trkpt>
      <trkpt lat="49.16538" lon="6.86892">
        <ele>227.1</ele>
        <time>2013-05-22T06:36:10Z</time>
      </trkpt>
      <trkpt lat="49.16534" lon="6.86886">
        <ele>228.2</ele>
        <time>2013-05-22T06:36:15Z</time>
      </trkpt>
      <trkpt lat="49.16533" lon="6.86885">
        <ele>228.1</ele>
        <time>2013-05-22T06:36:16Z</time>
      </trkpt>
      <trkpt lat="49.16527" lon="6.86872">
        <ele>228.1</ele>
        <time>2013-05-22T06:36:25Z</time>
      </trkpt>
      <trkpt lat="49.16522" lon="6.86865">
        <ele>228.3</ele>
        <time>2013-05-22T06:36:30Z</time>
      </trkpt>
      <trkpt lat="49.16517" lon="6.86859">
        <ele>229.3</ele>
        <time>2013-05-22T06:36:35Z</time>
      </trkpt>
      <trkpt lat="49.16511" lon="6.86855">
        <ele>229.7</ele>
        <time>2013-05-22T06:36:40Z</time>
      </trkpt>
      <trkpt lat="49.16504" lon="6.86852">
        <ele>229.7</ele>
        <time>2013-05-22T06:36:45Z</time>
      </trkpt>
      <trkpt lat="49.16497" lon="6.8685">
        <ele>230.5</ele>
        <time>2013-05-22T06:36:50Z</time>
      </trkpt>
      <trkpt lat="49.16491" lon="6.8685">
        <ele>230</ele>
        <time>2013-05-22T06:36:55Z</time>
      </trkpt>
      <trkpt lat="49.16484" lon="6.8685">
        <ele>230.5</ele>
        <time>2013-05-22T06:37:00Z</time>
      </trkpt>
      <trkpt lat="49.16478" lon="6.8685">
        <ele>230.9</ele>
        <time>2013-05-22T06:37:05Z</time>
      </trkpt>
      <trkpt lat="49.16471" lon="6.8685">
        <ele>231.2</ele>
        <time>2013-05-22T06:37:10Z</time>
      </trkpt>
      <trkpt lat="49.16465" lon="6.86851">
        <ele>231</ele>
        <time>2013-05-22T06:37:15Z</time>
      </trkpt>
      <trkpt lat="49.16458" lon="6.86852">
        <ele>230.7</ele>
        <time>2013-05-22T06:37:20Z</time>
      </trkpt>
      <trkpt lat="49.16457" lon="6.86852">
        <ele>230.7</ele>
        <time>2013-05-22T06:37:21Z</time>
      </trkpt>
      <trkpt lat="49.16446" lon="6.86853">
        <ele>231</ele>
        <time>2013-05-22T06:37:30Z</time>
      </trkpt>
      <trkpt lat="49.1644" lon="6.86854">
        <ele>231.3</ele>
        <time>2013-05-22T06:37:35Z</time>
      </trkpt>
      <trkpt lat="49.16434" lon="6.86855">
        <ele>232.6</ele>
        <time>2013-05-22T06:37:40Z</time>
      </trkpt>
      <trkpt lat="49.16427" lon="6.86856">
        <ele>232.6</ele>
        <time>2013-05-22T06:37:45Z</time>
      </trkpt>
      <trkpt lat="49.1642" lon="6.86857">
        <ele>232.1</ele>
        <time>2013-05-22T06:37:50Z</time>
      </trkpt>
      <trkpt lat="49.16414" lon="6.86856">
        <ele>232.1</ele>
        <time>2013-05-22T06:37:55Z</time>
      </trkpt>
      <trkpt lat="49.16407" lon="6.86854">
        <ele>232.1</ele>
        <time>2013-05-22T06:38:00Z</time>
      </trkpt>
      <trkpt lat="49.16401" lon="6.8685">
        <ele>232.8</ele>
        <time>2013-05-22T06:38:05Z</time>
      </trkpt>
      <trkpt lat="49.16394" lon="6.86844">
        <ele>232.7</ele>
        <time>2013-05-22T06:38:10Z</time>
      </trkpt>
      <trkpt lat="49.16388" lon="6.86838">
        <ele>233.1</ele>
        <time>2013-05-22T06:38:15Z</time>
      </trkpt>
      <trkpt lat="49.16382" lon="6.86832">
        <ele>233.4</ele>
        <time>2013-05-22T06:38:20Z</time>
      </trkpt>
      <trkpt lat="49.16378" lon="6.86826">
        <ele>233.1</ele>
        <time>2013-05-22T06:38:25Z</time>
      </trkpt>
      <trkpt lat="49.16377" lon="6.86825">
        <ele>233.2</ele>
        <time>2013-05-22T06:38:26Z</time>
      </trkpt>
      <trkpt lat="49.1637" lon="6.8681">
        <ele>233.6</ele>
        <time>2013-05-22T06:38:35Z</time>
      </trkpt>
      <trkpt lat="49.16368" lon="6.86801">
        <ele>233.1</ele>
        <time>2013-05-22T06:38:40Z</time>
      </trkpt>
      <trkpt lat="49.16366" lon="6.86791">
        <ele>233.6</ele>
        <time>2013-05-22T06:38:45Z</time>
      </trkpt>
      <trkpt lat="49.16366" lon="6.86781">
        <ele>234.2</ele>
        <time>2013-05-22T06:38:50Z</time>
      </trkpt>
      <trkpt lat="49.16366" lon="6.8677">
        <ele>233.6</ele>
        <time>2013-05-22T06:38:55Z</time>
      </trkpt>
      <trkpt lat="49.16366" lon="6.8676">
        <ele>233.7</ele>
        <time>2013-05-22T06:39:00Z</time>
      </trkpt>
      <trkpt lat="49.16367" lon="6.8675">
        <ele>233.1</ele>
        <time>2013-05-22T06:39:05Z</time>
      </trkpt>
      <trkpt lat="49.16369" lon="6.8674">
        <ele>232.9</ele>
        <time>2013-05-22T06:39:10Z</time>
      </trkpt>
      <trkpt lat="49.1637" lon="6.86731">
        <ele>233.2</ele>
        <time>2013-05-22T06:39:15Z</time>
      </trkpt>
      <trkpt lat="49.16371" lon="6.86721">
        <ele>232.4</ele>
        <time>2013-05-22T06:39:20Z</time>
      </trkpt>
      <trkpt lat="49.16372" lon="6.86712">
        <ele>232.2</ele>
        <time>2013-05-22T06:39:25Z</time>
      </trkpt>
      <trkpt lat="49.16373" lon="6.86702">
        <ele>232.7</ele>
        <time>2013-05-22T06:39:30Z</time>
      </trkpt>
      <trkpt lat="49.16373" lon="6.867">
        <ele>232.7</ele>
        <time>2013-05-22T06:39:31Z</time>
      </trkpt>
      <trkpt lat="49.16374" lon="6.86683">
        <ele>232.5</ele>
        <time>2013-05-22T06:39:40Z</time>
      </trkpt>
      <trkpt lat="49.16375" lon="6.86673">
        <ele>232.1</ele>
        <time>2013-05-22T06:39:45Z</time>
      </trkpt>
      <trkpt lat="49.16376" lon="6.86662">
        <ele>231.4</ele>
        <time>2013-05-22T06:39:50Z</time>
      </trkpt>
      <trkpt lat="49.16374" lon="6.86652">
        <ele>231.6</ele>
        <time>2013-05-22T06:39:55Z</time>
      </trkpt>
      <trkpt lat="49.16372" lon="6.86643">
        <ele>232.2</ele>
        <time>2013-05-22T06:40:00Z</time>
      </trkpt>
      <trkpt lat="49.16367" lon="6.86638">
        <ele>231.8</ele>
        <time>2013-05-22T06:40:05Z</time>
      </trkpt>
      <trkpt lat="49.16363" lon="6.86635">
        <ele>232.7</ele>
        <time>2013-05-22T06:40:10Z</time>
      </trkpt>
      <trkpt lat="49.16357" lon="6.86634">
        <ele>232.6</ele>
        <time>2013-05-22T06:40:15Z</time>
      </trkpt>
      <trkpt lat="49.16353" lon="6.86633">
        <ele>232.9</ele>
        <time>2013-05-22T06:40:20Z</time>
      </trkpt>
      <trkpt lat="49.16348" lon="6.86631">
        <ele>233.8</ele>
        <time>2013-05-22T06:40:25Z</time>
      </trkpt>
      <trkpt lat="49.16343" lon="6.8663">
        <ele>234.6</ele>
        <time>2013-05-22T06:40:30Z</time>
      </trkpt>
      <trkpt lat="49.16337" lon="6.86628">
        <ele>235.3</ele>
        <time>2013-05-22T06:40:35Z</time>
      </trkpt>
      <trkpt lat="49.16336" lon="6.86628">
        <ele>235.1</ele>
        <time>2013-05-22T06:40:36Z</time>
      </trkpt>
      <trkpt lat="49.16325" lon="6.86624">
        <ele>236.9</ele>
        <time>2013-05-22T06:40:45Z</time>
      </trkpt>
      <trkpt lat="49.16319" lon="6.86623">
        <ele>236.7</ele>
        <time>2013-05-22T06:40:50Z</time>
      </trkpt>
      <trkpt lat="49.16313" lon="6.86621">
        <ele>238.6</ele>
        <time>2013-05-22T06:40:55Z</time>
      </trkpt>
      <trkpt lat="49.16307" lon="6.86618">
        <ele>239.6</ele>
        <time>2013-05-22T06:41:00Z</time>
      </trkpt>
      <trkpt lat="49.16301" lon="6.86614">
        <ele>240.2</ele>
        <time>2013-05-22T06:41:05Z</time>
      </trkpt>
      <trkpt lat="49.16295" lon="6.86609">
        <ele>241.9</ele>
        <time>2013-05-22T06:41:10Z</time>
      </trkpt>
      <trkpt lat="49.16289" lon="6.86604">
        <ele>242.6</ele>
        <time>2013-05-22T06:41:15Z</time>
      </trkpt>
      <trkpt lat="49.16284" lon="6.86598">
        <ele>242.9</ele>
        <time>2013-05-22T06:41:20Z</time>
      </trkpt>
      <trkpt lat="49.16279" lon="6.86593">
        <ele>244.3</ele>
        <time>2013-05-22T06:41:25Z</time>
      </trkpt>
      <trkpt lat="49.16275" lon="6.86587">
        <ele>244.7</ele>
        <time>2013-05-22T06:41:30Z</time>
      </trkpt>
      <trkpt lat="49.16271" lon="6.86579">
        <ele>245.8</ele>
        <time>2013-05-22T06:41:35Z</time>
      </trkpt>
      <trkpt lat="49.16267" lon="6.8657">
        <ele>246.8</ele>
        <time>2013-05-22T06:41:40Z</time>
      </trkpt>
      <trkpt lat="49.16266" lon="6.86568">
        <ele>247.1</ele>
        <time>2013-05-22T06:41:41Z</time>
      </trkpt>
      <trkpt lat="49.16261" lon="6.8655">
        <ele>248.2</ele>
        <time>2013-05-22T06:41:50Z</time>
      </trkpt>
      <trkpt lat="49.16258" lon="6.86541">
        <ele>248.3</ele>
        <time>2013-05-22T06:41:55Z</time>
      </trkpt>
      <trkpt lat="49.16254" lon="6.86532">
        <ele>248.1</ele>
        <time>2013-05-22T06:42:00Z</time>
      </trkpt>
      <trkpt lat="49.16251" lon="6.86524">
        <ele>248.9</ele>
        <time>2013-05-22T06:42:05Z</time>
      </trkpt>
      <trkpt lat="49.16247" lon="6.86517">
        <ele>249.2</ele>
        <time>2013-05-22T06:42:10Z</time>
      </trkpt>
      <trkpt lat="49.16244" lon="6.8651">
        <ele>249.6</ele>
        <time>2013-05-22T06:42:15Z</time>
      </trkpt>
      <trkpt lat="49.1624" lon="6.86503">
        <ele>250.1</ele>
        <time>2013-05-22T06:42:20Z</time>
      </trkpt>
      <trkpt lat="49.16236" lon="6.86497">
        <ele>251</ele>
        <time>2013-05-22T06:42:25Z</time>
      </trkpt>
      <trkpt lat="49.16231" lon="6.86492">
        <ele>251.4</ele>
        <time>2013-05-22T06:42:30Z</time>
      </trkpt>
      <trkpt lat="49.16226" lon="6.86487">
        <ele>252.3</ele>
        <time>2013-05-22T06:42:35Z</time>
      </trkpt>
      <trkpt lat="49.16221" lon="6.86483">
        <ele>252.4</ele>
        <time>2013-05-22T06:42:40Z</time>
      </trkpt>
      <trkpt lat="49.16216" lon="6.86481">
        <ele>253</ele>
        <time>2013-05-22T06:42:45Z</time>
      </trkpt>
      <trkpt lat="49.16216" lon="6.8648">
        <ele>253.4</ele>
        <time>2013-05-22T06:42:46Z</time>
      </trkpt>
      <trkpt lat="49.16206" lon="6.86478">
        <ele>255.5</ele>
        <time>2013-05-22T06:42:55Z</time>
      </trkpt>
      <trkpt lat="49.16201" lon="6.86476">
        <ele>255.7</ele>
        <time>2013-05-22T06:43:00Z</time>
      </trkpt>
      <trkpt lat="49.16196" lon="6.86476">
        <ele>256</ele>
        <time>2013-05-22T06:43:05Z</time>
      </trkpt>
      <trkpt lat="49.16191" lon="6.86475">
        <ele>257.2</ele>
        <time>2013-05-22T06:43:10Z</time>
      </trkpt>
      <trkpt lat="49.16186" lon="6.86476">
        <ele>257.5</ele>
        <time>2013-05-22T06:43:15Z</time>
      </trkpt>
      <trkpt lat="49.16181" lon="6.86477">
        <ele>257.9</ele>
        <time>2013-05-22T06:43:20Z</time>
      </trkpt>
      <trkpt lat="49.16175" lon="6.86478">
        <ele>258.1</ele>
        <time>2013-05-22T06:43:25Z</time>
      </trkpt>
      <trkpt lat="49.1617" lon="6.86479">
        <ele>258.5</ele>
        <time>2013-05-22T06:43:30Z</time>
      </trkpt>
      <trkpt lat="49.16164" lon="6.86481">
        <ele>259.4</ele>
        <time>2013-05-22T06:43:35Z</time>
      </trkpt>
      <trkpt lat="49.16158" lon="6.86483">
        <ele>259.9</ele>
        <time>2013-05-22T06:43:40Z</time>
      </trkpt>
      <trkpt lat="49.16151" lon="6.86484">
        <ele>260.4</ele>
        <time>2013-05-22T06:43:45Z</time>
      </trkpt>
      <trkpt lat="49.16146" lon="6.86485">
        <ele>261.3</ele>
        <time>2013-05-22T06:43:50Z</time>
      </trkpt>
      <trkpt lat="49.16145" lon="6.86485">
        <ele>261.5</ele>
        <time>2013-05-22T06:43:51Z</time>
      </trkpt>
      <trkpt lat="49.16133" lon="6.8649">
        <ele>263</ele>
        <time>2013-05-22T06:44:00Z</time>
      </trkpt>
      <trkpt lat="49.16127" lon="6.8649">
        <ele>263.2</ele>
        <time>2013-05-22T06:44:05Z</time>
      </trkpt>
      <trkpt lat="49.1612" lon="6.86492">
        <ele>263.1</ele>
        <time>2013-05-22T06:44:10Z</time>
      </trkpt>
      <trkpt lat="49.16114" lon="6.86495">
        <ele>264.2</ele>
        <time>2013-05-22T06:44:15Z</time>
      </trkpt>
      <trkpt lat="49.16108" lon="6.86498">
        <ele>264.9</ele>
        <time>2013-05-22T06:44:20Z</time>
      </trkpt>
      <trkpt lat="49.16102" lon="6.86501">
        <ele>266.2</ele>
        <time>2013-05-22T06:44:25Z</time>
      </trkpt>
      <trkpt lat="49.16095" lon="6.86503">
        <ele>266.8</ele>
        <time>2013-05-22T06:44:30Z</time>
      </trkpt>
      <trkpt lat="49.16088" lon="6.86504">
        <ele>267.6</ele>
        <time>2013-05-22T06:44:35Z</time>
      </trkpt>
      <trkpt lat="49.16081" lon="6.86507">
        <ele>267.9</ele>
        <time>2013-05-22T06:44:40Z</time>
      </trkpt>
      <trkpt lat="49.16075" lon="6.86509">
        <ele>268.3</ele>
        <time>2013-05-22T06:44:45Z</time>
      </trkpt>
      <trkpt lat="49.16068" lon="6.86511">
        <ele>268.2</ele>
        <time>2013-05-22T06:44:50Z</time>
      </trkpt>
      <trkpt lat="49.16061" lon="6.86512">
        <ele>268.4</ele>
        <time>2013-05-22T06:44:55Z</time>
      </trkpt>
      <trkpt lat="49.1606" lon="6.86512">
        <ele>268.4</ele>
        <time>2013-05-22T06:44:56Z</time>
      </trkpt>
      <trkpt lat="49.16049" lon="6.86514">
        <ele>268.7</ele>
        <time>2013-05-22T06:45:05Z</time>
      </trkpt>
      <trkpt lat="49.16043" lon="6.86515">
        <ele>269.2</ele>
        <time>2013-05-22T06:45:10Z</time>
      </trkpt>
      <trkpt lat="49.16037" lon="6.86514">
        <ele>269</ele>
        <time>2013-05-22T06:45:15Z</time>
      </trkpt>
      <trkpt lat="49.1603" lon="6.86511">
        <ele>270.1</ele>
        <time>2013-05-22T06:45:20Z</time>
      </trkpt>
      <trkpt lat="49.16024" lon="6.86507">
        <ele>269.5</ele>
        <time>2013-05-22T06:45:25Z</time>
      </trkpt>
      <trkpt lat="49.16018" lon="6.86504">
        <ele>269.9</ele>
        <time>2013-05-22T06:45:30Z</time>
      </trkpt>
      <trkpt lat="49.16012" lon="6.86502">
        <ele>270.5</ele>
        <time>2013-05-22T06:45:35Z</time>
      </trkpt>
      <trkpt lat="49.16005" lon="6.86501">
        <ele>270.5</ele>
        <time>2013-05-22T06:45:40Z</time>
      </trkpt>
      <trkpt lat="49.15999" lon="6.86499">
        <ele>270.7</ele>
        <time>2013-05-22T06:45:45Z</time>
      </trkpt>
      <trkpt lat="49.15993" lon="6.86498">
        <ele>271.4</ele>
        <time>2013-05-22T06:45:50Z</time>
      </trkpt>
      <trkpt lat="49.15987" lon="6.86498">
        <ele>270.7</ele>
        <time>2013-05-22T06:45:55Z</time>
      </trkpt>
      <trkpt lat="49.15982" lon="6.86498">
        <ele>271.1</ele>
        <time>2013-05-22T06:46:00Z</time>
      </trkpt>
      <trkpt lat="49.15981" lon="6.86498">
        <ele>271</ele>
        <time>2013-05-22T06:46:01Z</time>
      </trkpt>
      <trkpt lat="49.1597" lon="6.86499">
        <ele>272.1</ele>
        <time>2013-05-22T06:46:10Z</time>
      </trkpt>
      <trkpt lat="49.15964" lon="6.86501">
        <ele>272.1</ele>
        <time>2013-05-22T06:46:15Z</time>
      </trkpt>
      <trkpt lat="49.15958" lon="6.86502">
        <ele>272.1</ele>
        <time>2013-05-22T06:46:20Z</time>
      </trkpt>
      <trkpt lat="49.15953" lon="6.86505">
        <ele>272.3</ele>
        <time>2013-05-22T06:46:25Z</time>
      </trkpt>
      <trkpt lat="49.15948" lon="6.86506">
        <ele>272.4</ele>
        <time>2013-05-22T06:46:30Z</time>
      </trkpt>
      <trkpt lat="49.15942" lon="6.8651">
        <ele>272.3</ele>
        <time>2013-05-22T06:46:35Z</time>
      </trkpt>
      <trkpt lat="49.15937" lon="6.86513">
        <ele>271.3</ele>
        <time>2013-05-22T06:46:40Z</time>
      </trkpt>
      <trkpt lat="49.15931" lon="6.86517">
        <ele>272</ele>
        <time>2013-05-22T06:46:45Z</time>
      </trkpt>
      <trkpt lat="49.15924" lon="6.86521">
        <ele>273.3</ele>
        <time>2013-05-22T06:46:50Z</time>
      </trkpt>
      <trkpt lat="49.15916" lon="6.86524">
        <ele>274.4</ele>
        <time>2013-05-22T06:46:55Z</time>
      </trkpt>
      <trkpt lat="49.15909" lon="6.86527">
        <ele>275.2</ele>
        <time>2013-05-22T06:47:00Z</time>
      </trkpt>
      <trkpt lat="49.15902" lon="6.8653">
        <ele>275.6</ele>
        <time>2013-05-22T06:47:05Z</time>
      </trkpt>
      <trkpt lat="49.15901" lon="6.8653">
        <ele>275.7</ele>
        <time>2013-05-22T06:47:06Z</time>
      </trkpt>
      <trkpt lat="49.1589" lon="6.86535">
        <ele>276.2</ele>
        <time>2013-05-22T06:47:15Z</time>
      </trkpt>
      <trkpt lat="49.15883" lon="6.86539">
        <ele>276.2</ele>
        <time>2013-05-22T06:47:20Z</time>
      </trkpt>
      <trkpt lat="49.15876" lon="6.86542">
        <ele>276.2</ele>
        <time>2013-05-22T06:47:25Z</time>
      </trkpt>
      <trkpt lat="49.1587" lon="6.86546">
        <ele>276.3</ele>
        <time>2013-05-22T06:47:30Z</time>
      </trkpt>
      <trkpt lat="49.15863" lon="6.86548">
        <ele>276.4</ele>
        <time>2013-05-22T06:47:35Z</time>
      </trkpt>
      <trkpt lat="49.15856" lon="6.8655">
        <ele>276.8</ele>
        <time>2013-05-22T06:47:40Z</time>
      </trkpt>
      <trkpt lat="49.1585" lon="6.86552">
        <ele>277</ele>
        <time>2013-05-22T06:47:45Z</time>
      </trkpt>
      <trkpt lat="49.15843" lon="6.86553">
        <ele>276.1</ele>
        <time>2013-05-22T06:47:50Z</time>
      </trkpt>
      <trkpt lat="49.15837" lon="6.86555">
        <ele>276.9</ele>
        <time>2013-05-22T06:47:55Z</time>
      </trkpt>
      <trkpt lat="49.1583" lon="6.86557">
        <ele>276.9</ele>
        <time>2013-05-22T06:48:00Z</time>
      </trkpt>
      <trkpt lat="49.15824" lon="6.86558">
        <ele>277.1</ele>
        <time>2013-05-22T06:48:05Z</time>
      </trkpt>
      <trkpt lat="49.15817" lon="6.86559">
        <ele>277.1</ele>
        <time>2013-05-22T06:48:10Z</time>
      </trkpt>
      <trkpt lat="49.15816" lon="6.86559">
        <ele>277.2</ele>
        <time>2013-05-22T06:48:11Z</time>
      </trkpt>
      <trkpt lat="49.15804" lon="6.86561">
        <ele>277.6</ele>
        <time>2013-05-22T06:48:20Z</time>
      </trkpt>
      <trkpt lat="49.15798" lon="6.86562">
        <ele>278</ele>
        <time>2013-05-22T06:48:25Z</time>
      </trkpt>
      <trkpt lat="49.15791" lon="6.86564">
        <ele>278.7</ele>
        <time>2013-05-22T06:48:30Z</time>
      </trkpt>
      <trkpt lat="49.15785" lon="6.86566">
        <ele>279</ele>
        <time>2013-05-22T06:48:35Z</time>
      </trkpt>
      <trkpt lat="49.15778" lon="6.86568">
        <ele>278.7</ele>
        <time>2013-05-22T06:48:40Z</time>
      </trkpt>
      <trkpt lat="49.15772" lon="6.8657">
        <ele>278.6</ele>
        <time>2013-05-22T06:48:45Z</time>
      </trkpt>
      <trkpt lat="49.15765" lon="6.86572">
        <ele>279</ele>
        <time>2013-05-22T06:48:50Z</time>
      </trkpt>
      <trkpt lat="49.15759" lon="6.86573">
        <ele>279.5</ele>
        <time>2013-05-22T06:48:55Z</time>
      </trkpt>
      <trkpt lat="49.15753" lon="6.86575">
        <ele>278.9</ele>
        <time>2013-05-22T06:49:00Z</time>
      </trkpt>
      <trkpt lat="49.15747" lon="6.86578">
        <ele>279.5</ele>
        <time>2013-05-22T06:49:05Z</time>
      </trkpt>
      <trkpt lat="49.1574" lon="6.8658">
        <ele>279.3</ele>
        <time>2013-05-22T06:49:10Z</time>
      </trkpt>
      <trkpt lat="49.15734" lon="6.86581">
        <ele>280.1</ele>
        <time>2013-05-22T06:49:15Z</time>
      </trkpt>
      <trkpt lat="49.15733" lon="6.86582">
        <ele>280</ele>
        <time>2013-05-22T06:49:16Z</time>
      </trkpt>
      <trkpt lat="49.15721" lon="6.86586">
        <ele>280.3</ele>
        <time>2013-05-22T06:49:25Z</time>
      </trkpt>
      <trkpt lat="49.15715" lon="6.86587">
        <ele>281.4</ele>
        <time>2013-05-22T06:49:30Z</time>
      </trkpt>
      <trkpt lat="49.15709" lon="6.86589">
        <ele>281.3</ele>
        <time>2013-05-22T06:49:35Z</time>
      </trkpt>
      <trkpt lat="49.15702" lon="6.86591">
        <ele>281.8</ele>
        <time>2013-05-22T06:49:40Z</time>
      </trkpt>
      <trkpt lat="49.15696" lon="6.86593">
        <ele>281.3</ele>
        <time>2013-05-22T06:49:45Z</time>
      </trkpt>
      <trkpt lat="49.1569" lon="6.86594">
        <ele>281.5</ele>
        <time>2013-05-22T06:49:50Z</time>
      </trkpt>
      <trkpt lat="49.15684" lon="6.86596">
        <ele>282.2</ele>
        <time>2013-05-22T06:49:55Z</time>
      </trkpt>
      <trkpt lat="49.15679" lon="6.86598">
        <ele>283</ele>
        <time>2013-05-22T06:50:00Z</time>
      </trkpt>
      <trkpt lat="49.15672" lon="6.86599">
        <ele>283.1</ele>
        <time>2013-05-22T06:50:05Z</time>
      </trkpt>
      <trkpt lat="49.15667" lon="6.86601">
        <ele>285</ele>
        <time>2013-05-22T06:50:10Z</time>
      </trkpt>
      <trkpt lat="49.15661" lon="6.86603">
        <ele>285</ele>
        <time>2013-05-22T06:50:15Z</time>
      </trkpt>
      <trkpt lat="49.15655" lon="6.86606">
        <ele>285.6</ele>
        <time>2013-05-22T06:50:20Z</time>
      </trkpt>
      <trkpt lat="49.15654" lon="6.86606">
        <ele>285.5</ele>
        <time>2013-05-22T06:50:21Z</time>
      </trkpt>
      <trkpt lat="49.15642" lon="6.8661">
        <ele>286.9</ele>
        <time>2013-05-22T06:50:30Z</time>
      </trkpt>
      <trkpt lat="49.15635" lon="6.8661">
        <ele>287.6</ele>
        <time>2013-05-22T06:50:35Z</time>
      </trkpt>
      <trkpt lat="49.15629" lon="6.8661">
        <ele>288.1</ele>
        <time>2013-05-22T06:50:40Z</time>
      </trkpt>
      <trkpt lat="49.15622" lon="6.8661">
        <ele>288.5</ele>
        <time>2013-05-22T06:50:45Z</time>
      </trkpt>
      <trkpt lat="49.15616" lon="6.86609">
        <ele>289.3</ele>
        <time>2013-05-22T06:50:50Z</time>
      </trkpt>
      <trkpt lat="49.15609" lon="6.86608">
        <ele>289.6</ele>
        <time>2013-05-22T06:50:55Z</time>
      </trkpt>
      <trkpt lat="49.15602" lon="6.86607">
        <ele>290.6</ele>
        <time>2013-05-22T06:51:00Z</time>
      </trkpt>
      <trkpt lat="49.15596" lon="6.86607">
        <ele>290.8</ele>
        <time>2013-05-22T06:51:05Z</time>
      </trkpt>
      <trkpt lat="49.15589" lon="6.86605">
        <ele>291.5</ele>
        <time>2013-05-22T06:51:10Z</time>
      </trkpt>
      <trkpt lat="49.15583" lon="6.86603">
        <ele>292.5</ele>
        <time>2013-05-22T06:51:15Z</time>
      </trkpt>
      <trkpt lat="49.15576" lon="6.86602">
        <ele>293.1</ele>
        <time>2013-05-22T06:51:20Z</time>
      </trkpt>
      <trkpt lat="49.1557" lon="6.86601">
        <ele>293.9</ele>
        <time>2013-05-22T06:51:25Z</time>
      </trkpt>
      <trkpt lat="49.15568" lon="6.866">
        <ele>294.2</ele>
        <time>2013-05-22T06:51:26Z</time>
      </trkpt>
      <trkpt lat="49.15558" lon="6.86598">
        <ele>294.2</ele>
        <time>2013-05-22T06:51:35Z</time>
      </trkpt>
      <trkpt lat="49.15552" lon="6.86595">
        <ele>295.2</ele>
        <time>2013-05-22T06:51:40Z</time>
      </trkpt>
      <trkpt lat="49.15546" lon="6.86591">
        <ele>296.3</ele>
        <time>2013-05-22T06:51:45Z</time>
      </trkpt>
      <trkpt lat="49.1554" lon="6.86588">
        <ele>296.9</ele>
        <time>2013-05-22T06:51:50Z</time>
      </trkpt>
      <trkpt lat="49.15535" lon="6.86585">
        <ele>297.6</ele>
        <time>2013-05-22T06:51:55Z</time>
      </trkpt>
      <trkpt lat="49.1553" lon="6.86583">
        <ele>297.5</ele>
        <time>2013-05-22T06:52:00Z</time>
      </trkpt>
      <trkpt lat="49.15529" lon="6.86582">
        <ele>297.9</ele>
        <time>2013-05-22T06:52:05Z</time>
      </trkpt>
      <trkpt lat="49.15527" lon="6.86582">
        <ele>298.2</ele>
        <time>2013-05-22T06:52:10Z</time>
      </trkpt>
      <trkpt lat="49.15526" lon="6.86581">
        <ele>297.9</ele>
        <time>2013-05-22T06:52:15Z</time>
      </trkpt>
      <trkpt lat="49.15525" lon="6.86581">
        <ele>297.9</ele>
        <time>2013-05-22T06:52:20Z</time>
      </trkpt>
      <trkpt lat="49.15525" lon="6.86581">
        <ele>297.7</ele>
        <time>2013-05-22T06:52:25Z</time>
      </trkpt>
      <trkpt lat="49.15523" lon="6.86581">
        <ele>298.5</ele>
        <time>2013-05-22T06:52:30Z</time>
      </trkpt>
      <trkpt lat="49.15523" lon="6.86581">
        <ele>298.4</ele>
        <time>2013-05-22T06:52:31Z</time>
      </trkpt>
      <trkpt lat="49.15522" lon="6.8658">
        <ele>298.4</ele>
        <time>2013-05-22T06:52:40Z</time>
      </trkpt>
      <trkpt lat="49.15521" lon="6.8658">
        <ele>298.6</ele>
        <time>2013-05-22T06:52:45Z</time>
      </trkpt>
      <trkpt lat="49.1552" lon="6.8658">
        <ele>298.6</ele>
        <time>2013-05-22T06:52:50Z</time>
      </trkpt>
      <trkpt lat="49.1552" lon="6.8658">
        <ele>298.4</ele>
        <time>2013-05-22T06:52:55Z</time>
      </trkpt>
      <trkpt lat="49.1552" lon="6.86579">
        <ele>297.9</ele>
        <time>2013-05-22T06:53:00Z</time>
      </trkpt>
      <trkpt lat="49.1552" lon="6.86579">
        <ele>298.3</ele>
        <time>2013-05-22T06:53:05Z</time>
      </trkpt>
      <trkpt lat="49.15518" lon="6.86578">
        <ele>297.7</ele>
        <time>2013-05-22T06:53:10Z</time>
      </trkpt>
      <trkpt lat="49.15514" lon="6.86575">
        <ele>298.8</ele>
        <time>2013-05-22T06:53:15Z</time>
      </trkpt>
      <trkpt lat="49.15511" lon="6.86572">
        <ele>298.8</ele>
        <time>2013-05-22T06:53:20Z</time>
      </trkpt>
      <trkpt lat="49.15508" lon="6.8657">
        <ele>298.7</ele>
        <time>2013-05-22T06:53:25Z</time>
      </trkpt>
      <trkpt lat="49.15504" lon="6.86567">
        <ele>299.6</ele>
        <time>2013-05-22T06:53:30Z</time>
      </trkpt>
      <trkpt lat="49.155" lon="6.86565">
        <ele>300.1</ele>
        <time>2013-05-22T06:53:35Z</time>
      </trkpt>
      <trkpt lat="49.15499" lon="6.86564">
        <ele>300.4</ele>
        <time>2013-05-22T06:53:36Z</time>
      </trkpt>
      <trkpt lat="49.1549" lon="6.86557">
        <ele>301.2</ele>
        <time>2013-05-22T06:53:45Z</time>
      </trkpt>
      <trkpt lat="49.15485" lon="6.86552">
        <ele>302.4</ele>
        <time>2013-05-22T06:53:50Z</time>
      </trkpt>
      <trkpt lat="49.15481" lon="6.86547">
        <ele>303.6</ele>
        <time>2013-05-22T06:53:55Z</time>
      </trkpt>
      <trkpt lat="49.15476" lon="6.86542">
        <ele>304.9</ele>
        <time>2013-05-22T06:54:00Z</time>
      </trkpt>
      <trkpt lat="49.1547" lon="6.86538">
        <ele>305.3</ele>
        <time>2013-05-22T06:54:05Z</time>
      </trkpt>
      <trkpt lat="49.15466" lon="6.86535">
        <ele>306.3</ele>
        <time>2013-05-22T06:54:10Z</time>
      </trkpt>
      <trkpt lat="49.15462" lon="6.86531">
        <ele>307.7</ele>
        <time>2013-05-22T06:54:15Z</time>
      </trkpt>
      <trkpt lat="49.15457" lon="6.86527">
        <ele>308.7</ele>
        <time>2013-05-22T06:54:20Z</time>
      </trkpt>
      <trkpt lat="49.15453" lon="6.86524">
        <ele>309.4</ele>
        <time>2013-05-22T06:54:25Z</time>
      </trkpt>
      <trkpt lat="49.15447" lon="6.86521">
        <ele>310.7</ele>
        <time>2013-05-22T06:54:30Z</time>
      </trkpt>
      <trkpt lat="49.15441" lon="6.86519">
        <ele>311.4</ele>
        <time>2013-05-22T06:54:35Z</time>
      </trkpt>
      <trkpt lat="49.15435" lon="6.86518">
        <ele>311.7</ele>
        <time>2013-05-22T06:54:40Z</time>
      </trkpt>
      <trkpt lat="49.15434" lon="6.86518">
        <ele>311.6</ele>
        <time>2013-05-22T06:54:41Z</time>
      </trkpt>
      <trkpt lat="49.15424" lon="6.86519">
        <ele>313</ele>
        <time>2013-05-22T06:54:50Z</time>
      </trkpt>
      <trkpt lat="49.15419" lon="6.86521">
        <ele>314.5</ele>
        <time>2013-05-22T06:54:55Z</time>
      </trkpt>
      <trkpt lat="49.15415" lon="6.86523">
        <ele>315.1</ele>
        <time>2013-05-22T06:55:00Z</time>
      </trkpt>
      <trkpt lat="49.1541" lon="6.86524">
        <ele>315.8</ele>
        <time>2013-05-22T06:55:05Z</time>
      </trkpt>
      <trkpt lat="49.15407" lon="6.86527">
        <ele>316.4</ele>
        <time>2013-05-22T06:55:10Z</time>
      </trkpt>
      <trkpt lat="49.15402" lon="6.86528">
        <ele>317.1</ele>
        <time>2013-05-22T06:55:15Z</time>
      </trkpt>
      <trkpt lat="49.15399" lon="6.86527">
        <ele>317.9</ele>
        <time>2013-05-22T06:55:20Z</time>
      </trkpt>
      <trkpt lat="49.15398" lon="6.86528">
        <ele>318.2</ele>
        <time>2013-05-22T06:55:25Z</time>
      </trkpt>
      <trkpt lat="49.15397" lon="6.86524">
        <ele>318.4</ele>
        <time>2013-05-22T06:55:30Z</time>
      </trkpt>
      <trkpt lat="49.15396" lon="6.86517">
        <ele>319.4</ele>
        <time>2013-05-22T06:55:35Z</time>
      </trkpt>
      <trkpt lat="49.15395" lon="6.86516">
        <ele>319.7</ele>
        <time>2013-05-22T06:55:40Z</time>
      </trkpt>
      <trkpt lat="49.15395" lon="6.86518">
        <ele>319.6</ele>
        <time>2013-05-22T06:55:45Z</time>
      </trkpt>
      <trkpt lat="49.15395" lon="6.86518">
        <ele>319.7</ele>
        <time>2013-05-22T06:55:46Z</time>
      </trkpt>
      <trkpt lat="49.15397" lon="6.8652">
        <ele>319.2</ele>
        <time>2013-05-22T06:55:55Z</time>
      </trkpt>
      <trkpt lat="49.15397" lon="6.86519">
        <ele>318.2</ele>
        <time>2013-05-22T06:56:00Z</time>
      </trkpt>
      <trkpt lat="49.15397" lon="6.86516">
        <ele>318.4</ele>
        <time>2013-05-22T06:56:05Z</time>
      </trkpt>
      <trkpt lat="49.15397" lon="6.86516">
        <ele>319.1</ele>
        <time>2013-05-22T06:56:10Z</time>
      </trkpt>
      <trkpt lat="49.15397" lon="6.86515">
        <ele>319.3</ele>
        <time>2013-05-22T06:56:15Z</time>
      </trkpt>
      <trkpt lat="49.15397" lon="6.8652">
        <ele>319.2</ele>
        <time>2013-05-22T06:55:55Z</time>
      </trkpt>
      <trkpt lat="49.15397" lon="6.86519">
        <ele>318.2</ele>
        <time>2013-05-22T06:56:00Z</time>
      </trkpt>
      <trkpt lat="49.15397" lon="6.86516">
        <ele>318.4</ele>
        <time>2013-05-22T06:56:05Z</time>
      </trkpt>
      <trkpt lat="49.15397" lon="6.86516">
        <ele>319.1</ele>
        <time>2013-05-22T06:56:10Z</time>
      </trkpt>
      <trkpt lat="49.15397" lon="6.86515">
        <ele>319.3</ele>
        <time>2013-05-22T06:56:15Z</time>
      </trkpt>
      <trkpt lat="49.15397" lon="6.86514">
        <ele>319.8</ele>
        <time>2013-05-22T06:56:20Z</time>
      </trkpt>
      <trkpt lat="49.15397" lon="6.86514">
        <ele>319.3</ele>
        <time>2013-05-22T06:56:25Z</time>
      </trkpt>
      <trkpt lat="49.15397" lon="6.86513">
        <ele>319.1</ele>
        <time>2013-05-22T06:56:30Z</time>
      </trkpt>
      <trkpt lat="49.15397" lon="6.8651">
        <ele>319.2</ele>
        <time>2013-05-22T06:56:35Z</time>
      </trkpt>
      <trkpt lat="49.15398" lon="6.86503">
        <ele>319.4</ele>
        <time>2013-05-22T06:56:40Z</time>
      </trkpt>
      <trkpt lat="49.15398" lon="6.86496">
        <ele>319.5</ele>
        <time>2013-05-22T06:56:45Z</time>
      </trkpt>
      <trkpt lat="49.15399" lon="6.8649">
        <ele>319.6</ele>
        <time>2013-05-22T06:56:50Z</time>
      </trkpt>
      <trkpt lat="49.15399" lon="6.86488">
        <ele>319.5</ele>
        <time>2013-05-22T06:56:51Z</time>
      </trkpt>
      <trkpt lat="49.15401" lon="6.86476">
        <ele>318.3</ele>
        <time>2013-05-22T06:57:00Z</time>
      </trkpt>
      <trkpt lat="49.15401" lon="6.8647">
        <ele>318.6</ele>
        <time>2013-05-22T06:57:05Z</time>
      </trkpt>
      <trkpt lat="49.15403" lon="6.86462">
        <ele>318.7</ele>
        <time>2013-05-22T06:57:10Z</time>
      </trkpt>
      <trkpt lat="49.15403" lon="6.86454">
        <ele>317.5</ele>
        <time>2013-05-22T06:57:15Z</time>
      </trkpt>
      <trkpt lat="49.15404" lon="6.86446">
        <ele>317.4</ele>
        <time>2013-05-22T06:57:20Z</time>
      </trkpt>
      <trkpt lat="49.15404" lon="6.86437">
        <ele>316.5</ele>
        <time>2013-05-22T06:57:25Z</time>
      </trkpt>
      <trkpt lat="49.15405" lon="6.86429">
        <ele>316.1</ele>
        <time>2013-05-22T06:57:30Z</time>
      </trkpt>
      <trkpt lat="49.15406" lon="6.8642">
        <ele>316.4</ele>
        <time>2013-05-22T06:57:35Z</time>
      </trkpt>
      <trkpt lat="49.15407" lon="6.86412">
        <ele>315.6</ele>
        <time>2013-05-22T06:57:40Z</time>
      </trkpt>
      <trkpt lat="49.15409" lon="6.86402">
        <ele>315.8</ele>
        <time>2013-05-22T06:57:45Z</time>
      </trkpt>
      <trkpt lat="49.15409" lon="6.86393">
        <ele>315.3</ele>
        <time>2013-05-22T06:57:50Z</time>
      </trkpt>
      <trkpt lat="49.15409" lon="6.86384">
        <ele>315.6</ele>
        <time>2013-05-22T06:57:55Z</time>
      </trkpt>
      <trkpt lat="49.15409" lon="6.86382">
        <ele>315.7</ele>
        <time>2013-05-22T06:57:56Z</time>
      </trkpt>
      <trkpt lat="49.15408" lon="6.86366">
        <ele>315.5</ele>
        <time>2013-05-22T06:58:05Z</time>
      </trkpt>
      <trkpt lat="49.15407" lon="6.86358">
        <ele>315.1</ele>
        <time>2013-05-22T06:58:10Z</time>
      </trkpt>
      <trkpt lat="49.15407" lon="6.86349">
        <ele>315.4</ele>
        <time>2013-05-22T06:58:15Z</time>
      </trkpt>
      <trkpt lat="49.15405" lon="6.86341">
        <ele>315.6</ele>
        <time>2013-05-22T06:58:20Z</time>
      </trkpt>
      <trkpt lat="49.15404" lon="6.86332">
        <ele>315.4</ele>
        <time>2013-05-22T06:58:25Z</time>
      </trkpt>
      <trkpt lat="49.15403" lon="6.86324">
        <ele>315.2</ele>
        <time>2013-05-22T06:58:30Z</time>
      </trkpt>
      <trkpt lat="49.15401" lon="6.86315">
        <ele>315.3</ele>
        <time>2013-05-22T06:58:35Z</time>
      </trkpt>
      <trkpt lat="49.154" lon="6.86306">
        <ele>316.1</ele>
        <time>2013-05-22T06:58:40Z</time>
      </trkpt>
      <trkpt lat="49.15398" lon="6.86297">
        <ele>315.2</ele>
        <time>2013-05-22T06:58:45Z</time>
      </trkpt>
      <trkpt lat="49.15393" lon="6.86293">
        <ele>315.1</ele>
        <time>2013-05-22T06:58:50Z</time>
      </trkpt>
      <trkpt lat="49.15393" lon="6.86293">
        <ele>315.1</ele>
        <time>2013-05-22T06:58:50Z</time>
      </trkpt>
      <trkpt lat="49.15389" lon="6.86293">
        <ele>315.6</ele>
        <time>2013-05-22T06:58:55Z</time>
      </trkpt>
      <trkpt lat="49.15383" lon="6.86292">
        <ele>315.7</ele>
        <time>2013-05-22T06:59:00Z</time>
      </trkpt>
      <trkpt lat="49.15382" lon="6.86292">
        <ele>315.8</ele>
        <time>2013-05-22T06:59:01Z</time>
      </trkpt>
      <trkpt lat="49.15372" lon="6.86289">
        <ele>314.7</ele>
        <time>2013-05-22T06:59:10Z</time>
      </trkpt>
      <trkpt lat="49.15367" lon="6.86288">
        <ele>314.3</ele>
        <time>2013-05-22T06:59:15Z</time>
      </trkpt>
      <trkpt lat="49.15361" lon="6.86287">
        <ele>314.1</ele>
        <time>2013-05-22T06:59:20Z</time>
      </trkpt>
      <trkpt lat="49.15357" lon="6.86287">
        <ele>313.4</ele>
        <time>2013-05-22T06:59:25Z</time>
      </trkpt>
      <trkpt lat="49.15352" lon="6.86285">
        <ele>312.3</ele>
        <time>2013-05-22T06:59:30Z</time>
      </trkpt>
      <trkpt lat="49.15347" lon="6.86281">
        <ele>312.6</ele>
        <time>2013-05-22T06:59:35Z</time>
      </trkpt>
      <trkpt lat="49.15342" lon="6.86277">
        <ele>311.9</ele>
        <time>2013-05-22T06:59:40Z</time>
      </trkpt>
      <trkpt lat="49.15338" lon="6.8627">
        <ele>311.8</ele>
        <time>2013-05-22T06:59:45Z</time>
      </trkpt>
      <trkpt lat="49.15334" lon="6.86262">
        <ele>311</ele>
        <time>2013-05-22T06:59:50Z</time>
      </trkpt>
      <trkpt lat="49.1533" lon="6.86253">
        <ele>311</ele>
        <time>2013-05-22T06:59:55Z</time>
      </trkpt>
      <trkpt lat="49.15327" lon="6.86245">
        <ele>310.9</ele>
        <time>2013-05-22T07:00:00Z</time>
      </trkpt>
      <trkpt lat="49.15324" lon="6.86237">
        <ele>310.8</ele>
        <time>2013-05-22T07:00:05Z</time>
      </trkpt>
      <trkpt lat="49.15323" lon="6.86236">
        <ele>311</ele>
        <time>2013-05-22T07:00:06Z</time>
      </trkpt>
      <trkpt lat="49.15317" lon="6.86223">
        <ele>310.5</ele>
        <time>2013-05-22T07:00:15Z</time>
      </trkpt>
      <trkpt lat="49.15313" lon="6.86216">
        <ele>310</ele>
        <time>2013-05-22T07:00:20Z</time>
      </trkpt>
      <trkpt lat="49.1531" lon="6.86209">
        <ele>310</ele>
        <time>2013-05-22T07:00:25Z</time>
      </trkpt>
      <trkpt lat="49.15307" lon="6.86202">
        <ele>310</ele>
        <time>2013-05-22T07:00:30Z</time>
      </trkpt>
      <trkpt lat="49.15305" lon="6.86193">
        <ele>309.9</ele>
        <time>2013-05-22T07:00:35Z</time>
      </trkpt>
      <trkpt lat="49.15302" lon="6.86184">
        <ele>309.3</ele>
        <time>2013-05-22T07:00:40Z</time>
      </trkpt>
      <trkpt lat="49.153" lon="6.86177">
        <ele>309.5</ele>
        <time>2013-05-22T07:00:45Z</time>
      </trkpt>
      <trkpt lat="49.15296" lon="6.86169">
        <ele>309.4</ele>
        <time>2013-05-22T07:00:50Z</time>
      </trkpt>
      <trkpt lat="49.1529" lon="6.86166">
        <ele>308.9</ele>
        <time>2013-05-22T07:00:55Z</time>
      </trkpt>
      <trkpt lat="49.15285" lon="6.86162">
        <ele>308.8</ele>
        <time>2013-05-22T07:01:00Z</time>
      </trkpt>
      <trkpt lat="49.1528" lon="6.8616">
        <ele>307.1</ele>
        <time>2013-05-22T07:01:05Z</time>
      </trkpt>
      <trkpt lat="49.15276" lon="6.86156">
        <ele>305.9</ele>
        <time>2013-05-22T07:01:10Z</time>
      </trkpt>
      <trkpt lat="49.15275" lon="6.86156">
        <ele>305.9</ele>
        <time>2013-05-22T07:01:11Z</time>
      </trkpt>
      <trkpt lat="49.15267" lon="6.86148">
        <ele>303.6</ele>
        <time>2013-05-22T07:01:20Z</time>
      </trkpt>
      <trkpt lat="49.15263" lon="6.86143">
        <ele>302.7</ele>
        <time>2013-05-22T07:01:25Z</time>
      </trkpt>
      <trkpt lat="49.15259" lon="6.86137">
        <ele>302.6</ele>
        <time>2013-05-22T07:01:30Z</time>
      </trkpt>
      <trkpt lat="49.15256" lon="6.86132">
        <ele>302.5</ele>
        <time>2013-05-22T07:01:35Z</time>
      </trkpt>
      <trkpt lat="49.15253" lon="6.86128">
        <ele>302.2</ele>
        <time>2013-05-22T07:01:40Z</time>
      </trkpt>
      <trkpt lat="49.1525" lon="6.86124">
        <ele>301.5</ele>
        <time>2013-05-22T07:01:45Z</time>
      </trkpt>
      <trkpt lat="49.15248" lon="6.86122">
        <ele>300.3</ele>
        <time>2013-05-22T07:01:50Z</time>
      </trkpt>
      <trkpt lat="49.15246" lon="6.8612">
        <ele>299.3</ele>
        <time>2013-05-22T07:01:55Z</time>
      </trkpt>
      <trkpt lat="49.15244" lon="6.86118">
        <ele>298.4</ele>
        <time>2013-05-22T07:02:00Z</time>
      </trkpt>
      <trkpt lat="49.1524" lon="6.86113">
        <ele>297.7</ele>
        <time>2013-05-22T07:02:05Z</time>
      </trkpt>
      <trkpt lat="49.15236" lon="6.8611">
        <ele>296</ele>
        <time>2013-05-22T07:02:10Z</time>
      </trkpt>
      <trkpt lat="49.15232" lon="6.86106">
        <ele>295</ele>
        <time>2013-05-22T07:02:15Z</time>
      </trkpt>
      <trkpt lat="49.15231" lon="6.86105">
        <ele>295</ele>
        <time>2013-05-22T07:02:16Z</time>
      </trkpt>
      <trkpt lat="49.15226" lon="6.86101">
        <ele>293.4</ele>
        <time>2013-05-22T07:02:25Z</time>
      </trkpt>
      <trkpt lat="49.15221" lon="6.86097">
        <ele>293.4</ele>
        <time>2013-05-22T07:02:30Z</time>
      </trkpt>
      <trkpt lat="49.15218" lon="6.8609">
        <ele>292.7</ele>
        <time>2013-05-22T07:02:35Z</time>
      </trkpt>
      <trkpt lat="49.15216" lon="6.86086">
        <ele>292.7</ele>
        <time>2013-05-22T07:02:40Z</time>
      </trkpt>
      <trkpt lat="49.15216" lon="6.86083">
        <ele>293.1</ele>
        <time>2013-05-22T07:02:45Z</time>
      </trkpt>
      <trkpt lat="49.15198" lon="6.86084">
        <ele>294.1</ele>
        <time>2013-05-22T07:02:51Z</time>
      </trkpt>
      <trkpt lat="49.15218" lon="6.86071">
        <ele>293.9</ele>
        <time>2013-05-22T07:04:41Z</time>
      </trkpt>
      <trkpt lat="49.15217" lon="6.86071">
        <ele>294.3</ele>
        <time>2013-05-22T07:04:46Z</time>
      </trkpt>
      <trkpt lat="49.15216" lon="6.86068">
        <ele>294.4</ele>
        <time>2013-05-22T07:04:51Z</time>
      </trkpt>
      <trkpt lat="49.15214" lon="6.86063">
        <ele>293.4</ele>
        <time>2013-05-22T07:04:56Z</time>
      </trkpt>
      <trkpt lat="49.15212" lon="6.86062">
        <ele>293.1</ele>
        <time>2013-05-22T07:05:01Z</time>
      </trkpt>
      <trkpt lat="49.15209" lon="6.86057">
        <ele>293.3</ele>
        <time>2013-05-22T07:05:06Z</time>
      </trkpt>
      <trkpt lat="49.15207" lon="6.86054">
        <ele>293.8</ele>
        <time>2013-05-22T07:05:11Z</time>
      </trkpt>
      <trkpt lat="49.15203" lon="6.8605">
        <ele>293.4</ele>
        <time>2013-05-22T07:05:16Z</time>
      </trkpt>
      <trkpt lat="49.15201" lon="6.86046">
        <ele>292.7</ele>
        <time>2013-05-22T07:05:21Z</time>
      </trkpt>
      <trkpt lat="49.15197" lon="6.86044">
        <ele>292.6</ele>
        <time>2013-05-22T07:05:26Z</time>
      </trkpt>
      <trkpt lat="49.15197" lon="6.86043">
        <ele>292.1</ele>
        <time>2013-05-22T07:05:27Z</time>
      </trkpt>
      <trkpt lat="49.15189" lon="6.86041">
        <ele>290</ele>
        <time>2013-05-22T07:05:36Z</time>
      </trkpt>
      <trkpt lat="49.15186" lon="6.86041">
        <ele>289</ele>
        <time>2013-05-22T07:05:41Z</time>
      </trkpt>
      <trkpt lat="49.15182" lon="6.86041">
        <ele>287.6</ele>
        <time>2013-05-22T07:05:46Z</time>
      </trkpt>
      <trkpt lat="49.15178" lon="6.86041">
        <ele>286.4</ele>
        <time>2013-05-22T07:05:51Z</time>
      </trkpt>
      <trkpt lat="49.15175" lon="6.86039">
        <ele>285.3</ele>
        <time>2013-05-22T07:05:56Z</time>
      </trkpt>
      <trkpt lat="49.15171" lon="6.86037">
        <ele>285.1</ele>
        <time>2013-05-22T07:06:01Z</time>
      </trkpt>
      <trkpt lat="49.15168" lon="6.86036">
        <ele>284</ele>
        <time>2013-05-22T07:06:06Z</time>
      </trkpt>
      <trkpt lat="49.15165" lon="6.86034">
        <ele>282.7</ele>
        <time>2013-05-22T07:06:11Z</time>
      </trkpt>
      <trkpt lat="49.15161" lon="6.86031">
        <ele>282.3</ele>
        <time>2013-05-22T07:06:16Z</time>
      </trkpt>
      <trkpt lat="49.15158" lon="6.86029">
        <ele>280.4</ele>
        <time>2013-05-22T07:06:21Z</time>
      </trkpt>
      <trkpt lat="49.15155" lon="6.86027">
        <ele>279.3</ele>
        <time>2013-05-22T07:06:26Z</time>
      </trkpt>
      <trkpt lat="49.15152" lon="6.86027">
        <ele>278.6</ele>
        <time>2013-05-22T07:06:31Z</time>
      </trkpt>
      <trkpt lat="49.15151" lon="6.86027">
        <ele>278.6</ele>
        <time>2013-05-22T07:06:32Z</time>
      </trkpt>
      <trkpt lat="49.15144" lon="6.86021">
        <ele>277</ele>
        <time>2013-05-22T07:06:41Z</time>
      </trkpt>
      <trkpt lat="49.15142" lon="6.86018">
        <ele>276.8</ele>
        <time>2013-05-22T07:06:46Z</time>
      </trkpt>
      <trkpt lat="49.15138" lon="6.86015">
        <ele>276.5</ele>
        <time>2013-05-22T07:06:51Z</time>
      </trkpt>
      <trkpt lat="49.15133" lon="6.86012">
        <ele>276.6</ele>
        <time>2013-05-22T07:06:56Z</time>
      </trkpt>
      <trkpt lat="49.15128" lon="6.86009">
        <ele>275.3</ele>
        <time>2013-05-22T07:07:01Z</time>
      </trkpt>
      <trkpt lat="49.15123" lon="6.86005">
        <ele>273.7</ele>
        <time>2013-05-22T07:07:06Z</time>
      </trkpt>
      <trkpt lat="49.15118" lon="6.86001">
        <ele>273.6</ele>
        <time>2013-05-22T07:07:11Z</time>
      </trkpt>
      <trkpt lat="49.15115" lon="6.85997">
        <ele>272.6</ele>
        <time>2013-05-22T07:07:16Z</time>
      </trkpt>
      <trkpt lat="49.15111" lon="6.85992">
        <ele>271.9</ele>
        <time>2013-05-22T07:07:21Z</time>
      </trkpt>
      <trkpt lat="49.15106" lon="6.85986">
        <ele>271.2</ele>
        <time>2013-05-22T07:07:26Z</time>
      </trkpt>
      <trkpt lat="49.15102" lon="6.85979">
        <ele>271.3</ele>
        <time>2013-05-22T07:07:31Z</time>
      </trkpt>
      <trkpt lat="49.15097" lon="6.85973">
        <ele>271.3</ele>
        <time>2013-05-22T07:07:36Z</time>
      </trkpt>
      <trkpt lat="49.15096" lon="6.85973">
        <ele>271.1</ele>
        <time>2013-05-22T07:07:37Z</time>
      </trkpt>
      <trkpt lat="49.15087" lon="6.85967">
        <ele>269.3</ele>
        <time>2013-05-22T07:07:46Z</time>
      </trkpt>
      <trkpt lat="49.15081" lon="6.85963">
        <ele>268.5</ele>
        <time>2013-05-22T07:07:51Z</time>
      </trkpt>
      <trkpt lat="49.15076" lon="6.8596">
        <ele>267.2</ele>
        <time>2013-05-22T07:07:56Z</time>
      </trkpt>
      <trkpt lat="49.15071" lon="6.85957">
        <ele>266.5</ele>
        <time>2013-05-22T07:08:01Z</time>
      </trkpt>
      <trkpt lat="49.15066" lon="6.85954">
        <ele>265.1</ele>
        <time>2013-05-22T07:08:06Z</time>
      </trkpt>
      <trkpt lat="49.15061" lon="6.8595">
        <ele>264.5</ele>
        <time>2013-05-22T07:08:11Z</time>
      </trkpt>
      <trkpt lat="49.15057" lon="6.85947">
        <ele>263.4</ele>
        <time>2013-05-22T07:08:16Z</time>
      </trkpt>
      <trkpt lat="49.15052" lon="6.85943">
        <ele>262.8</ele>
        <time>2013-05-22T07:08:21Z</time>
      </trkpt>
      <trkpt lat="49.15047" lon="6.85939">
        <ele>262.3</ele>
        <time>2013-05-22T07:08:26Z</time>
      </trkpt>
      <trkpt lat="49.15042" lon="6.85936">
        <ele>262.2</ele>
        <time>2013-05-22T07:08:31Z</time>
      </trkpt>
      <trkpt lat="49.15037" lon="6.85932">
        <ele>261.5</ele>
        <time>2013-05-22T07:08:36Z</time>
      </trkpt>
      <trkpt lat="49.15032" lon="6.85928">
        <ele>261.5</ele>
        <time>2013-05-22T07:08:41Z</time>
      </trkpt>
      <trkpt lat="49.15031" lon="6.85927">
        <ele>261.5</ele>
        <time>2013-05-22T07:08:42Z</time>
      </trkpt>
      <trkpt lat="49.15024" lon="6.85919">
        <ele>259.5</ele>
        <time>2013-05-22T07:08:51Z</time>
      </trkpt>
      <trkpt lat="49.15021" lon="6.85919">
        <ele>258.4</ele>
        <time>2013-05-22T07:08:56Z</time>
      </trkpt>
      <trkpt lat="49.14993" lon="6.85932">
        <ele>243.9</ele>
        <time>2013-05-22T07:10:06Z</time>
      </trkpt>
      <trkpt lat="49.14989" lon="6.85934">
        <ele>243.1</ele>
        <time>2013-05-22T07:10:11Z</time>
      </trkpt>
      <trkpt lat="49.14985" lon="6.85933">
        <ele>242</ele>
        <time>2013-05-22T07:10:16Z</time>
      </trkpt>
      <trkpt lat="49.14981" lon="6.85934">
        <ele>241.1</ele>
        <time>2013-05-22T07:10:21Z</time>
      </trkpt>
      <trkpt lat="49.14976" lon="6.85933">
        <ele>239.7</ele>
        <time>2013-05-22T07:10:26Z</time>
      </trkpt>
      <trkpt lat="49.14971" lon="6.8593">
        <ele>239</ele>
        <time>2013-05-22T07:10:31Z</time>
      </trkpt>
      <trkpt lat="49.14966" lon="6.85929">
        <ele>238.5</ele>
        <time>2013-05-22T07:10:36Z</time>
      </trkpt>
      <trkpt lat="49.1496" lon="6.85927">
        <ele>237.8</ele>
        <time>2013-05-22T07:10:41Z</time>
      </trkpt>
      <trkpt lat="49.14955" lon="6.85926">
        <ele>237.3</ele>
        <time>2013-05-22T07:10:46Z</time>
      </trkpt>
      <trkpt lat="49.14949" lon="6.85924">
        <ele>236.2</ele>
        <time>2013-05-22T07:10:51Z</time>
      </trkpt>
      <trkpt lat="49.14948" lon="6.85924">
        <ele>235.9</ele>
        <time>2013-05-22T07:10:52Z</time>
      </trkpt>
      <trkpt lat="49.14939" lon="6.85924">
        <ele>233.6</ele>
        <time>2013-05-22T07:11:01Z</time>
      </trkpt>
      <trkpt lat="49.14934" lon="6.85923">
        <ele>232.5</ele>
        <time>2013-05-22T07:11:06Z</time>
      </trkpt>
      <trkpt lat="49.14928" lon="6.85921">
        <ele>231.8</ele>
        <time>2013-05-22T07:11:11Z</time>
      </trkpt>
      <trkpt lat="49.14924" lon="6.85919">
        <ele>231.3</ele>
        <time>2013-05-22T07:11:16Z</time>
      </trkpt>
      <trkpt lat="49.14921" lon="6.85922">
        <ele>229.7</ele>
        <time>2013-05-22T07:11:21Z</time>
      </trkpt>
      <trkpt lat="49.14919" lon="6.85926">
        <ele>229.1</ele>
        <time>2013-05-22T07:11:26Z</time>
      </trkpt>
      <trkpt lat="49.14914" lon="6.85926">
        <ele>227.8</ele>
        <time>2013-05-22T07:11:31Z</time>
      </trkpt>
      <trkpt lat="49.14909" lon="6.85924">
        <ele>225.9</ele>
        <time>2013-05-22T07:11:36Z</time>
      </trkpt>
      <trkpt lat="49.14904" lon="6.85921">
        <ele>225.4</ele>
        <time>2013-05-22T07:11:41Z</time>
      </trkpt>
      <trkpt lat="49.149" lon="6.85919">
        <ele>224.3</ele>
        <time>2013-05-22T07:11:46Z</time>
      </trkpt>
      <trkpt lat="49.14898" lon="6.85916">
        <ele>223.5</ele>
        <time>2013-05-22T07:11:51Z</time>
      </trkpt>
      <trkpt lat="49.14895" lon="6.85916">
        <ele>223</ele>
        <time>2013-05-22T07:11:56Z</time>
      </trkpt>
      <trkpt lat="49.14895" lon="6.85916">
        <ele>222.9</ele>
        <time>2013-05-22T07:11:57Z</time>
      </trkpt>
      <trkpt lat="49.14895" lon="6.85916">
        <ele>222.9</ele>
        <time>2013-05-22T07:11:57Z</time>
      </trkpt>
      <trkpt lat="49.14892" lon="6.85929">
        <ele>221</ele>
        <time>2013-05-22T07:12:06Z</time>
      </trkpt>
      <trkpt lat="49.1489" lon="6.85939">
        <ele>219.8</ele>
        <time>2013-05-22T07:12:11Z</time>
      </trkpt>
      <trkpt lat="49.14888" lon="6.85948">
        <ele>219.6</ele>
        <time>2013-05-22T07:12:16Z</time>
      </trkpt>
      <trkpt lat="49.14887" lon="6.85956">
        <ele>219.2</ele>
        <time>2013-05-22T07:12:21Z</time>
      </trkpt>
      <trkpt lat="49.14884" lon="6.85963">
        <ele>218.9</ele>
        <time>2013-05-22T07:12:26Z</time>
      </trkpt>
      <trkpt lat="49.14881" lon="6.85969">
        <ele>218.4</ele>
        <time>2013-05-22T07:12:31Z</time>
      </trkpt>
      <trkpt lat="49.14879" lon="6.85972">
        <ele>217.2</ele>
        <time>2013-05-22T07:12:36Z</time>
      </trkpt>
      <trkpt lat="49.14877" lon="6.85975">
        <ele>217.2</ele>
        <time>2013-05-22T07:12:41Z</time>
      </trkpt>
      <trkpt lat="49.14873" lon="6.85981">
        <ele>217</ele>
        <time>2013-05-22T07:12:46Z</time>
      </trkpt>
      <trkpt lat="49.14869" lon="6.85989">
        <ele>216.6</ele>
        <time>2013-05-22T07:12:51Z</time>
      </trkpt>
      <trkpt lat="49.14865" lon="6.85996">
        <ele>216.9</ele>
        <time>2013-05-22T07:12:56Z</time>
      </trkpt>
      <trkpt lat="49.14862" lon="6.86004">
        <ele>216.8</ele>
        <time>2013-05-22T07:13:01Z</time>
      </trkpt>
      <trkpt lat="49.14861" lon="6.86006">
        <ele>216.8</ele>
        <time>2013-05-22T07:13:02Z</time>
      </trkpt>
      <trkpt lat="49.14856" lon="6.86016">
        <ele>216.4</ele>
        <time>2013-05-22T07:13:11Z</time>
      </trkpt>
      <trkpt lat="49.1485" lon="6.86016">
        <ele>217</ele>
        <time>2013-05-22T07:13:16Z</time>
      </trkpt>
      <trkpt lat="49.14785" lon="6.85977">
        <ele>213.9</ele>
        <time>2013-05-22T07:14:16Z</time>
      </trkpt>
      <trkpt lat="49.1478" lon="6.85982">
        <ele>214.3</ele>
        <time>2013-05-22T07:14:21Z</time>
      </trkpt>
      <trkpt lat="49.14775" lon="6.85984">
        <ele>215.4</ele>
        <time>2013-05-22T07:14:26Z</time>
      </trkpt>
      <trkpt lat="49.1477" lon="6.85981">
        <ele>215.6</ele>
        <time>2013-05-22T07:14:31Z</time>
      </trkpt>
      <trkpt lat="49.14765" lon="6.85977">
        <ele>214.9</ele>
        <time>2013-05-22T07:14:36Z</time>
      </trkpt>
      <trkpt lat="49.1476" lon="6.85973">
        <ele>215.5</ele>
        <time>2013-05-22T07:14:41Z</time>
      </trkpt>
      <trkpt lat="49.14755" lon="6.85968">
        <ele>214.6</ele>
        <time>2013-05-22T07:14:46Z</time>
      </trkpt>
      <trkpt lat="49.1475" lon="6.85964">
        <ele>214.7</ele>
        <time>2013-05-22T07:14:51Z</time>
      </trkpt>
      <trkpt lat="49.14745" lon="6.85961">
        <ele>213.7</ele>
        <time>2013-05-22T07:14:56Z</time>
      </trkpt>
      <trkpt lat="49.1474" lon="6.85958">
        <ele>213.4</ele>
        <time>2013-05-22T07:15:01Z</time>
      </trkpt>
      <trkpt lat="49.14735" lon="6.85954">
        <ele>213</ele>
        <time>2013-05-22T07:15:06Z</time>
      </trkpt>
      <trkpt lat="49.1473" lon="6.85949">
        <ele>212.4</ele>
        <time>2013-05-22T07:15:11Z</time>
      </trkpt>
      <trkpt lat="49.14729" lon="6.85948">
        <ele>212.5</ele>
        <time>2013-05-22T07:15:12Z</time>
      </trkpt>
      <trkpt lat="49.14721" lon="6.85941">
        <ele>210.9</ele>
        <time>2013-05-22T07:15:21Z</time>
      </trkpt>
      <trkpt lat="49.14717" lon="6.85936">
        <ele>211.9</ele>
        <time>2013-05-22T07:15:26Z</time>
      </trkpt>
      <trkpt lat="49.14716" lon="6.85934">
        <ele>211.3</ele>
        <time>2013-05-22T07:15:31Z</time>
      </trkpt>
      <trkpt lat="49.14715" lon="6.85934">
        <ele>211.2</ele>
        <time>2013-05-22T07:15:36Z</time>
      </trkpt>
      <trkpt lat="49.14713" lon="6.85931">
        <ele>210.9</ele>
        <time>2013-05-22T07:15:41Z</time>
      </trkpt>
      <trkpt lat="49.14712" lon="6.85931">
        <ele>211.1</ele>
        <time>2013-05-22T07:15:46Z</time>
      </trkpt>
      <trkpt lat="49.14712" lon="6.85931">
        <ele>211.1</ele>
        <time>2013-05-22T07:15:46Z</time>
      </trkpt>
      <trkpt lat="49.14714" lon="6.85929">
        <ele>210.9</ele>
        <time>2013-05-22T07:15:51Z</time>
      </trkpt>
      <trkpt lat="49.14716" lon="6.85924">
        <ele>211.4</ele>
        <time>2013-05-22T07:15:56Z</time>
      </trkpt>
      <trkpt lat="49.14719" lon="6.85919">
        <ele>210.6</ele>
        <time>2013-05-22T07:16:01Z</time>
      </trkpt>
      <trkpt lat="49.14723" lon="6.85913">
        <ele>209.9</ele>
        <time>2013-05-22T07:16:06Z</time>
      </trkpt>
      <trkpt lat="49.14726" lon="6.85907">
        <ele>209.6</ele>
        <time>2013-05-22T07:16:11Z</time>
      </trkpt>
      <trkpt lat="49.1473" lon="6.859">
        <ele>209.7</ele>
        <time>2013-05-22T07:16:16Z</time>
      </trkpt>
      <trkpt lat="49.1473" lon="6.85899">
        <ele>209.5</ele>
        <time>2013-05-22T07:16:17Z</time>
      </trkpt>
      <trkpt lat="49.14737" lon="6.85886">
        <ele>210.1</ele>
        <time>2013-05-22T07:16:26Z</time>
      </trkpt>
      <trkpt lat="49.1474" lon="6.85879">
        <ele>209.7</ele>
        <time>2013-05-22T07:16:31Z</time>
      </trkpt>
      <trkpt lat="49.14744" lon="6.85872">
        <ele>209.4</ele>
        <time>2013-05-22T07:16:36Z</time>
      </trkpt>
      <trkpt lat="49.14746" lon="6.85864">
        <ele>208.9</ele>
        <time>2013-05-22T07:16:41Z</time>
      </trkpt>
      <trkpt lat="49.14749" lon="6.85856">
        <ele>209.3</ele>
        <time>2013-05-22T07:16:46Z</time>
      </trkpt>
      <trkpt lat="49.14752" lon="6.85847">
        <ele>210.2</ele>
        <time>2013-05-22T07:16:51Z</time>
      </trkpt>
      <trkpt lat="49.14754" lon="6.85838">
        <ele>209.5</ele>
        <time>2013-05-22T07:16:56Z</time>
      </trkpt>
      <trkpt lat="49.14752" lon="6.85828">
        <ele>209</ele>
        <time>2013-05-22T07:17:01Z</time>
      </trkpt>
      <trkpt lat="49.14752" lon="6.85828">
        <ele>209</ele>
        <time>2013-05-22T07:17:01Z</time>
      </trkpt>
      <trkpt lat="49.14749" lon="6.85822">
        <ele>208.7</ele>
        <time>2013-05-22T07:17:06Z</time>
      </trkpt>
      <trkpt lat="49.14744" lon="6.85816">
        <ele>208</ele>
        <time>2013-05-22T07:17:11Z</time>
      </trkpt>
      <trkpt lat="49.1474" lon="6.8581">
        <ele>208.3</ele>
        <time>2013-05-22T07:17:16Z</time>
      </trkpt>
      <trkpt lat="49.14735" lon="6.85803">
        <ele>207.6</ele>
        <time>2013-05-22T07:17:21Z</time>
      </trkpt>
      <trkpt lat="49.14734" lon="6.85802">
        <ele>207.3</ele>
        <time>2013-05-22T07:17:22Z</time>
      </trkpt>
      <trkpt lat="49.14726" lon="6.85793">
        <ele>206.4</ele>
        <time>2013-05-22T07:17:31Z</time>
      </trkpt>
      <trkpt lat="49.14722" lon="6.8579">
        <ele>206</ele>
        <time>2013-05-22T07:17:36Z</time>
      </trkpt>
      <trkpt lat="49.14717" lon="6.85784">
        <ele>205.6</ele>
        <time>2013-05-22T07:17:41Z</time>
      </trkpt>
      <trkpt lat="49.14714" lon="6.85778">
        <ele>206</ele>
        <time>2013-05-22T07:17:46Z</time>
      </trkpt>
      <trkpt lat="49.1471" lon="6.85771">
        <ele>206.3</ele>
        <time>2013-05-22T07:17:51Z</time>
      </trkpt>
      <trkpt lat="49.14709" lon="6.85762">
        <ele>205.9</ele>
        <time>2013-05-22T07:17:56Z</time>
      </trkpt>
      <trkpt lat="49.14705" lon="6.85755">
        <ele>205.9</ele>
        <time>2013-05-22T07:18:01Z</time>
      </trkpt>
      <trkpt lat="49.14701" lon="6.85748">
        <ele>205.8</ele>
        <time>2013-05-22T07:18:06Z</time>
      </trkpt>
      <trkpt lat="49.14697" lon="6.85743">
        <ele>205.2</ele>
        <time>2013-05-22T07:18:11Z</time>
      </trkpt>
      <trkpt lat="49.14693" lon="6.85737">
        <ele>204.8</ele>
        <time>2013-05-22T07:18:16Z</time>
      </trkpt>
      <trkpt lat="49.14689" lon="6.85732">
        <ele>204.3</ele>
        <time>2013-05-22T07:18:21Z</time>
      </trkpt>
      <trkpt lat="49.14686" lon="6.85726">
        <ele>203.9</ele>
        <time>2013-05-22T07:18:26Z</time>
      </trkpt>
      <trkpt lat="49.14686" lon="6.85725">
        <ele>203.9</ele>
        <time>2013-05-22T07:18:27Z</time>
      </trkpt>
      <trkpt lat="49.14685" lon="6.85713">
        <ele>203.7</ele>
        <time>2013-05-22T07:18:36Z</time>
      </trkpt>
      <trkpt lat="49.14682" lon="6.85708">
        <ele>203.6</ele>
        <time>2013-05-22T07:18:41Z</time>
      </trkpt>
      <trkpt lat="49.14681" lon="6.85704">
        <ele>203.4</ele>
        <time>2013-05-22T07:18:46Z</time>
      </trkpt>
      <trkpt lat="49.14681" lon="6.857">
        <ele>203.7</ele>
        <time>2013-05-22T07:18:51Z</time>
      </trkpt>
      <trkpt lat="49.1468" lon="6.85696">
        <ele>203.7</ele>
        <time>2013-05-22T07:18:56Z</time>
      </trkpt>
      <trkpt lat="49.14679" lon="6.85692">
        <ele>203.5</ele>
        <time>2013-05-22T07:19:01Z</time>
      </trkpt>
      <trkpt lat="49.14678" lon="6.85684">
        <ele>203.4</ele>
        <time>2013-05-22T07:19:06Z</time>
      </trkpt>
      <trkpt lat="49.14675" lon="6.85676">
        <ele>202</ele>
        <time>2013-05-22T07:19:11Z</time>
      </trkpt>
      <trkpt lat="49.14674" lon="6.85666">
        <ele>201.8</ele>
        <time>2013-05-22T07:19:16Z</time>
      </trkpt>
      <trkpt lat="49.14672" lon="6.85657">
        <ele>201.3</ele>
        <time>2013-05-22T07:19:21Z</time>
      </trkpt>
      <trkpt lat="49.14671" lon="6.85647">
        <ele>200.7</ele>
        <time>2013-05-22T07:19:26Z</time>
      </trkpt>
      <trkpt lat="49.1467" lon="6.85638">
        <ele>201.1</ele>
        <time>2013-05-22T07:19:31Z</time>
      </trkpt>
      <trkpt lat="49.1467" lon="6.85636">
        <ele>200.7</ele>
        <time>2013-05-22T07:19:32Z</time>
      </trkpt>
      <trkpt lat="49.14669" lon="6.8562">
        <ele>200.3</ele>
        <time>2013-05-22T07:19:41Z</time>
      </trkpt>
      <trkpt lat="49.14669" lon="6.8562">
        <ele>200.3</ele>
        <time>2013-05-22T07:19:41Z</time>
      </trkpt>
      <trkpt lat="49.14674" lon="6.85615">
        <ele>199.9</ele>
        <time>2013-05-22T07:19:46Z</time>
      </trkpt>
      <trkpt lat="49.1468" lon="6.85611">
        <ele>199.3</ele>
        <time>2013-05-22T07:19:51Z</time>
      </trkpt>
      <trkpt lat="49.14686" lon="6.85609">
        <ele>198.8</ele>
        <time>2013-05-22T07:19:56Z</time>
      </trkpt>
      <trkpt lat="49.14691" lon="6.85605">
        <ele>199.5</ele>
        <time>2013-05-22T07:20:01Z</time>
      </trkpt>
      <trkpt lat="49.14698" lon="6.85603">
        <ele>199.6</ele>
        <time>2013-05-22T07:20:06Z</time>
      </trkpt>
      <trkpt lat="49.14704" lon="6.856">
        <ele>200.1</ele>
        <time>2013-05-22T07:20:11Z</time>
      </trkpt>
      <trkpt lat="49.1471" lon="6.85596">
        <ele>199.7</ele>
        <time>2013-05-22T07:20:16Z</time>
      </trkpt>
      <trkpt lat="49.14716" lon="6.85593">
        <ele>200</ele>
        <time>2013-05-22T07:20:21Z</time>
      </trkpt>
      <trkpt lat="49.14722" lon="6.85591">
        <ele>199.7</ele>
        <time>2013-05-22T07:20:26Z</time>
      </trkpt>
      <trkpt lat="49.14728" lon="6.85589">
        <ele>199.3</ele>
        <time>2013-05-22T07:20:31Z</time>
      </trkpt>
      <trkpt lat="49.14734" lon="6.85586">
        <ele>199.3</ele>
        <time>2013-05-22T07:20:36Z</time>
      </trkpt>
      <trkpt lat="49.14736" lon="6.85586">
        <ele>199.3</ele>
        <time>2013-05-22T07:20:37Z</time>
      </trkpt>
      <trkpt lat="49.14746" lon="6.85582">
        <ele>199.5</ele>
        <time>2013-05-22T07:20:46Z</time>
      </trkpt>
      <trkpt lat="49.14752" lon="6.8558">
        <ele>199.3</ele>
        <time>2013-05-22T07:20:51Z</time>
      </trkpt>
      <trkpt lat="49.14758" lon="6.85576">
        <ele>198.8</ele>
        <time>2013-05-22T07:20:56Z</time>
      </trkpt>
      <trkpt lat="49.14764" lon="6.85573">
        <ele>198.9</ele>
        <time>2013-05-22T07:21:01Z</time>
      </trkpt>
      <trkpt lat="49.1477" lon="6.85571">
        <ele>198.9</ele>
        <time>2013-05-22T07:21:06Z</time>
      </trkpt>
      <trkpt lat="49.14775" lon="6.85568">
        <ele>198.9</ele>
        <time>2013-05-22T07:21:11Z</time>
      </trkpt>
      <trkpt lat="49.14781" lon="6.85566">
        <ele>199.4</ele>
        <time>2013-05-22T07:21:16Z</time>
      </trkpt>
      <trkpt lat="49.14787" lon="6.85563">
        <ele>199.6</ele>
        <time>2013-05-22T07:21:21Z</time>
      </trkpt>
      <trkpt lat="49.14793" lon="6.85561">
        <ele>199.1</ele>
        <time>2013-05-22T07:21:26Z</time>
      </trkpt>
      <trkpt lat="49.14798" lon="6.85559">
        <ele>198.7</ele>
        <time>2013-05-22T07:21:31Z</time>
      </trkpt>
      <trkpt lat="49.14804" lon="6.85556">
        <ele>199</ele>
        <time>2013-05-22T07:21:36Z</time>
      </trkpt>
      <trkpt lat="49.14811" lon="6.85554">
        <ele>199.2</ele>
        <time>2013-05-22T07:21:41Z</time>
      </trkpt>
      <trkpt lat="49.14812" lon="6.85554">
        <ele>198.9</ele>
        <time>2013-05-22T07:21:42Z</time>
      </trkpt>
      <trkpt lat="49.14823" lon="6.8555">
        <ele>199.2</ele>
        <time>2013-05-22T07:21:51Z</time>
      </trkpt>
      <trkpt lat="49.14828" lon="6.85548">
        <ele>198.9</ele>
        <time>2013-05-22T07:21:56Z</time>
      </trkpt>
      <trkpt lat="49.14836" lon="6.85549">
        <ele>198.6</ele>
        <time>2013-05-22T07:22:01Z</time>
      </trkpt>
      <trkpt lat="49.14842" lon="6.85548">
        <ele>198.5</ele>
        <time>2013-05-22T07:22:06Z</time>
      </trkpt>
      <trkpt lat="49.14848" lon="6.85547">
        <ele>198.5</ele>
        <time>2013-05-22T07:22:11Z</time>
      </trkpt>
      <trkpt lat="49.14854" lon="6.85545">
        <ele>198.6</ele>
        <time>2013-05-22T07:22:16Z</time>
      </trkpt>
      <trkpt lat="49.14859" lon="6.85543">
        <ele>198</ele>
        <time>2013-05-22T07:22:21Z</time>
      </trkpt>
      <trkpt lat="49.14865" lon="6.85542">
        <ele>198.1</ele>
        <time>2013-05-22T07:22:26Z</time>
      </trkpt>
      <trkpt lat="49.14871" lon="6.85541">
        <ele>197.8</ele>
        <time>2013-05-22T07:22:31Z</time>
      </trkpt>
      <trkpt lat="49.14878" lon="6.85539">
        <ele>198</ele>
        <time>2013-05-22T07:22:36Z</time>
      </trkpt>
      <trkpt lat="49.14883" lon="6.85536">
        <ele>198.1</ele>
        <time>2013-05-22T07:22:41Z</time>
      </trkpt>
      <trkpt lat="49.14889" lon="6.85535">
        <ele>198</ele>
        <time>2013-05-22T07:22:46Z</time>
      </trkpt>
      <trkpt lat="49.1489" lon="6.85535">
        <ele>197.8</ele>
        <time>2013-05-22T07:22:47Z</time>
      </trkpt>
      <trkpt lat="49.14899" lon="6.85533">
        <ele>197.5</ele>
        <time>2013-05-22T07:22:56Z</time>
      </trkpt>
      <trkpt lat="49.14905" lon="6.85533">
        <ele>197.7</ele>
        <time>2013-05-22T07:23:01Z</time>
      </trkpt>
      <trkpt lat="49.1491" lon="6.85532">
        <ele>197.7</ele>
        <time>2013-05-22T07:23:06Z</time>
      </trkpt>
      <trkpt lat="49.14917" lon="6.8553">
        <ele>197.3</ele>
        <time>2013-05-22T07:23:11Z</time>
      </trkpt>
      <trkpt lat="49.14923" lon="6.85528">
        <ele>197.8</ele>
        <time>2013-05-22T07:23:16Z</time>
      </trkpt>
      <trkpt lat="49.14929" lon="6.85527">
        <ele>197.7</ele>
        <time>2013-05-22T07:23:21Z</time>
      </trkpt>
      <trkpt lat="49.14934" lon="6.85526">
        <ele>197.8</ele>
        <time>2013-05-22T07:23:26Z</time>
      </trkpt>
      <trkpt lat="49.14939" lon="6.85524">
        <ele>198</ele>
        <time>2013-05-22T07:23:31Z</time>
      </trkpt>
      <trkpt lat="49.14945" lon="6.85523">
        <ele>197.9</ele>
        <time>2013-05-22T07:23:36Z</time>
      </trkpt>
      <trkpt lat="49.14951" lon="6.8552">
        <ele>197.8</ele>
        <time>2013-05-22T07:23:41Z</time>
      </trkpt>
      <trkpt lat="49.14955" lon="6.85517">
        <ele>198.1</ele>
        <time>2013-05-22T07:23:46Z</time>
      </trkpt>
      <trkpt lat="49.14958" lon="6.85515">
        <ele>197.9</ele>
        <time>2013-05-22T07:23:51Z</time>
      </trkpt>
      <trkpt lat="49.14959" lon="6.85515">
        <ele>197.9</ele>
        <time>2013-05-22T07:23:52Z</time>
      </trkpt>
      <trkpt lat="49.14968" lon="6.85513">
        <ele>197.7</ele>
        <time>2013-05-22T07:24:01Z</time>
      </trkpt>
      <trkpt lat="49.14976" lon="6.85512">
        <ele>197.4</ele>
        <time>2013-05-22T07:24:06Z</time>
      </trkpt>
      <trkpt lat="49.14982" lon="6.8551">
        <ele>198.1</ele>
        <time>2013-05-22T07:24:11Z</time>
      </trkpt>
      <trkpt lat="49.14989" lon="6.85509">
        <ele>198.2</ele>
        <time>2013-05-22T07:24:16Z</time>
      </trkpt>
      <trkpt lat="49.14995" lon="6.85508">
        <ele>197.8</ele>
        <time>2013-05-22T07:24:21Z</time>
      </trkpt>
      <trkpt lat="49.15001" lon="6.85508">
        <ele>197.5</ele>
        <time>2013-05-22T07:24:26Z</time>
      </trkpt>
      <trkpt lat="49.15007" lon="6.85507">
        <ele>197</ele>
        <time>2013-05-22T07:24:31Z</time>
      </trkpt>
      <trkpt lat="49.15015" lon="6.85505">
        <ele>197.3</ele>
        <time>2013-05-22T07:24:36Z</time>
      </trkpt>
      <trkpt lat="49.1502" lon="6.85504">
        <ele>197.3</ele>
        <time>2013-05-22T07:24:41Z</time>
      </trkpt>
      <trkpt lat="49.15027" lon="6.85504">
        <ele>197.9</ele>
        <time>2013-05-22T07:24:46Z</time>
      </trkpt>
      <trkpt lat="49.15033" lon="6.85504">
        <ele>197.3</ele>
        <time>2013-05-22T07:24:51Z</time>
      </trkpt>
      <trkpt lat="49.15039" lon="6.85505">
        <ele>197.1</ele>
        <time>2013-05-22T07:24:56Z</time>
      </trkpt>
      <trkpt lat="49.1504" lon="6.85505">
        <ele>197.2</ele>
        <time>2013-05-22T07:24:57Z</time>
      </trkpt>
      <trkpt lat="49.15207" lon="6.85519">
        <ele>196.2</ele>
        <time>2013-05-22T07:27:36Z</time>
      </trkpt>
      <trkpt lat="49.1521" lon="6.85512">
        <ele>196.6</ele>
        <time>2013-05-22T07:27:41Z</time>
      </trkpt>
      <trkpt lat="49.15212" lon="6.85503">
        <ele>196.6</ele>
        <time>2013-05-22T07:27:46Z</time>
      </trkpt>
      <trkpt lat="49.15214" lon="6.85493">
        <ele>196.1</ele>
        <time>2013-05-22T07:27:51Z</time>
      </trkpt>
      <trkpt lat="49.15216" lon="6.85484">
        <ele>195.8</ele>
        <time>2013-05-22T07:27:56Z</time>
      </trkpt>
      <trkpt lat="49.15217" lon="6.85474">
        <ele>195.5</ele>
        <time>2013-05-22T07:28:01Z</time>
      </trkpt>
      <trkpt lat="49.15218" lon="6.85463">
        <ele>195.7</ele>
        <time>2013-05-22T07:28:06Z</time>
      </trkpt>
      <trkpt lat="49.15218" lon="6.85451">
        <ele>196</ele>
        <time>2013-05-22T07:28:11Z</time>
      </trkpt>
      <trkpt lat="49.15219" lon="6.85449">
        <ele>195.6</ele>
        <time>2013-05-22T07:28:12Z</time>
      </trkpt>
      <trkpt lat="49.15219" lon="6.85429">
        <ele>194.9</ele>
        <time>2013-05-22T07:28:21Z</time>
      </trkpt>
      <trkpt lat="49.1522" lon="6.85419">
        <ele>194.7</ele>
        <time>2013-05-22T07:28:26Z</time>
      </trkpt>
      <trkpt lat="49.1522" lon="6.85409">
        <ele>194.8</ele>
        <time>2013-05-22T07:28:31Z</time>
      </trkpt>
      <trkpt lat="49.15221" lon="6.85399">
        <ele>194.6</ele>
        <time>2013-05-22T07:28:36Z</time>
      </trkpt>
      <trkpt lat="49.15221" lon="6.85389">
        <ele>194.2</ele>
        <time>2013-05-22T07:28:41Z</time>
      </trkpt>
      <trkpt lat="49.15222" lon="6.85379">
        <ele>194</ele>
        <time>2013-05-22T07:28:46Z</time>
      </trkpt>
      <trkpt lat="49.15222" lon="6.85369">
        <ele>194.2</ele>
        <time>2013-05-22T07:28:51Z</time>
      </trkpt>
      <trkpt lat="49.15223" lon="6.85359">
        <ele>193.3</ele>
        <time>2013-05-22T07:28:56Z</time>
      </trkpt>
      <trkpt lat="49.15223" lon="6.8535">
        <ele>194.2</ele>
        <time>2013-05-22T07:29:01Z</time>
      </trkpt>
      <trkpt lat="49.15223" lon="6.85341">
        <ele>195</ele>
        <time>2013-05-22T07:29:06Z</time>
      </trkpt>
      <trkpt lat="49.15225" lon="6.85332">
        <ele>195.2</ele>
        <time>2013-05-22T07:29:11Z</time>
      </trkpt>
      <trkpt lat="49.15224" lon="6.85322">
        <ele>195.3</ele>
        <time>2013-05-22T07:29:16Z</time>
      </trkpt>
      <trkpt lat="49.15225" lon="6.85321">
        <ele>195.2</ele>
        <time>2013-05-22T07:29:17Z</time>
      </trkpt>
      <trkpt lat="49.15226" lon="6.85306">
        <ele>193.9</ele>
        <time>2013-05-22T07:29:26Z</time>
      </trkpt>
      <trkpt lat="49.15228" lon="6.853">
        <ele>194.4</ele>
        <time>2013-05-22T07:29:31Z</time>
      </trkpt>
      <trkpt lat="49.15238" lon="6.85302">
        <ele>194.9</ele>
        <time>2013-05-22T07:29:41Z</time>
      </trkpt>
      <trkpt lat="49.15244" lon="6.85306">
        <ele>194.5</ele>
        <time>2013-05-22T07:29:46Z</time>
      </trkpt>
      <trkpt lat="49.15249" lon="6.85311">
        <ele>194.7</ele>
        <time>2013-05-22T07:29:51Z</time>
      </trkpt>
      <trkpt lat="49.15254" lon="6.85317">
        <ele>194.1</ele>
        <time>2013-05-22T07:29:56Z</time>
      </trkpt>
      <trkpt lat="49.15259" lon="6.85323">
        <ele>193.8</ele>
        <time>2013-05-22T07:30:01Z</time>
      </trkpt>
      <trkpt lat="49.15264" lon="6.85329">
        <ele>194.1</ele>
        <time>2013-05-22T07:30:06Z</time>
      </trkpt>
      <trkpt lat="49.15268" lon="6.85336">
        <ele>194.4</ele>
        <time>2013-05-22T07:30:11Z</time>
      </trkpt>
      <trkpt lat="49.15272" lon="6.85342">
        <ele>194.1</ele>
        <time>2013-05-22T07:30:16Z</time>
      </trkpt>
      <trkpt lat="49.15277" lon="6.85349">
        <ele>194</ele>
        <time>2013-05-22T07:30:21Z</time>
      </trkpt>
      <trkpt lat="49.15277" lon="6.8535">
        <ele>193.7</ele>
        <time>2013-05-22T07:30:22Z</time>
      </trkpt>
      <trkpt lat="49.15286" lon="6.85361">
        <ele>193.8</ele>
        <time>2013-05-22T07:30:31Z</time>
      </trkpt>
      <trkpt lat="49.15291" lon="6.85367">
        <ele>194.1</ele>
        <time>2013-05-22T07:30:36Z</time>
      </trkpt>
      <trkpt lat="49.15295" lon="6.85374">
        <ele>194.1</ele>
        <time>2013-05-22T07:30:41Z</time>
      </trkpt>
      <trkpt lat="49.15301" lon="6.85378">
        <ele>194.3</ele>
        <time>2013-05-22T07:30:46Z</time>
      </trkpt>
      <trkpt lat="49.15306" lon="6.85383">
        <ele>194</ele>
        <time>2013-05-22T07:30:51Z</time>
      </trkpt>
      <trkpt lat="49.15311" lon="6.85389">
        <ele>193.4</ele>
        <time>2013-05-22T07:30:56Z</time>
      </trkpt>
      <trkpt lat="49.15317" lon="6.85394">
        <ele>193.6</ele>
        <time>2013-05-22T07:31:01Z</time>
      </trkpt>
      <trkpt lat="49.15323" lon="6.85398">
        <ele>193.6</ele>
        <time>2013-05-22T07:31:06Z</time>
      </trkpt>
      <trkpt lat="49.15329" lon="6.85402">
        <ele>194.4</ele>
        <time>2013-05-22T07:31:11Z</time>
      </trkpt>
      <trkpt lat="49.15334" lon="6.85406">
        <ele>194.7</ele>
        <time>2013-05-22T07:31:16Z</time>
      </trkpt>
      <trkpt lat="49.15339" lon="6.8541">
        <ele>194.2</ele>
        <time>2013-05-22T07:31:21Z</time>
      </trkpt>
      <trkpt lat="49.15345" lon="6.85414">
        <ele>194.1</ele>
        <time>2013-05-22T07:31:26Z</time>
      </trkpt>
      <trkpt lat="49.15346" lon="6.85414">
        <ele>194.1</ele>
        <time>2013-05-22T07:31:27Z</time>
      </trkpt>
      <trkpt lat="49.15357" lon="6.85419">
        <ele>193.6</ele>
        <time>2013-05-22T07:31:36Z</time>
      </trkpt>
      <trkpt lat="49.15363" lon="6.85421">
        <ele>193.6</ele>
        <time>2013-05-22T07:31:41Z</time>
      </trkpt>
      <trkpt lat="49.1537" lon="6.85424">
        <ele>194</ele>
        <time>2013-05-22T07:31:46Z</time>
      </trkpt>
      <trkpt lat="49.15376" lon="6.85426">
        <ele>193.9</ele>
        <time>2013-05-22T07:31:51Z</time>
      </trkpt>
      <trkpt lat="49.15381" lon="6.85429">
        <ele>193.5</ele>
        <time>2013-05-22T07:31:56Z</time>
      </trkpt>
      <trkpt lat="49.15387" lon="6.85432">
        <ele>193.4</ele>
        <time>2013-05-22T07:32:01Z</time>
      </trkpt>
      <trkpt lat="49.15392" lon="6.85435">
        <ele>193.6</ele>
        <time>2013-05-22T07:32:06Z</time>
      </trkpt>
      <trkpt lat="49.15398" lon="6.85437">
        <ele>193.3</ele>
        <time>2013-05-22T07:32:11Z</time>
      </trkpt>
      <trkpt lat="49.15404" lon="6.8544">
        <ele>193.5</ele>
        <time>2013-05-22T07:32:16Z</time>
      </trkpt>
      <trkpt lat="49.1541" lon="6.85443">
        <ele>192.9</ele>
        <time>2013-05-22T07:32:21Z</time>
      </trkpt>
      <trkpt lat="49.15416" lon="6.85446">
        <ele>193.1</ele>
        <time>2013-05-22T07:32:26Z</time>
      </trkpt>
      <trkpt lat="49.15422" lon="6.85448">
        <ele>193.2</ele>
        <time>2013-05-22T07:32:31Z</time>
      </trkpt>
      <trkpt lat="49.15423" lon="6.85449">
        <ele>193.2</ele>
        <time>2013-05-22T07:32:32Z</time>
      </trkpt>
      <trkpt lat="49.15435" lon="6.85451">
        <ele>193.1</ele>
        <time>2013-05-22T07:32:41Z</time>
      </trkpt>
      <trkpt lat="49.1544" lon="6.8545">
        <ele>192.7</ele>
        <time>2013-05-22T07:32:46Z</time>
      </trkpt>
      <trkpt lat="49.1544" lon="6.8545">
        <ele>192.7</ele>
        <time>2013-05-22T07:32:46Z</time>
      </trkpt>
      <trkpt lat="49.15444" lon="6.85444">
        <ele>192.4</ele>
        <time>2013-05-22T07:32:51Z</time>
      </trkpt>
      <trkpt lat="49.15447" lon="6.85436">
        <ele>192.6</ele>
        <time>2013-05-22T07:32:56Z</time>
      </trkpt>
      <trkpt lat="49.15449" lon="6.85427">
        <ele>192.8</ele>
        <time>2013-05-22T07:33:01Z</time>
      </trkpt>
      <trkpt lat="49.15451" lon="6.85418">
        <ele>192.4</ele>
        <time>2013-05-22T07:33:06Z</time>
      </trkpt>
      <trkpt lat="49.15454" lon="6.85409">
        <ele>192.4</ele>
        <time>2013-05-22T07:33:11Z</time>
      </trkpt>
      <trkpt lat="49.15456" lon="6.854">
        <ele>192.4</ele>
        <time>2013-05-22T07:33:16Z</time>
      </trkpt>
      <trkpt lat="49.15459" lon="6.8539">
        <ele>191.7</ele>
        <time>2013-05-22T07:33:21Z</time>
      </trkpt>
      <trkpt lat="49.15462" lon="6.85382">
        <ele>192.8</ele>
        <time>2013-05-22T07:33:26Z</time>
      </trkpt>
      <trkpt lat="49.15464" lon="6.85373">
        <ele>193</ele>
        <time>2013-05-22T07:33:31Z</time>
      </trkpt>
      <trkpt lat="49.15465" lon="6.85363">
        <ele>192.3</ele>
        <time>2013-05-22T07:33:36Z</time>
      </trkpt>
      <trkpt lat="49.15466" lon="6.85361">
        <ele>192.1</ele>
        <time>2013-05-22T07:33:37Z</time>
      </trkpt>
      <trkpt lat="49.15468" lon="6.85343">
        <ele>191.3</ele>
        <time>2013-05-22T07:33:46Z</time>
      </trkpt>
      <trkpt lat="49.15468" lon="6.85334">
        <ele>191.2</ele>
        <time>2013-05-22T07:33:51Z</time>
      </trkpt>
      <trkpt lat="49.1547" lon="6.85323">
        <ele>191.2</ele>
        <time>2013-05-22T07:33:56Z</time>
      </trkpt>
      <trkpt lat="49.15471" lon="6.85314">
        <ele>192</ele>
        <time>2013-05-22T07:34:01Z</time>
      </trkpt>
      <trkpt lat="49.15473" lon="6.85307">
        <ele>191.9</ele>
        <time>2013-05-22T07:34:06Z</time>
      </trkpt>
      <trkpt lat="49.15476" lon="6.85302">
        <ele>192</ele>
        <time>2013-05-22T07:34:11Z</time>
      </trkpt>
      <trkpt lat="49.15482" lon="6.85299">
        <ele>191.6</ele>
        <time>2013-05-22T07:34:16Z</time>
      </trkpt>
      <trkpt lat="49.15662" lon="6.8528">
        <ele>194.7</ele>
        <time>2013-05-22T07:37:01Z</time>
      </trkpt>
      <trkpt lat="49.15659" lon="6.85272">
        <ele>195.5</ele>
        <time>2013-05-22T07:37:06Z</time>
      </trkpt>
      <trkpt lat="49.15656" lon="6.85265">
        <ele>195.1</ele>
        <time>2013-05-22T07:37:11Z</time>
      </trkpt>
      <trkpt lat="49.15653" lon="6.85257">
        <ele>194.7</ele>
        <time>2013-05-22T07:37:16Z</time>
      </trkpt>
      <trkpt lat="49.1565" lon="6.85251">
        <ele>195.3</ele>
        <time>2013-05-22T07:37:21Z</time>
      </trkpt>
      <trkpt lat="49.15647" lon="6.85244">
        <ele>194.5</ele>
        <time>2013-05-22T07:37:26Z</time>
      </trkpt>
      <trkpt lat="49.15643" lon="6.85236">
        <ele>194.8</ele>
        <time>2013-05-22T07:37:31Z</time>
      </trkpt>
      <trkpt lat="49.1564" lon="6.85228">
        <ele>195</ele>
        <time>2013-05-22T07:37:36Z</time>
      </trkpt>
      <trkpt lat="49.15636" lon="6.85221">
        <ele>194.9</ele>
        <time>2013-05-22T07:37:41Z</time>
      </trkpt>
      <trkpt lat="49.15632" lon="6.85213">
        <ele>195.3</ele>
        <time>2013-05-22T07:37:46Z</time>
      </trkpt>
      <trkpt lat="49.15629" lon="6.85205">
        <ele>195.7</ele>
        <time>2013-05-22T07:37:51Z</time>
      </trkpt>
      <trkpt lat="49.15625" lon="6.85197">
        <ele>195.2</ele>
        <time>2013-05-22T07:37:56Z</time>
      </trkpt>
      <trkpt lat="49.15624" lon="6.85195">
        <ele>195.2</ele>
        <time>2013-05-22T07:37:57Z</time>
      </trkpt>
      <trkpt lat="49.15616" lon="6.85181">
        <ele>194.9</ele>
        <time>2013-05-22T07:38:06Z</time>
      </trkpt>
      <trkpt lat="49.15612" lon="6.85173">
        <ele>196.1</ele>
        <time>2013-05-22T07:38:11Z</time>
      </trkpt>
      <trkpt lat="49.15607" lon="6.85167">
        <ele>196.6</ele>
        <time>2013-05-22T07:38:16Z</time>
      </trkpt>
      <trkpt lat="49.15602" lon="6.85163">
        <ele>196.5</ele>
        <time>2013-05-22T07:38:21Z</time>
      </trkpt>
      <trkpt lat="49.15596" lon="6.85161">
        <ele>197.2</ele>
        <time>2013-05-22T07:38:26Z</time>
      </trkpt>
      <trkpt lat="49.15591" lon="6.8516">
        <ele>197</ele>
        <time>2013-05-22T07:38:31Z</time>
      </trkpt>
      <trkpt lat="49.15585" lon="6.85161">
        <ele>196.9</ele>
        <time>2013-05-22T07:38:36Z</time>
      </trkpt>
      <trkpt lat="49.1558" lon="6.85161">
        <ele>197.8</ele>
        <time>2013-05-22T07:38:41Z</time>
      </trkpt>
      <trkpt lat="49.15573" lon="6.85163">
        <ele>197.9</ele>
        <time>2013-05-22T07:38:46Z</time>
      </trkpt>
      <trkpt lat="49.15566" lon="6.85164">
        <ele>199.2</ele>
        <time>2013-05-22T07:38:51Z</time>
      </trkpt>
      <trkpt lat="49.15559" lon="6.85165">
        <ele>199.3</ele>
        <time>2013-05-22T07:38:56Z</time>
      </trkpt>
      <trkpt lat="49.15553" lon="6.85167">
        <ele>199.7</ele>
        <time>2013-05-22T07:39:01Z</time>
      </trkpt>
      <trkpt lat="49.15552" lon="6.85167">
        <ele>200.3</ele>
        <time>2013-05-22T07:39:02Z</time>
      </trkpt>
      <trkpt lat="49.15541" lon="6.85169">
        <ele>201.3</ele>
        <time>2013-05-22T07:39:11Z</time>
      </trkpt>
      <trkpt lat="49.15536" lon="6.85168">
        <ele>201.4</ele>
        <time>2013-05-22T07:39:16Z</time>
      </trkpt>
      <trkpt lat="49.15531" lon="6.85168">
        <ele>202</ele>
        <time>2013-05-22T07:39:21Z</time>
      </trkpt>
      <trkpt lat="49.15526" lon="6.85166">
        <ele>202.4</ele>
        <time>2013-05-22T07:39:26Z</time>
      </trkpt>
      <trkpt lat="49.15521" lon="6.85161">
        <ele>203.1</ele>
        <time>2013-05-22T07:39:31Z</time>
      </trkpt>
      <trkpt lat="49.15518" lon="6.85153">
        <ele>202.7</ele>
        <time>2013-05-22T07:39:36Z</time>
      </trkpt>
      <trkpt lat="49.15518" lon="6.85153">
        <ele>202.7</ele>
        <time>2013-05-22T07:39:36Z</time>
      </trkpt>
      <trkpt lat="49.15518" lon="6.85144">
        <ele>204</ele>
        <time>2013-05-22T07:39:41Z</time>
      </trkpt>
      <trkpt lat="49.1552" lon="6.85135">
        <ele>204.9</ele>
        <time>2013-05-22T07:39:46Z</time>
      </trkpt>
      <trkpt lat="49.15523" lon="6.85128">
        <ele>205.8</ele>
        <time>2013-05-22T07:39:51Z</time>
      </trkpt>
      <trkpt lat="49.15526" lon="6.85121">
        <ele>205.3</ele>
        <time>2013-05-22T07:39:56Z</time>
      </trkpt>
      <trkpt lat="49.1553" lon="6.85115">
        <ele>205.6</ele>
        <time>2013-05-22T07:40:01Z</time>
      </trkpt>
      <trkpt lat="49.15535" lon="6.85109">
        <ele>205.9</ele>
        <time>2013-05-22T07:40:06Z</time>
      </trkpt>
      <trkpt lat="49.15536" lon="6.85108">
        <ele>205.9</ele>
        <time>2013-05-22T07:40:07Z</time>
      </trkpt>
      <trkpt lat="49.15544" lon="6.85098">
        <ele>205.3</ele>
        <time>2013-05-22T07:40:16Z</time>
      </trkpt>
      <trkpt lat="49.15549" lon="6.85092">
        <ele>206.6</ele>
        <time>2013-05-22T07:40:21Z</time>
      </trkpt>
      <trkpt lat="49.15553" lon="6.85086">
        <ele>205.9</ele>
        <time>2013-05-22T07:40:26Z</time>
      </trkpt>
      <trkpt lat="49.15559" lon="6.85079">
        <ele>205.7</ele>
        <time>2013-05-22T07:40:31Z</time>
      </trkpt>
      <trkpt lat="49.15564" lon="6.85073">
        <ele>204.2</ele>
        <time>2013-05-22T07:40:36Z</time>
      </trkpt>
      <trkpt lat="49.1557" lon="6.85068">
        <ele>204.8</ele>
        <time>2013-05-22T07:40:41Z</time>
      </trkpt>
      <trkpt lat="49.15575" lon="6.85062">
        <ele>203.7</ele>
        <time>2013-05-22T07:40:46Z</time>
      </trkpt>
      <trkpt lat="49.1558" lon="6.85055">
        <ele>204.6</ele>
        <time>2013-05-22T07:40:51Z</time>
      </trkpt>
      <trkpt lat="49.15585" lon="6.8505">
        <ele>203.9</ele>
        <time>2013-05-22T07:40:56Z</time>
      </trkpt>
      <trkpt lat="49.1559" lon="6.85044">
        <ele>203.6</ele>
        <time>2013-05-22T07:41:01Z</time>
      </trkpt>
      <trkpt lat="49.15594" lon="6.85038">
        <ele>203.7</ele>
        <time>2013-05-22T07:41:06Z</time>
      </trkpt>
      <trkpt lat="49.15599" lon="6.85033">
        <ele>204.2</ele>
        <time>2013-05-22T07:41:11Z</time>
      </trkpt>
      <trkpt lat="49.156" lon="6.85032">
        <ele>204.2</ele>
        <time>2013-05-22T07:41:12Z</time>
      </trkpt>
      <trkpt lat="49.15606" lon="6.85023">
        <ele>202.9</ele>
        <time>2013-05-22T07:41:21Z</time>
      </trkpt>
      <trkpt lat="49.15609" lon="6.85016">
        <ele>203.2</ele>
        <time>2013-05-22T07:41:26Z</time>
      </trkpt>
      <trkpt lat="49.15612" lon="6.8501">
        <ele>202.8</ele>
        <time>2013-05-22T07:41:31Z</time>
      </trkpt>
      <trkpt lat="49.15615" lon="6.85002">
        <ele>202.3</ele>
        <time>2013-05-22T07:41:36Z</time>
      </trkpt>
      <trkpt lat="49.15618" lon="6.84994">
        <ele>201.7</ele>
        <time>2013-05-22T07:41:41Z</time>
      </trkpt>
      <trkpt lat="49.15621" lon="6.84986">
        <ele>201.7</ele>
        <time>2013-05-22T07:41:46Z</time>
      </trkpt>
      <trkpt lat="49.15626" lon="6.84981">
        <ele>201.8</ele>
        <time>2013-05-22T07:41:51Z</time>
      </trkpt>
      <trkpt lat="49.15632" lon="6.84979">
        <ele>201.6</ele>
        <time>2013-05-22T07:41:56Z</time>
      </trkpt>
      <trkpt lat="49.15638" lon="6.84978">
        <ele>201.4</ele>
        <time>2013-05-22T07:42:01Z</time>
      </trkpt>
      <trkpt lat="49.15802" lon="6.84977">
        <ele>202.6</ele>
        <time>2013-05-22T07:44:26Z</time>
      </trkpt>
      <trkpt lat="49.15803" lon="6.84977">
        <ele>202.5</ele>
        <time>2013-05-22T07:44:27Z</time>
      </trkpt>
      <trkpt lat="49.15811" lon="6.84977">
        <ele>202.2</ele>
        <time>2013-05-22T07:44:36Z</time>
      </trkpt>
      <trkpt lat="49.15816" lon="6.84978">
        <ele>202.1</ele>
        <time>2013-05-22T07:44:41Z</time>
      </trkpt>
      <trkpt lat="49.15822" lon="6.84981">
        <ele>201.3</ele>
        <time>2013-05-22T07:44:46Z</time>
      </trkpt>
      <trkpt lat="49.15827" lon="6.84987">
        <ele>201.9</ele>
        <time>2013-05-22T07:44:51Z</time>
      </trkpt>
      <trkpt lat="49.15832" lon="6.84993">
        <ele>201.7</ele>
        <time>2013-05-22T07:44:56Z</time>
      </trkpt>
      <trkpt lat="49.15837" lon="6.85">
        <ele>201.5</ele>
        <time>2013-05-22T07:45:01Z</time>
      </trkpt>
      <trkpt lat="49.15837" lon="6.85">
        <ele>201.6</ele>
        <time>2013-05-22T07:45:06Z</time>
      </trkpt>
      <trkpt lat="49.1584" lon="6.85003">
        <ele>201.4</ele>
        <time>2013-05-22T07:45:11Z</time>
      </trkpt>
      <trkpt lat="49.15844" lon="6.85011">
        <ele>200.8</ele>
        <time>2013-05-22T07:45:16Z</time>
      </trkpt>
      <trkpt lat="49.15849" lon="6.85018">
        <ele>200.6</ele>
        <time>2013-05-22T07:45:21Z</time>
      </trkpt>
      <trkpt lat="49.15853" lon="6.85026">
        <ele>199.8</ele>
        <time>2013-05-22T07:45:26Z</time>
      </trkpt>
      <trkpt lat="49.15858" lon="6.85033">
        <ele>199.9</ele>
        <time>2013-05-22T07:45:31Z</time>
      </trkpt>
      <trkpt lat="49.15859" lon="6.85035">
        <ele>200</ele>
        <time>2013-05-22T07:45:32Z</time>
      </trkpt>
      <trkpt lat="49.15872" lon="6.8503">
        <ele>199.7</ele>
        <time>2013-05-22T07:45:41Z</time>
      </trkpt>
      <trkpt lat="49.15872" lon="6.8503">
        <ele>199.7</ele>
        <time>2013-05-22T07:45:41Z</time>
      </trkpt>
      <trkpt lat="49.15878" lon="6.85024">
        <ele>199.3</ele>
        <time>2013-05-22T07:45:46Z</time>
      </trkpt>
      <trkpt lat="49.15883" lon="6.85021">
        <ele>199.3</ele>
        <time>2013-05-22T07:45:51Z</time>
      </trkpt>
      <trkpt lat="49.15889" lon="6.85018">
        <ele>199</ele>
        <time>2013-05-22T07:45:56Z</time>
      </trkpt>
      <trkpt lat="49.15896" lon="6.85016">
        <ele>198.5</ele>
        <time>2013-05-22T07:46:01Z</time>
      </trkpt>
      <trkpt lat="49.15902" lon="6.85011">
        <ele>197.2</ele>
        <time>2013-05-22T07:46:06Z</time>
      </trkpt>
      <trkpt lat="49.15908" lon="6.85008">
        <ele>197.6</ele>
        <time>2013-05-22T07:46:11Z</time>
      </trkpt>
      <trkpt lat="49.15914" lon="6.85005">
        <ele>197.7</ele>
        <time>2013-05-22T07:46:16Z</time>
      </trkpt>
      <trkpt lat="49.15921" lon="6.85004">
        <ele>197.7</ele>
        <time>2013-05-22T07:46:21Z</time>
      </trkpt>
      <trkpt lat="49.15927" lon="6.85003">
        <ele>198.6</ele>
        <time>2013-05-22T07:46:26Z</time>
      </trkpt>
      <trkpt lat="49.15933" lon="6.85002">
        <ele>197.8</ele>
        <time>2013-05-22T07:46:31Z</time>
      </trkpt>
      <trkpt lat="49.15939" lon="6.85001">
        <ele>197.9</ele>
        <time>2013-05-22T07:46:36Z</time>
      </trkpt>
      <trkpt lat="49.1594" lon="6.85">
        <ele>197.8</ele>
        <time>2013-05-22T07:46:37Z</time>
      </trkpt>
      <trkpt lat="49.15951" lon="6.84997">
        <ele>197.2</ele>
        <time>2013-05-22T07:46:46Z</time>
      </trkpt>
      <trkpt lat="49.15957" lon="6.84996">
        <ele>197.7</ele>
        <time>2013-05-22T07:46:51Z</time>
      </trkpt>
      <trkpt lat="49.15963" lon="6.84996">
        <ele>197.8</ele>
        <time>2013-05-22T07:46:56Z</time>
      </trkpt>
      <trkpt lat="49.1597" lon="6.84995">
        <ele>197.3</ele>
        <time>2013-05-22T07:47:01Z</time>
      </trkpt>
      <trkpt lat="49.15977" lon="6.84993">
        <ele>197</ele>
        <time>2013-05-22T07:47:06Z</time>
      </trkpt>
      <trkpt lat="49.15983" lon="6.84992">
        <ele>197.2</ele>
        <time>2013-05-22T07:47:11Z</time>
      </trkpt>
      <trkpt lat="49.1599" lon="6.8499">
        <ele>196.4</ele>
        <time>2013-05-22T07:47:16Z</time>
      </trkpt>
      <trkpt lat="49.15996" lon="6.84989">
        <ele>196.5</ele>
        <time>2013-05-22T07:47:21Z</time>
      </trkpt>
      <trkpt lat="49.16001" lon="6.84987">
        <ele>197</ele>
        <time>2013-05-22T07:47:26Z</time>
      </trkpt>
      <trkpt lat="49.16007" lon="6.84986">
        <ele>196.8</ele>
        <time>2013-05-22T07:47:31Z</time>
      </trkpt>
      <trkpt lat="49.16012" lon="6.84984">
        <ele>197</ele>
        <time>2013-05-22T07:47:36Z</time>
      </trkpt>
      <trkpt lat="49.16019" lon="6.84982">
        <ele>197.3</ele>
        <time>2013-05-22T07:47:41Z</time>
      </trkpt>
      <trkpt lat="49.16021" lon="6.84982">
        <ele>197.3</ele>
        <time>2013-05-22T07:47:42Z</time>
      </trkpt>
      <trkpt lat="49.16033" lon="6.84982">
        <ele>196.3</ele>
        <time>2013-05-22T07:47:51Z</time>
      </trkpt>
      <trkpt lat="49.16033" lon="6.84982">
        <ele>196.3</ele>
        <time>2013-05-22T07:47:51Z</time>
      </trkpt>
      <trkpt lat="49.16036" lon="6.8499">
        <ele>196.4</ele>
        <time>2013-05-22T07:47:56Z</time>
      </trkpt>
      <trkpt lat="49.16038" lon="6.84999">
        <ele>196.6</ele>
        <time>2013-05-22T07:48:01Z</time>
      </trkpt>
      <trkpt lat="49.16039" lon="6.85008">
        <ele>196</ele>
        <time>2013-05-22T07:48:06Z</time>
      </trkpt>
      <trkpt lat="49.1604" lon="6.85018">
        <ele>196.9</ele>
        <time>2013-05-22T07:48:11Z</time>
      </trkpt>
      <trkpt lat="49.16042" lon="6.85027">
        <ele>197.1</ele>
        <time>2013-05-22T07:48:16Z</time>
      </trkpt>
      <trkpt lat="49.16045" lon="6.85036">
        <ele>197.4</ele>
        <time>2013-05-22T07:48:21Z</time>
      </trkpt>
      <trkpt lat="49.16048" lon="6.85045">
        <ele>196.7</ele>
        <time>2013-05-22T07:48:26Z</time>
      </trkpt>
      <trkpt lat="49.16051" lon="6.85053">
        <ele>196.7</ele>
        <time>2013-05-22T07:48:31Z</time>
      </trkpt>
      <trkpt lat="49.16053" lon="6.85062">
        <ele>196.9</ele>
        <time>2013-05-22T07:48:36Z</time>
      </trkpt>
      <trkpt lat="49.16055" lon="6.85072">
        <ele>198.1</ele>
        <time>2013-05-22T07:48:41Z</time>
      </trkpt>
      <trkpt lat="49.16057" lon="6.85081">
        <ele>198</ele>
        <time>2013-05-22T07:48:46Z</time>
      </trkpt>
      <trkpt lat="49.16057" lon="6.85083">
        <ele>198.1</ele>
        <time>2013-05-22T07:48:47Z</time>
      </trkpt>
      <trkpt lat="49.1606" lon="6.851">
        <ele>197.6</ele>
        <time>2013-05-22T07:48:56Z</time>
      </trkpt>
      <trkpt lat="49.16062" lon="6.85109">
        <ele>197.2</ele>
        <time>2013-05-22T07:49:01Z</time>
      </trkpt>
      <trkpt lat="49.16064" lon="6.85118">
        <ele>197.3</ele>
        <time>2013-05-22T07:49:06Z</time>
      </trkpt>
      <trkpt lat="49.16067" lon="6.85127">
        <ele>198.1</ele>
        <time>2013-05-22T07:49:11Z</time>
      </trkpt>
      <trkpt lat="49.16069" lon="6.85136">
        <ele>197.9</ele>
        <time>2013-05-22T07:49:16Z</time>
      </trkpt>
      <trkpt lat="49.16072" lon="6.85145">
        <ele>197.7</ele>
        <time>2013-05-22T07:49:21Z</time>
      </trkpt>
      <trkpt lat="49.16074" lon="6.85154">
        <ele>198.1</ele>
        <time>2013-05-22T07:49:26Z</time>
      </trkpt>
      <trkpt lat="49.16076" lon="6.85163">
        <ele>198.1</ele>
        <time>2013-05-22T07:49:31Z</time>
      </trkpt>
      <trkpt lat="49.16078" lon="6.85171">
        <ele>198</ele>
        <time>2013-05-22T07:49:36Z</time>
      </trkpt>
      <trkpt lat="49.1608" lon="6.85181">
        <ele>197.6</ele>
        <time>2013-05-22T07:49:41Z</time>
      </trkpt>
      <trkpt lat="49.16081" lon="6.8519">
        <ele>197.9</ele>
        <time>2013-05-22T07:49:46Z</time>
      </trkpt>
      <trkpt lat="49.16083" lon="6.85199">
        <ele>198.2</ele>
        <time>2013-05-22T07:49:51Z</time>
      </trkpt>
      <trkpt lat="49.16083" lon="6.85201">
        <ele>198.2</ele>
        <time>2013-05-22T07:49:52Z</time>
      </trkpt>
      <trkpt lat="49.16087" lon="6.85216">
        <ele>198.4</ele>
        <time>2013-05-22T07:50:01Z</time>
      </trkpt>
      <trkpt lat="49.16089" lon="6.85224">
        <ele>198.9</ele>
        <time>2013-05-22T07:50:06Z</time>
      </trkpt>
      <trkpt lat="49.16091" lon="6.85232">
        <ele>198.1</ele>
        <time>2013-05-22T07:50:11Z</time>
      </trkpt>
      <trkpt lat="49.16093" lon="6.8524">
        <ele>198.2</ele>
        <time>2013-05-22T07:50:16Z</time>
      </trkpt>
      <trkpt lat="49.16095" lon="6.85249">
        <ele>197.9</ele>
        <time>2013-05-22T07:50:21Z</time>
      </trkpt>
      <trkpt lat="49.16097" lon="6.85257">
        <ele>197.7</ele>
        <time>2013-05-22T07:50:26Z</time>
      </trkpt>
      <trkpt lat="49.161" lon="6.85264">
        <ele>197.7</ele>
        <time>2013-05-22T07:50:31Z</time>
      </trkpt>
      <trkpt lat="49.16104" lon="6.85268">
        <ele>196.8</ele>
        <time>2013-05-22T07:50:36Z</time>
      </trkpt>
      <trkpt lat="49.16104" lon="6.85268">
        <ele>196.8</ele>
        <time>2013-05-22T07:50:36Z</time>
      </trkpt>
      <trkpt lat="49.16108" lon="6.85267">
        <ele>197.4</ele>
        <time>2013-05-22T07:50:41Z</time>
      </trkpt>
      <trkpt lat="49.16113" lon="6.85266">
        <ele>196.3</ele>
        <time>2013-05-22T07:50:46Z</time>
      </trkpt>
      <trkpt lat="49.16117" lon="6.85263">
        <ele>195.7</ele>
        <time>2013-05-22T07:50:51Z</time>
      </trkpt>
      <trkpt lat="49.16123" lon="6.85259">
        <ele>195.5</ele>
        <time>2013-05-22T07:50:56Z</time>
      </trkpt>
      <trkpt lat="49.16125" lon="6.85259">
        <ele>195.6</ele>
        <time>2013-05-22T07:50:57Z</time>
      </trkpt>
      <trkpt lat="49.16134" lon="6.85251">
        <ele>194.8</ele>
        <time>2013-05-22T07:51:06Z</time>
      </trkpt>
      <trkpt lat="49.16139" lon="6.85245">
        <ele>195.2</ele>
        <time>2013-05-22T07:51:11Z</time>
      </trkpt>
      <trkpt lat="49.16145" lon="6.8524">
        <ele>195.2</ele>
        <time>2013-05-22T07:51:16Z</time>
      </trkpt>
      <trkpt lat="49.1615" lon="6.85234">
        <ele>193.9</ele>
        <time>2013-05-22T07:51:21Z</time>
      </trkpt>
      <trkpt lat="49.16155" lon="6.85228">
        <ele>194.1</ele>
        <time>2013-05-22T07:51:26Z</time>
      </trkpt>
      <trkpt lat="49.16159" lon="6.85222">
        <ele>193.5</ele>
        <time>2013-05-22T07:51:31Z</time>
      </trkpt>
      <trkpt lat="49.16164" lon="6.85215">
        <ele>193</ele>
        <time>2013-05-22T07:51:36Z</time>
      </trkpt>
      <trkpt lat="49.16169" lon="6.85208">
        <ele>192.8</ele>
        <time>2013-05-22T07:51:41Z</time>
      </trkpt>
      <trkpt lat="49.16174" lon="6.85202">
        <ele>193.3</ele>
        <time>2013-05-22T07:51:46Z</time>
      </trkpt>
      <trkpt lat="49.16179" lon="6.85195">
        <ele>192.9</ele>
        <time>2013-05-22T07:51:51Z</time>
      </trkpt>
      <trkpt lat="49.16183" lon="6.85189">
        <ele>192</ele>
        <time>2013-05-22T07:51:56Z</time>
      </trkpt>
      <trkpt lat="49.16187" lon="6.85182">
        <ele>192.3</ele>
        <time>2013-05-22T07:52:01Z</time>
      </trkpt>
      <trkpt lat="49.16188" lon="6.85181">
        <ele>192.3</ele>
        <time>2013-05-22T07:52:02Z</time>
      </trkpt>
      <trkpt lat="49.16197" lon="6.85169">
        <ele>192.4</ele>
        <time>2013-05-22T07:52:11Z</time>
      </trkpt>
      <trkpt lat="49.162" lon="6.85161">
        <ele>191.6</ele>
        <time>2013-05-22T07:52:16Z</time>
      </trkpt>
      <trkpt lat="49.16204" lon="6.85154">
        <ele>192</ele>
        <time>2013-05-22T07:52:21Z</time>
      </trkpt>
      <trkpt lat="49.16207" lon="6.85146">
        <ele>191.7</ele>
        <time>2013-05-22T07:52:26Z</time>
      </trkpt>
      <trkpt lat="49.16211" lon="6.85139">
        <ele>191.2</ele>
        <time>2013-05-22T07:52:31Z</time>
      </trkpt>
      <trkpt lat="49.16215" lon="6.85132">
        <ele>190.7</ele>
        <time>2013-05-22T07:52:36Z</time>
      </trkpt>
      <trkpt lat="49.1622" lon="6.85126">
        <ele>191</ele>
        <time>2013-05-22T07:52:41Z</time>
      </trkpt>
      <trkpt lat="49.16223" lon="6.85119">
        <ele>191.7</ele>
        <time>2013-05-22T07:52:46Z</time>
      </trkpt>
      <trkpt lat="49.16227" lon="6.85111">
        <ele>191.7</ele>
        <time>2013-05-22T07:52:51Z</time>
      </trkpt>
      <trkpt lat="49.16232" lon="6.85104">
        <ele>192.2</ele>
        <time>2013-05-22T07:52:56Z</time>
      </trkpt>
      <trkpt lat="49.16236" lon="6.85096">
        <ele>190.8</ele>
        <time>2013-05-22T07:53:01Z</time>
      </trkpt>
      <trkpt lat="49.1624" lon="6.85089">
        <ele>190.2</ele>
        <time>2013-05-22T07:53:06Z</time>
      </trkpt>
      <trkpt lat="49.16241" lon="6.85088">
        <ele>190.2</ele>
        <time>2013-05-22T07:53:07Z</time>
      </trkpt>
      <trkpt lat="49.16249" lon="6.85077">
        <ele>190.9</ele>
        <time>2013-05-22T07:53:16Z</time>
      </trkpt>
      <trkpt lat="49.16255" lon="6.85073">
        <ele>190.5</ele>
        <time>2013-05-22T07:53:21Z</time>
      </trkpt>
      <trkpt lat="49.1626" lon="6.85071">
        <ele>190.6</ele>
        <time>2013-05-22T07:53:26Z</time>
      </trkpt>
      <trkpt lat="49.16265" lon="6.85069">
        <ele>191.3</ele>
        <time>2013-05-22T07:53:31Z</time>
      </trkpt>
      <trkpt lat="49.16271" lon="6.85067">
        <ele>191.6</ele>
        <time>2013-05-22T07:53:36Z</time>
      </trkpt>
      <trkpt lat="49.16275" lon="6.85062">
        <ele>191.5</ele>
        <time>2013-05-22T07:53:41Z</time>
      </trkpt>
      <trkpt lat="49.16278" lon="6.85056">
        <ele>191.4</ele>
        <time>2013-05-22T07:53:46Z</time>
      </trkpt>
      <trkpt lat="49.16282" lon="6.8505">
        <ele>191.8</ele>
        <time>2013-05-22T07:53:51Z</time>
      </trkpt>
      <trkpt lat="49.16286" lon="6.85045">
        <ele>191.3</ele>
        <time>2013-05-22T07:53:56Z</time>
      </trkpt>
      <trkpt lat="49.16291" lon="6.85041">
        <ele>191.4</ele>
        <time>2013-05-22T07:54:01Z</time>
      </trkpt>
      <trkpt lat="49.16294" lon="6.85037">
        <ele>191.8</ele>
        <time>2013-05-22T07:54:06Z</time>
      </trkpt>
      <trkpt lat="49.16297" lon="6.85033">
        <ele>192.4</ele>
        <time>2013-05-22T07:54:11Z</time>
      </trkpt>
      <trkpt lat="49.16298" lon="6.85033">
        <ele>192.4</ele>
        <time>2013-05-22T07:54:12Z</time>
      </trkpt>
      <trkpt lat="49.16305" lon="6.85023">
        <ele>192</ele>
        <time>2013-05-22T07:54:21Z</time>
      </trkpt>
      <trkpt lat="49.16308" lon="6.8502">
        <ele>191.7</ele>
        <time>2013-05-22T07:54:26Z</time>
      </trkpt>
      <trkpt lat="49.16313" lon="6.85014">
        <ele>192.4</ele>
        <time>2013-05-22T07:54:31Z</time>
      </trkpt>
      <trkpt lat="49.16318" lon="6.85009">
        <ele>192.9</ele>
        <time>2013-05-22T07:54:36Z</time>
      </trkpt>
      <trkpt lat="49.16323" lon="6.85004">
        <ele>193.3</ele>
        <time>2013-05-22T07:54:41Z</time>
      </trkpt>
      <trkpt lat="49.16328" lon="6.85">
        <ele>193.6</ele>
        <time>2013-05-22T07:54:46Z</time>
      </trkpt>
      <trkpt lat="49.16333" lon="6.84995">
        <ele>193</ele>
        <time>2013-05-22T07:54:51Z</time>
      </trkpt>
      <trkpt lat="49.16338" lon="6.8499">
        <ele>193.1</ele>
        <time>2013-05-22T07:54:56Z</time>
      </trkpt>
      <trkpt lat="49.16344" lon="6.84985">
        <ele>192.8</ele>
        <time>2013-05-22T07:55:01Z</time>
      </trkpt>
      <trkpt lat="49.16349" lon="6.84979">
        <ele>192.9</ele>
        <time>2013-05-22T07:55:06Z</time>
      </trkpt>
      <trkpt lat="49.16354" lon="6.84975">
        <ele>192.8</ele>
        <time>2013-05-22T07:55:11Z</time>
      </trkpt>
      <trkpt lat="49.16359" lon="6.8497">
        <ele>193.4</ele>
        <time>2013-05-22T07:55:16Z</time>
      </trkpt>
      <trkpt lat="49.1636" lon="6.84969">
        <ele>193.5</ele>
        <time>2013-05-22T07:55:17Z</time>
      </trkpt>
      <trkpt lat="49.16368" lon="6.8496">
        <ele>193.5</ele>
        <time>2013-05-22T07:55:26Z</time>
      </trkpt>
      <trkpt lat="49.16374" lon="6.84952">
        <ele>193.9</ele>
        <time>2013-05-22T07:55:31Z</time>
      </trkpt>
      <trkpt lat="49.16377" lon="6.84944">
        <ele>194.5</ele>
        <time>2013-05-22T07:55:36Z</time>
      </trkpt>
      <trkpt lat="49.1638" lon="6.84936">
        <ele>194.8</ele>
        <time>2013-05-22T07:55:41Z</time>
      </trkpt>
      <trkpt lat="49.16383" lon="6.84932">
        <ele>194.8</ele>
        <time>2013-05-22T07:55:46Z</time>
      </trkpt>
      <trkpt lat="49.16386" lon="6.84928">
        <ele>194.9</ele>
        <time>2013-05-22T07:55:51Z</time>
      </trkpt>
      <trkpt lat="49.1639" lon="6.84923">
        <ele>195.4</ele>
        <time>2013-05-22T07:55:56Z</time>
      </trkpt>
      <trkpt lat="49.16393" lon="6.84918">
        <ele>196.4</ele>
        <time>2013-05-22T07:56:01Z</time>
      </trkpt>
      <trkpt lat="49.16397" lon="6.8491">
        <ele>196.7</ele>
        <time>2013-05-22T07:56:06Z</time>
      </trkpt>
      <trkpt lat="49.16399" lon="6.84902">
        <ele>196.5</ele>
        <time>2013-05-22T07:56:11Z</time>
      </trkpt>
      <trkpt lat="49.16401" lon="6.84893">
        <ele>198</ele>
        <time>2013-05-22T07:56:16Z</time>
      </trkpt>
      <trkpt lat="49.16404" lon="6.84885">
        <ele>198.5</ele>
        <time>2013-05-22T07:56:21Z</time>
      </trkpt>
      <trkpt lat="49.16404" lon="6.84884">
        <ele>198.7</ele>
        <time>2013-05-22T07:56:22Z</time>
      </trkpt>
      <trkpt lat="49.16408" lon="6.84869">
        <ele>199.1</ele>
        <time>2013-05-22T07:56:31Z</time>
      </trkpt>
      <trkpt lat="49.1641" lon="6.84862">
        <ele>199.4</ele>
        <time>2013-05-22T07:56:36Z</time>
      </trkpt>
      <trkpt lat="49.16412" lon="6.84853">
        <ele>199.1</ele>
        <time>2013-05-22T07:56:41Z</time>
      </trkpt>
      <trkpt lat="49.16414" lon="6.84845">
        <ele>199.1</ele>
        <time>2013-05-22T07:56:46Z</time>
      </trkpt>
      <trkpt lat="49.16415" lon="6.84837">
        <ele>199.7</ele>
        <time>2013-05-22T07:56:51Z</time>
      </trkpt>
      <trkpt lat="49.16418" lon="6.84828">
        <ele>199.7</ele>
        <time>2013-05-22T07:56:56Z</time>
      </trkpt>
      <trkpt lat="49.16422" lon="6.8482">
        <ele>199.5</ele>
        <time>2013-05-22T07:57:01Z</time>
      </trkpt>
      <trkpt lat="49.16425" lon="6.84811">
        <ele>200.1</ele>
        <time>2013-05-22T07:57:06Z</time>
      </trkpt>
      <trkpt lat="49.16427" lon="6.84801">
        <ele>199.9</ele>
        <time>2013-05-22T07:57:11Z</time>
      </trkpt>
      <trkpt lat="49.16432" lon="6.84794">
        <ele>199.8</ele>
        <time>2013-05-22T07:57:16Z</time>
      </trkpt>
      <trkpt lat="49.16436" lon="6.84786">
        <ele>200.5</ele>
        <time>2013-05-22T07:57:21Z</time>
      </trkpt>
      <trkpt lat="49.16441" lon="6.8478">
        <ele>200</ele>
        <time>2013-05-22T07:57:26Z</time>
      </trkpt>
      <trkpt lat="49.16441" lon="6.84779">
        <ele>199.7</ele>
        <time>2013-05-22T07:57:27Z</time>
      </trkpt>
      <trkpt lat="49.16451" lon="6.84771">
        <ele>200.6</ele>
        <time>2013-05-22T07:57:36Z</time>
      </trkpt>
      <trkpt lat="49.16456" lon="6.84768">
        <ele>200</ele>
        <time>2013-05-22T07:57:41Z</time>
      </trkpt>
      <trkpt lat="49.16459" lon="6.84763">
        <ele>200.8</ele>
        <time>2013-05-22T07:57:46Z</time>
      </trkpt>
      <trkpt lat="49.16465" lon="6.84759">
        <ele>201.4</ele>
        <time>2013-05-22T07:57:51Z</time>
      </trkpt>
      <trkpt lat="49.1647" lon="6.84753">
        <ele>201.8</ele>
        <time>2013-05-22T07:57:56Z</time>
      </trkpt>
      <trkpt lat="49.16475" lon="6.84748">
        <ele>202.1</ele>
        <time>2013-05-22T07:58:01Z</time>
      </trkpt>
      <trkpt lat="49.1648" lon="6.84741">
        <ele>202.9</ele>
        <time>2013-05-22T07:58:06Z</time>
      </trkpt>
      <trkpt lat="49.16484" lon="6.84733">
        <ele>202.5</ele>
        <time>2013-05-22T07:58:11Z</time>
      </trkpt>
      <trkpt lat="49.16489" lon="6.84725">
        <ele>203.4</ele>
        <time>2013-05-22T07:58:16Z</time>
      </trkpt>
      <trkpt lat="49.16493" lon="6.84717">
        <ele>203</ele>
        <time>2013-05-22T07:58:21Z</time>
      </trkpt>
      <trkpt lat="49.16496" lon="6.84708">
        <ele>203.2</ele>
        <time>2013-05-22T07:58:26Z</time>
      </trkpt>
      <trkpt lat="49.16499" lon="6.847">
        <ele>203.5</ele>
        <time>2013-05-22T07:58:31Z</time>
      </trkpt>
      <trkpt lat="49.165" lon="6.84699">
        <ele>203.5</ele>
        <time>2013-05-22T07:58:32Z</time>
      </trkpt>
      <trkpt lat="49.16506" lon="6.84683">
        <ele>203.8</ele>
        <time>2013-05-22T07:58:41Z</time>
      </trkpt>
      <trkpt lat="49.16508" lon="6.84673">
        <ele>203.8</ele>
        <time>2013-05-22T07:58:46Z</time>
      </trkpt>
      <trkpt lat="49.1651" lon="6.84663">
        <ele>203.7</ele>
        <time>2013-05-22T07:58:51Z</time>
      </trkpt>
      <trkpt lat="49.16512" lon="6.84656">
        <ele>203.3</ele>
        <time>2013-05-22T07:58:56Z</time>
      </trkpt>
      <trkpt lat="49.16516" lon="6.84648">
        <ele>203.7</ele>
        <time>2013-05-22T07:59:01Z</time>
      </trkpt>
      <trkpt lat="49.1652" lon="6.8464">
        <ele>203.6</ele>
        <time>2013-05-22T07:59:06Z</time>
      </trkpt>
      <trkpt lat="49.16524" lon="6.84633">
        <ele>204.9</ele>
        <time>2013-05-22T07:59:11Z</time>
      </trkpt>
      <trkpt lat="49.16528" lon="6.84625">
        <ele>205.5</ele>
        <time>2013-05-22T07:59:16Z</time>
      </trkpt>
      <trkpt lat="49.16531" lon="6.84617">
        <ele>204.8</ele>
        <time>2013-05-22T07:59:21Z</time>
      </trkpt>
      <trkpt lat="49.16535" lon="6.8461">
        <ele>206</ele>
        <time>2013-05-22T07:59:26Z</time>
      </trkpt>
      <trkpt lat="49.16539" lon="6.84606">
        <ele>207</ele>
        <time>2013-05-22T07:59:31Z</time>
      </trkpt>
      <trkpt lat="49.16543" lon="6.84599">
        <ele>206.6</ele>
        <time>2013-05-22T07:59:36Z</time>
      </trkpt>
      <trkpt lat="49.16544" lon="6.84597">
        <ele>207</ele>
        <time>2013-05-22T07:59:37Z</time>
      </trkpt>
      <trkpt lat="49.16549" lon="6.84584">
        <ele>207.1</ele>
        <time>2013-05-22T07:59:46Z</time>
      </trkpt>
      <trkpt lat="49.16552" lon="6.84578">
        <ele>206.8</ele>
        <time>2013-05-22T07:59:51Z</time>
      </trkpt>
      <trkpt lat="49.16554" lon="6.84568">
        <ele>208.2</ele>
        <time>2013-05-22T07:59:56Z</time>
      </trkpt>
      <trkpt lat="49.16556" lon="6.8456">
        <ele>207.6</ele>
        <time>2013-05-22T08:00:01Z</time>
      </trkpt>
      <trkpt lat="49.16557" lon="6.84552">
        <ele>207.9</ele>
        <time>2013-05-22T08:00:06Z</time>
      </trkpt>
      <trkpt lat="49.16558" lon="6.84545">
        <ele>208.4</ele>
        <time>2013-05-22T08:00:11Z</time>
      </trkpt>
      <trkpt lat="49.16561" lon="6.84536">
        <ele>209.1</ele>
        <time>2013-05-22T08:00:16Z</time>
      </trkpt>
      <trkpt lat="49.16564" lon="6.84528">
        <ele>210.1</ele>
        <time>2013-05-22T08:00:21Z</time>
      </trkpt>
      <trkpt lat="49.16567" lon="6.8452">
        <ele>210.5</ele>
        <time>2013-05-22T08:00:26Z</time>
      </trkpt>
      <trkpt lat="49.1657" lon="6.84514">
        <ele>210.8</ele>
        <time>2013-05-22T08:00:31Z</time>
      </trkpt>
      <trkpt lat="49.16573" lon="6.84508">
        <ele>210.6</ele>
        <time>2013-05-22T08:00:36Z</time>
      </trkpt>
      <trkpt lat="49.16576" lon="6.845">
        <ele>211.6</ele>
        <time>2013-05-22T08:00:41Z</time>
      </trkpt>
      <trkpt lat="49.16576" lon="6.84499">
        <ele>211.5</ele>
        <time>2013-05-22T08:00:42Z</time>
      </trkpt>
      <trkpt lat="49.16575" lon="6.84486">
        <ele>211.9</ele>
        <time>2013-05-22T08:00:51Z</time>
      </trkpt>
      <trkpt lat="49.16559" lon="6.84433">
        <ele>210</ele>
        <time>2013-05-22T08:01:26Z</time>
      </trkpt>
      <trkpt lat="49.16561" lon="6.84428">
        <ele>210.2</ele>
        <time>2013-05-22T08:01:31Z</time>
      </trkpt>
      <trkpt lat="49.16563" lon="6.84422">
        <ele>211.2</ele>
        <time>2013-05-22T08:01:36Z</time>
      </trkpt>
      <trkpt lat="49.16564" lon="6.84414">
        <ele>210.9</ele>
        <time>2013-05-22T08:01:41Z</time>
      </trkpt>
      <trkpt lat="49.16564" lon="6.84406">
        <ele>211.8</ele>
        <time>2013-05-22T08:01:46Z</time>
      </trkpt>
      <trkpt lat="49.16564" lon="6.84404">
        <ele>212</ele>
        <time>2013-05-22T08:01:47Z</time>
      </trkpt>
      <trkpt lat="49.16564" lon="6.84389">
        <ele>211.4</ele>
        <time>2013-05-22T08:01:56Z</time>
      </trkpt>
      <trkpt lat="49.16564" lon="6.8438">
        <ele>212.2</ele>
        <time>2013-05-22T08:02:01Z</time>
      </trkpt>
      <trkpt lat="49.16565" lon="6.84371">
        <ele>212</ele>
        <time>2013-05-22T08:02:06Z</time>
      </trkpt>
      <trkpt lat="49.16566" lon="6.84362">
        <ele>212.2</ele>
        <time>2013-05-22T08:02:11Z</time>
      </trkpt>
      <trkpt lat="49.16566" lon="6.84353">
        <ele>212.7</ele>
        <time>2013-05-22T08:02:16Z</time>
      </trkpt>
      <trkpt lat="49.16566" lon="6.84344">
        <ele>212.1</ele>
        <time>2013-05-22T08:02:21Z</time>
      </trkpt>
      <trkpt lat="49.16567" lon="6.84335">
        <ele>213.3</ele>
        <time>2013-05-22T08:02:26Z</time>
      </trkpt>
      <trkpt lat="49.16567" lon="6.84327">
        <ele>212.7</ele>
        <time>2013-05-22T08:02:31Z</time>
      </trkpt>
      <trkpt lat="49.16568" lon="6.84319">
        <ele>213.1</ele>
        <time>2013-05-22T08:02:36Z</time>
      </trkpt>
      <trkpt lat="49.16569" lon="6.84311">
        <ele>213.2</ele>
        <time>2013-05-22T08:02:41Z</time>
      </trkpt>
      <trkpt lat="49.1657" lon="6.84302">
        <ele>213.2</ele>
        <time>2013-05-22T08:02:46Z</time>
      </trkpt>
      <trkpt lat="49.16572" lon="6.84295">
        <ele>213.4</ele>
        <time>2013-05-22T08:02:51Z</time>
      </trkpt>
      <trkpt lat="49.16572" lon="6.84293">
        <ele>213.5</ele>
        <time>2013-05-22T08:02:52Z</time>
      </trkpt>
      <trkpt lat="49.16576" lon="6.84278">
        <ele>214.2</ele>
        <time>2013-05-22T08:03:01Z</time>
      </trkpt>
      <trkpt lat="49.16577" lon="6.8427">
        <ele>214.4</ele>
        <time>2013-05-22T08:03:06Z</time>
      </trkpt>
      <trkpt lat="49.16579" lon="6.8426">
        <ele>215.2</ele>
        <time>2013-05-22T08:03:11Z</time>
      </trkpt>
      <trkpt lat="49.1658" lon="6.8425">
        <ele>215.6</ele>
        <time>2013-05-22T08:03:16Z</time>
      </trkpt>
      <trkpt lat="49.16581" lon="6.84241">
        <ele>214.8</ele>
        <time>2013-05-22T08:03:21Z</time>
      </trkpt>
      <trkpt lat="49.16582" lon="6.84232">
        <ele>215.6</ele>
        <time>2013-05-22T08:03:26Z</time>
      </trkpt>
      <trkpt lat="49.16584" lon="6.84223">
        <ele>215.1</ele>
        <time>2013-05-22T08:03:31Z</time>
      </trkpt>
      <trkpt lat="49.16586" lon="6.84214">
        <ele>215</ele>
        <time>2013-05-22T08:03:36Z</time>
      </trkpt>
      <trkpt lat="49.16587" lon="6.84205">
        <ele>215.2</ele>
        <time>2013-05-22T08:03:41Z</time>
      </trkpt>
      <trkpt lat="49.16589" lon="6.84197">
        <ele>215.5</ele>
        <time>2013-05-22T08:03:46Z</time>
      </trkpt>
      <trkpt lat="49.16591" lon="6.84188">
        <ele>216.2</ele>
        <time>2013-05-22T08:03:51Z</time>
      </trkpt>
      <trkpt lat="49.16593" lon="6.84181">
        <ele>216.3</ele>
        <time>2013-05-22T08:03:56Z</time>
      </trkpt>
      <trkpt lat="49.16593" lon="6.84179">
        <ele>216.7</ele>
        <time>2013-05-22T08:03:57Z</time>
      </trkpt>
      <trkpt lat="49.16596" lon="6.84163">
        <ele>217.4</ele>
        <time>2013-05-22T08:04:06Z</time>
      </trkpt>
      <trkpt lat="49.16596" lon="6.84159">
        <ele>217.6</ele>
        <time>2013-05-22T08:04:11Z</time>
      </trkpt>
      <trkpt lat="49.16596" lon="6.84159">
        <ele>218.7</ele>
        <time>2013-05-22T08:04:16Z</time>
      </trkpt>
      <trkpt lat="49.16597" lon="6.84154">
        <ele>219.1</ele>
        <time>2013-05-22T08:04:21Z</time>
      </trkpt>
      <trkpt lat="49.16599" lon="6.84146">
        <ele>218.9</ele>
        <time>2013-05-22T08:04:26Z</time>
      </trkpt>
      <trkpt lat="49.16601" lon="6.84139">
        <ele>219.8</ele>
        <time>2013-05-22T08:04:31Z</time>
      </trkpt>
      <trkpt lat="49.16603" lon="6.84132">
        <ele>219.8</ele>
        <time>2013-05-22T08:04:36Z</time>
      </trkpt>
      <trkpt lat="49.16605" lon="6.84125">
        <ele>219.1</ele>
        <time>2013-05-22T08:04:41Z</time>
      </trkpt>
      <trkpt lat="49.16608" lon="6.84117">
        <ele>220.4</ele>
        <time>2013-05-22T08:04:46Z</time>
      </trkpt>
      <trkpt lat="49.16611" lon="6.84111">
        <ele>221</ele>
        <time>2013-05-22T08:04:51Z</time>
      </trkpt>
      <trkpt lat="49.16614" lon="6.84103">
        <ele>221.8</ele>
        <time>2013-05-22T08:04:56Z</time>
      </trkpt>
      <trkpt lat="49.16617" lon="6.84096">
        <ele>221.9</ele>
        <time>2013-05-22T08:05:01Z</time>
      </trkpt>
      <trkpt lat="49.16617" lon="6.84094">
        <ele>221.9</ele>
        <time>2013-05-22T08:05:02Z</time>
      </trkpt>
      <trkpt lat="49.16623" lon="6.84078">
        <ele>222.2</ele>
        <time>2013-05-22T08:05:11Z</time>
      </trkpt>
      <trkpt lat="49.16626" lon="6.84071">
        <ele>222.7</ele>
        <time>2013-05-22T08:05:16Z</time>
      </trkpt>
      <trkpt lat="49.1663" lon="6.84063">
        <ele>223</ele>
        <time>2013-05-22T08:05:21Z</time>
      </trkpt>
      <trkpt lat="49.16633" lon="6.84053">
        <ele>223</ele>
        <time>2013-05-22T08:05:26Z</time>
      </trkpt>
      <trkpt lat="49.16636" lon="6.84043">
        <ele>221.9</ele>
        <time>2013-05-22T08:05:31Z</time>
      </trkpt>
      <trkpt lat="49.16639" lon="6.84035">
        <ele>222.9</ele>
        <time>2013-05-22T08:05:36Z</time>
      </trkpt>
      <trkpt lat="49.16643" lon="6.84028">
        <ele>222.8</ele>
        <time>2013-05-22T08:05:41Z</time>
      </trkpt>
      <trkpt lat="49.16646" lon="6.8402">
        <ele>222.5</ele>
        <time>2013-05-22T08:05:46Z</time>
      </trkpt>
      <trkpt lat="49.1665" lon="6.84012">
        <ele>222.6</ele>
        <time>2013-05-22T08:05:51Z</time>
      </trkpt>
      <trkpt lat="49.16653" lon="6.84004">
        <ele>223.1</ele>
        <time>2013-05-22T08:05:56Z</time>
      </trkpt>
      <trkpt lat="49.16656" lon="6.83996">
        <ele>223.1</ele>
        <time>2013-05-22T08:06:01Z</time>
      </trkpt>
      <trkpt lat="49.16659" lon="6.83988">
        <ele>223.2</ele>
        <time>2013-05-22T08:06:06Z</time>
      </trkpt>
      <trkpt lat="49.1666" lon="6.83986">
        <ele>223</ele>
        <time>2013-05-22T08:06:07Z</time>
      </trkpt>
      <trkpt lat="49.16665" lon="6.83973">
        <ele>223.6</ele>
        <time>2013-05-22T08:06:16Z</time>
      </trkpt>
      <trkpt lat="49.16668" lon="6.83966">
        <ele>224.3</ele>
        <time>2013-05-22T08:06:21Z</time>
      </trkpt>
      <trkpt lat="49.16671" lon="6.83959">
        <ele>225.7</ele>
        <time>2013-05-22T08:06:26Z</time>
      </trkpt>
      <trkpt lat="49.16675" lon="6.83952">
        <ele>225.9</ele>
        <time>2013-05-22T08:06:31Z</time>
      </trkpt>
      <trkpt lat="49.16678" lon="6.83945">
        <ele>226.5</ele>
        <time>2013-05-22T08:06:36Z</time>
      </trkpt>
      <trkpt lat="49.16681" lon="6.83938">
        <ele>226.9</ele>
        <time>2013-05-22T08:06:41Z</time>
      </trkpt>
      <trkpt lat="49.16684" lon="6.83933">
        <ele>227</ele>
        <time>2013-05-22T08:06:46Z</time>
      </trkpt>
      <trkpt lat="49.16688" lon="6.8393">
        <ele>226.6</ele>
        <time>2013-05-22T08:06:51Z</time>
      </trkpt>
      <trkpt lat="49.16708" lon="6.83931">
        <ele>230.1</ele>
        <time>2013-05-22T08:07:11Z</time>
      </trkpt>
      <trkpt lat="49.16709" lon="6.8393">
        <ele>230.6</ele>
        <time>2013-05-22T08:07:12Z</time>
      </trkpt>
      <trkpt lat="49.16716" lon="6.83928">
        <ele>232.5</ele>
        <time>2013-05-22T08:07:21Z</time>
      </trkpt>
      <trkpt lat="49.16722" lon="6.83926">
        <ele>232.2</ele>
        <time>2013-05-22T08:07:26Z</time>
      </trkpt>
      <trkpt lat="49.16728" lon="6.83922">
        <ele>233.2</ele>
        <time>2013-05-22T08:07:31Z</time>
      </trkpt>
      <trkpt lat="49.16734" lon="6.83921">
        <ele>233.9</ele>
        <time>2013-05-22T08:07:36Z</time>
      </trkpt>
      <trkpt lat="49.16736" lon="6.8392">
        <ele>234.3</ele>
        <time>2013-05-22T08:07:41Z</time>
      </trkpt>
      <trkpt lat="49.16741" lon="6.83918">
        <ele>235.3</ele>
        <time>2013-05-22T08:07:46Z</time>
      </trkpt>
      <trkpt lat="49.16747" lon="6.83916">
        <ele>235.8</ele>
        <time>2013-05-22T08:07:51Z</time>
      </trkpt>
      <trkpt lat="49.16753" lon="6.83913">
        <ele>237</ele>
        <time>2013-05-22T08:07:56Z</time>
      </trkpt>
      <trkpt lat="49.16757" lon="6.8391">
        <ele>237.5</ele>
        <time>2013-05-22T08:08:01Z</time>
      </trkpt>
      <trkpt lat="49.16763" lon="6.83907">
        <ele>238.3</ele>
        <time>2013-05-22T08:08:06Z</time>
      </trkpt>
      <trkpt lat="49.16769" lon="6.83903">
        <ele>239.5</ele>
        <time>2013-05-22T08:08:11Z</time>
      </trkpt>
      <trkpt lat="49.16775" lon="6.839">
        <ele>239.8</ele>
        <time>2013-05-22T08:08:16Z</time>
      </trkpt>
      <trkpt lat="49.16776" lon="6.83899">
        <ele>239.8</ele>
        <time>2013-05-22T08:08:17Z</time>
      </trkpt>
      <trkpt lat="49.16786" lon="6.8389">
        <ele>240.2</ele>
        <time>2013-05-22T08:08:26Z</time>
      </trkpt>
      <trkpt lat="49.1679" lon="6.83884">
        <ele>240.6</ele>
        <time>2013-05-22T08:08:31Z</time>
      </trkpt>
      <trkpt lat="49.16795" lon="6.83878">
        <ele>241.4</ele>
        <time>2013-05-22T08:08:36Z</time>
      </trkpt>
      <trkpt lat="49.16799" lon="6.83871">
        <ele>241.1</ele>
        <time>2013-05-22T08:08:41Z</time>
      </trkpt>
      <trkpt lat="49.16803" lon="6.83863">
        <ele>240.7</ele>
        <time>2013-05-22T08:08:46Z</time>
      </trkpt>
      <trkpt lat="49.16806" lon="6.83856">
        <ele>240.4</ele>
        <time>2013-05-22T08:08:51Z</time>
      </trkpt>
      <trkpt lat="49.1681" lon="6.83849">
        <ele>240.9</ele>
        <time>2013-05-22T08:08:56Z</time>
      </trkpt>
      <trkpt lat="49.16813" lon="6.83841">
        <ele>240</ele>
        <time>2013-05-22T08:09:01Z</time>
      </trkpt>
      <trkpt lat="49.16816" lon="6.83832">
        <ele>239.6</ele>
        <time>2013-05-22T08:09:06Z</time>
      </trkpt>
      <trkpt lat="49.16821" lon="6.83757">
        <ele>237.4</ele>
        <time>2013-05-22T08:09:56Z</time>
      </trkpt>
      <trkpt lat="49.16816" lon="6.83752">
        <ele>238.1</ele>
        <time>2013-05-22T08:10:01Z</time>
      </trkpt>
      <trkpt lat="49.16811" lon="6.83747">
        <ele>238.6</ele>
        <time>2013-05-22T08:10:06Z</time>
      </trkpt>
      <trkpt lat="49.16806" lon="6.83741">
        <ele>238.6</ele>
        <time>2013-05-22T08:10:11Z</time>
      </trkpt>
      <trkpt lat="49.16801" lon="6.83736">
        <ele>239.8</ele>
        <time>2013-05-22T08:10:16Z</time>
      </trkpt>
      <trkpt lat="49.16797" lon="6.8373">
        <ele>240.1</ele>
        <time>2013-05-22T08:10:21Z</time>
      </trkpt>
      <trkpt lat="49.16793" lon="6.83723">
        <ele>240.1</ele>
        <time>2013-05-22T08:10:26Z</time>
      </trkpt>
      <trkpt lat="49.16793" lon="6.83721">
        <ele>240</ele>
        <time>2013-05-22T08:10:27Z</time>
      </trkpt>
      <trkpt lat="49.16786" lon="6.83708">
        <ele>239.2</ele>
        <time>2013-05-22T08:10:36Z</time>
      </trkpt>
      <trkpt lat="49.16784" lon="6.837">
        <ele>238.8</ele>
        <time>2013-05-22T08:10:41Z</time>
      </trkpt>
      <trkpt lat="49.16782" lon="6.83696">
        <ele>239.4</ele>
        <time>2013-05-22T08:10:46Z</time>
      </trkpt>
      <trkpt lat="49.1678" lon="6.83689">
        <ele>239.6</ele>
        <time>2013-05-22T08:10:51Z</time>
      </trkpt>
      <trkpt lat="49.16777" lon="6.83682">
        <ele>239.4</ele>
        <time>2013-05-22T08:10:56Z</time>
      </trkpt>
      <trkpt lat="49.16774" lon="6.83674">
        <ele>240.1</ele>
        <time>2013-05-22T08:11:01Z</time>
      </trkpt>
      <trkpt lat="49.1677" lon="6.83668">
        <ele>240.2</ele>
        <time>2013-05-22T08:11:06Z</time>
      </trkpt>
      <trkpt lat="49.16767" lon="6.8366">
        <ele>240</ele>
        <time>2013-05-22T08:11:11Z</time>
      </trkpt>
      <trkpt lat="49.16763" lon="6.83653">
        <ele>239.8</ele>
        <time>2013-05-22T08:11:16Z</time>
      </trkpt>
      <trkpt lat="49.16759" lon="6.83646">
        <ele>240</ele>
        <time>2013-05-22T08:11:21Z</time>
      </trkpt>
      <trkpt lat="49.16757" lon="6.83639">
        <ele>240.9</ele>
        <time>2013-05-22T08:11:26Z</time>
      </trkpt>
      <trkpt lat="49.16754" lon="6.83632">
        <ele>240.9</ele>
        <time>2013-05-22T08:11:31Z</time>
      </trkpt>
      <trkpt lat="49.16753" lon="6.83632">
        <ele>241.1</ele>
        <time>2013-05-22T08:11:32Z</time>
      </trkpt>
      <trkpt lat="49.16749" lon="6.83618">
        <ele>241.1</ele>
        <time>2013-05-22T08:11:41Z</time>
      </trkpt>
      <trkpt lat="49.16745" lon="6.83611">
        <ele>241.1</ele>
        <time>2013-05-22T08:11:46Z</time>
      </trkpt>
      <trkpt lat="49.1674" lon="6.83605">
        <ele>242.1</ele>
        <time>2013-05-22T08:11:51Z</time>
      </trkpt>
      <trkpt lat="49.16737" lon="6.83599">
        <ele>242.3</ele>
        <time>2013-05-22T08:11:56Z</time>
      </trkpt>
      <trkpt lat="49.16733" lon="6.83594">
        <ele>242</ele>
        <time>2013-05-22T08:12:01Z</time>
      </trkpt>
      <trkpt lat="49.16728" lon="6.83589">
        <ele>242.6</ele>
        <time>2013-05-22T08:12:06Z</time>
      </trkpt>
      <trkpt lat="49.16723" lon="6.83584">
        <ele>243</ele>
        <time>2013-05-22T08:12:11Z</time>
      </trkpt>
      <trkpt lat="49.16718" lon="6.83577">
        <ele>242.8</ele>
        <time>2013-05-22T08:12:16Z</time>
      </trkpt>
      <trkpt lat="49.16713" lon="6.83572">
        <ele>243.2</ele>
        <time>2013-05-22T08:12:21Z</time>
      </trkpt>
      <trkpt lat="49.1671" lon="6.83568">
        <ele>243</ele>
        <time>2013-05-22T08:12:26Z</time>
      </trkpt>
      <trkpt lat="49.16706" lon="6.83564">
        <ele>243.8</ele>
        <time>2013-05-22T08:12:31Z</time>
      </trkpt>
      <trkpt lat="49.16701" lon="6.8356">
        <ele>244.1</ele>
        <time>2013-05-22T08:12:36Z</time>
      </trkpt>
      <trkpt lat="49.167" lon="6.83559">
        <ele>244.2</ele>
        <time>2013-05-22T08:12:37Z</time>
      </trkpt>
      <trkpt lat="49.16691" lon="6.83549">
        <ele>244.5</ele>
        <time>2013-05-22T08:12:46Z</time>
      </trkpt>
      <trkpt lat="49.16687" lon="6.83544">
        <ele>245.2</ele>
        <time>2013-05-22T08:12:51Z</time>
      </trkpt>
      <trkpt lat="49.16682" lon="6.83539">
        <ele>245.2</ele>
        <time>2013-05-22T08:12:56Z</time>
      </trkpt>
      <trkpt lat="49.16676" lon="6.83533">
        <ele>245</ele>
        <time>2013-05-22T08:13:01Z</time>
      </trkpt>
      <trkpt lat="49.16669" lon="6.83526">
        <ele>244.7</ele>
        <time>2013-05-22T08:13:06Z</time>
      </trkpt>
      <trkpt lat="49.16663" lon="6.83521">
        <ele>244.9</ele>
        <time>2013-05-22T08:13:11Z</time>
      </trkpt>
      <trkpt lat="49.1666" lon="6.83515">
        <ele>246.1</ele>
        <time>2013-05-22T08:13:16Z</time>
      </trkpt>
      <trkpt lat="49.16654" lon="6.83508">
        <ele>245.9</ele>
        <time>2013-05-22T08:13:21Z</time>
      </trkpt>
      <trkpt lat="49.16649" lon="6.83503">
        <ele>246.2</ele>
        <time>2013-05-22T08:13:26Z</time>
      </trkpt>
      <trkpt lat="49.16644" lon="6.83498">
        <ele>246.6</ele>
        <time>2013-05-22T08:13:31Z</time>
      </trkpt>
      <trkpt lat="49.16639" lon="6.83493">
        <ele>246.9</ele>
        <time>2013-05-22T08:13:36Z</time>
      </trkpt>
      <trkpt lat="49.16634" lon="6.83487">
        <ele>248.1</ele>
        <time>2013-05-22T08:13:41Z</time>
      </trkpt>
      <trkpt lat="49.16633" lon="6.83486">
        <ele>248.3</ele>
        <time>2013-05-22T08:13:42Z</time>
      </trkpt>
      <trkpt lat="49.16627" lon="6.83472">
        <ele>248.1</ele>
        <time>2013-05-22T08:13:51Z</time>
      </trkpt>
      <trkpt lat="49.16623" lon="6.83464">
        <ele>248.9</ele>
        <time>2013-05-22T08:13:56Z</time>
      </trkpt>
      <trkpt lat="49.1662" lon="6.83455">
        <ele>249.3</ele>
        <time>2013-05-22T08:14:01Z</time>
      </trkpt>
      <trkpt lat="49.16617" lon="6.83448">
        <ele>249.4</ele>
        <time>2013-05-22T08:14:06Z</time>
      </trkpt>
      <trkpt lat="49.16614" lon="6.8344">
        <ele>248.8</ele>
        <time>2013-05-22T08:14:11Z</time>
      </trkpt>
      <trkpt lat="49.1661" lon="6.83432">
        <ele>249.5</ele>
        <time>2013-05-22T08:14:16Z</time>
      </trkpt>
      <trkpt lat="49.16606" lon="6.83423">
        <ele>250</ele>
        <time>2013-05-22T08:14:21Z</time>
      </trkpt>
      <trkpt lat="49.16602" lon="6.83415">
        <ele>250.7</ele>
        <time>2013-05-22T08:14:26Z</time>
      </trkpt>
      <trkpt lat="49.16597" lon="6.83408">
        <ele>251.5</ele>
        <time>2013-05-22T08:14:31Z</time>
      </trkpt>
      <trkpt lat="49.16594" lon="6.834">
        <ele>252.5</ele>
        <time>2013-05-22T08:14:36Z</time>
      </trkpt>
      <trkpt lat="49.1659" lon="6.83394">
        <ele>252.5</ele>
        <time>2013-05-22T08:14:41Z</time>
      </trkpt>
      <trkpt lat="49.16585" lon="6.83388">
        <ele>252.8</ele>
        <time>2013-05-22T08:14:46Z</time>
      </trkpt>
      <trkpt lat="49.16585" lon="6.83386">
        <ele>253.1</ele>
        <time>2013-05-22T08:14:47Z</time>
      </trkpt>
      <trkpt lat="49.16579" lon="6.8337">
        <ele>253.7</ele>
        <time>2013-05-22T08:14:56Z</time>
      </trkpt>
      <trkpt lat="49.16576" lon="6.83361">
        <ele>254</ele>
        <time>2013-05-22T08:15:01Z</time>
      </trkpt>
      <trkpt lat="49.16573" lon="6.83352">
        <ele>254.6</ele>
        <time>2013-05-22T08:15:06Z</time>
      </trkpt>
      <trkpt lat="49.16571" lon="6.83343">
        <ele>254.8</ele>
        <time>2013-05-22T08:15:11Z</time>
      </trkpt>
      <trkpt lat="49.16569" lon="6.83333">
        <ele>255.5</ele>
        <time>2013-05-22T08:15:16Z</time>
      </trkpt>
      <trkpt lat="49.16567" lon="6.83324">
        <ele>255.9</ele>
        <time>2013-05-22T08:15:21Z</time>
      </trkpt>
      <trkpt lat="49.16565" lon="6.83314">
        <ele>255.4</ele>
        <time>2013-05-22T08:15:26Z</time>
      </trkpt>
      <trkpt lat="49.16563" lon="6.83304">
        <ele>256.3</ele>
        <time>2013-05-22T08:15:31Z</time>
      </trkpt>
      <trkpt lat="49.1656" lon="6.83295">
        <ele>255.5</ele>
        <time>2013-05-22T08:15:36Z</time>
      </trkpt>
      <trkpt lat="49.16557" lon="6.83286">
        <ele>256.6</ele>
        <time>2013-05-22T08:15:41Z</time>
      </trkpt>
      <trkpt lat="49.16554" lon="6.83277">
        <ele>257.4</ele>
        <time>2013-05-22T08:15:46Z</time>
      </trkpt>
      <trkpt lat="49.16551" lon="6.83268">
        <ele>256.8</ele>
        <time>2013-05-22T08:15:51Z</time>
      </trkpt>
      <trkpt lat="49.1655" lon="6.83266">
        <ele>256.8</ele>
        <time>2013-05-22T08:15:52Z</time>
      </trkpt>
      <trkpt lat="49.16545" lon="6.8325">
        <ele>257.1</ele>
        <time>2013-05-22T08:16:01Z</time>
      </trkpt>
      <trkpt lat="49.16542" lon="6.83242">
        <ele>257.6</ele>
        <time>2013-05-22T08:16:06Z</time>
      </trkpt>
      <trkpt lat="49.16538" lon="6.83235">
        <ele>258.1</ele>
        <time>2013-05-22T08:16:11Z</time>
      </trkpt>
      <trkpt lat="49.16534" lon="6.83228">
        <ele>258</ele>
        <time>2013-05-22T08:16:16Z</time>
      </trkpt>
      <trkpt lat="49.1653" lon="6.83221">
        <ele>258.4</ele>
        <time>2013-05-22T08:16:21Z</time>
      </trkpt>
      <trkpt lat="49.16529" lon="6.83214">
        <ele>259.1</ele>
        <time>2013-05-22T08:16:26Z</time>
      </trkpt>
      <trkpt lat="49.1653" lon="6.83206">
        <ele>259.5</ele>
        <time>2013-05-22T08:16:31Z</time>
      </trkpt>
      <trkpt lat="49.1653" lon="6.83206">
        <ele>259.5</ele>
        <time>2013-05-22T08:16:31Z</time>
      </trkpt>
      <trkpt lat="49.16533" lon="6.83201">
        <ele>260.2</ele>
        <time>2013-05-22T08:16:36Z</time>
      </trkpt>
      <trkpt lat="49.16536" lon="6.83196">
        <ele>260.2</ele>
        <time>2013-05-22T08:16:41Z</time>
      </trkpt>
      <trkpt lat="49.1654" lon="6.83191">
        <ele>261</ele>
        <time>2013-05-22T08:16:46Z</time>
      </trkpt>
      <trkpt lat="49.16544" lon="6.83186">
        <ele>261.1</ele>
        <time>2013-05-22T08:16:51Z</time>
      </trkpt>
      <trkpt lat="49.16548" lon="6.83181">
        <ele>260.2</ele>
        <time>2013-05-22T08:16:56Z</time>
      </trkpt>
      <trkpt lat="49.16549" lon="6.83179">
        <ele>260.1</ele>
        <time>2013-05-22T08:16:57Z</time>
      </trkpt>
      <trkpt lat="49.16557" lon="6.83168">
        <ele>260.6</ele>
        <time>2013-05-22T08:17:06Z</time>
      </trkpt>
      <trkpt lat="49.16561" lon="6.83161">
        <ele>260.3</ele>
        <time>2013-05-22T08:17:11Z</time>
      </trkpt>
      <trkpt lat="49.16564" lon="6.83155">
        <ele>260.7</ele>
        <time>2013-05-22T08:17:16Z</time>
      </trkpt>
      <trkpt lat="49.16568" lon="6.83149">
        <ele>260.9</ele>
        <time>2013-05-22T08:17:21Z</time>
      </trkpt>
      <trkpt lat="49.16572" lon="6.83143">
        <ele>261.2</ele>
        <time>2013-05-22T08:17:26Z</time>
      </trkpt>
      <trkpt lat="49.16577" lon="6.83136">
        <ele>260.7</ele>
        <time>2013-05-22T08:17:31Z</time>
      </trkpt>
      <trkpt lat="49.16581" lon="6.8313">
        <ele>260</ele>
        <time>2013-05-22T08:17:36Z</time>
      </trkpt>
      <trkpt lat="49.16585" lon="6.83124">
        <ele>259.8</ele>
        <time>2013-05-22T08:17:41Z</time>
      </trkpt>
      <trkpt lat="49.1659" lon="6.83118">
        <ele>259.3</ele>
        <time>2013-05-22T08:17:46Z</time>
      </trkpt>
      <trkpt lat="49.16594" lon="6.83112">
        <ele>259.6</ele>
        <time>2013-05-22T08:17:51Z</time>
      </trkpt>
      <trkpt lat="49.16598" lon="6.83107">
        <ele>259.5</ele>
        <time>2013-05-22T08:17:56Z</time>
      </trkpt>
      <trkpt lat="49.16603" lon="6.83101">
        <ele>258.9</ele>
        <time>2013-05-22T08:18:01Z</time>
      </trkpt>
      <trkpt lat="49.16603" lon="6.83101">
        <ele>259.2</ele>
        <time>2013-05-22T08:18:02Z</time>
      </trkpt>
      <trkpt lat="49.1661" lon="6.8309">
        <ele>259.1</ele>
        <time>2013-05-22T08:18:11Z</time>
      </trkpt>
      <trkpt lat="49.16614" lon="6.83084">
        <ele>258.9</ele>
        <time>2013-05-22T08:18:16Z</time>
      </trkpt>
      <trkpt lat="49.16619" lon="6.83081">
        <ele>258.4</ele>
        <time>2013-05-22T08:18:21Z</time>
      </trkpt>
      <trkpt lat="49.16623" lon="6.83074">
        <ele>258.2</ele>
        <time>2013-05-22T08:18:26Z</time>
      </trkpt>
      <trkpt lat="49.16628" lon="6.83071">
        <ele>258</ele>
        <time>2013-05-22T08:18:31Z</time>
      </trkpt>
      <trkpt lat="49.16634" lon="6.83071">
        <ele>257.5</ele>
        <time>2013-05-22T08:18:36Z</time>
      </trkpt>
      <trkpt lat="49.16634" lon="6.83071">
        <ele>257.5</ele>
        <time>2013-05-22T08:18:36Z</time>
      </trkpt>
      <trkpt lat="49.16638" lon="6.83072">
        <ele>257.4</ele>
        <time>2013-05-22T08:18:41Z</time>
      </trkpt>
      <trkpt lat="49.16644" lon="6.83073">
        <ele>256.8</ele>
        <time>2013-05-22T08:18:46Z</time>
      </trkpt>
      <trkpt lat="49.1665" lon="6.83076">
        <ele>255.6</ele>
        <time>2013-05-22T08:18:51Z</time>
      </trkpt>
      <trkpt lat="49.16656" lon="6.83078">
        <ele>255.4</ele>
        <time>2013-05-22T08:18:56Z</time>
      </trkpt>
      <trkpt lat="49.16661" lon="6.83078">
        <ele>256.1</ele>
        <time>2013-05-22T08:19:01Z</time>
      </trkpt>
      <trkpt lat="49.16668" lon="6.83079">
        <ele>255.7</ele>
        <time>2013-05-22T08:19:06Z</time>
      </trkpt>
      <trkpt lat="49.16669" lon="6.83079">
        <ele>255.5</ele>
        <time>2013-05-22T08:19:07Z</time>
      </trkpt>
      <trkpt lat="49.16679" lon="6.83082">
        <ele>254.1</ele>
        <time>2013-05-22T08:19:16Z</time>
      </trkpt>
      <trkpt lat="49.16685" lon="6.83084">
        <ele>254.3</ele>
        <time>2013-05-22T08:19:21Z</time>
      </trkpt>
      <trkpt lat="49.1669" lon="6.83086">
        <ele>254.4</ele>
        <time>2013-05-22T08:19:26Z</time>
      </trkpt>
      <trkpt lat="49.16696" lon="6.83089">
        <ele>253.3</ele>
        <time>2013-05-22T08:19:31Z</time>
      </trkpt>
      <trkpt lat="49.16702" lon="6.83091">
        <ele>252.7</ele>
        <time>2013-05-22T08:19:36Z</time>
      </trkpt>
      <trkpt lat="49.16709" lon="6.83092">
        <ele>252</ele>
        <time>2013-05-22T08:19:41Z</time>
      </trkpt>
      <trkpt lat="49.16715" lon="6.83094">
        <ele>251.8</ele>
        <time>2013-05-22T08:19:46Z</time>
      </trkpt>
      <trkpt lat="49.1672" lon="6.83096">
        <ele>252</ele>
        <time>2013-05-22T08:19:51Z</time>
      </trkpt>
      <trkpt lat="49.16726" lon="6.83098">
        <ele>251.6</ele>
        <time>2013-05-22T08:19:56Z</time>
      </trkpt>
      <trkpt lat="49.16732" lon="6.83099">
        <ele>251.9</ele>
        <time>2013-05-22T08:20:01Z</time>
      </trkpt>
      <trkpt lat="49.16738" lon="6.83101">
        <ele>251.7</ele>
        <time>2013-05-22T08:20:06Z</time>
      </trkpt>
      <trkpt lat="49.16743" lon="6.83102">
        <ele>251.6</ele>
        <time>2013-05-22T08:20:11Z</time>
      </trkpt>
      <trkpt lat="49.16744" lon="6.83102">
        <ele>250.8</ele>
        <time>2013-05-22T08:20:12Z</time>
      </trkpt>
      <trkpt lat="49.16757" lon="6.83104">
        <ele>250.4</ele>
        <time>2013-05-22T08:20:21Z</time>
      </trkpt>
      <trkpt lat="49.16762" lon="6.83105">
        <ele>249.5</ele>
        <time>2013-05-22T08:20:26Z</time>
      </trkpt>
      <trkpt lat="49.16768" lon="6.83107">
        <ele>248.7</ele>
        <time>2013-05-22T08:20:31Z</time>
      </trkpt>
      <trkpt lat="49.16774" lon="6.83108">
        <ele>248.5</ele>
        <time>2013-05-22T08:20:36Z</time>
      </trkpt>
      <trkpt lat="49.16779" lon="6.83109">
        <ele>247.9</ele>
        <time>2013-05-22T08:20:41Z</time>
      </trkpt>
      <trkpt lat="49.16786" lon="6.8311">
        <ele>247.3</ele>
        <time>2013-05-22T08:20:46Z</time>
      </trkpt>
      <trkpt lat="49.16792" lon="6.8311">
        <ele>247.2</ele>
        <time>2013-05-22T08:20:51Z</time>
      </trkpt>
      <trkpt lat="49.16798" lon="6.83111">
        <ele>246.7</ele>
        <time>2013-05-22T08:20:56Z</time>
      </trkpt>
      <trkpt lat="49.16804" lon="6.83112">
        <ele>246.1</ele>
        <time>2013-05-22T08:21:01Z</time>
      </trkpt>
      <trkpt lat="49.16811" lon="6.83113">
        <ele>245.1</ele>
        <time>2013-05-22T08:21:06Z</time>
      </trkpt>
      <trkpt lat="49.16818" lon="6.83113">
        <ele>245.9</ele>
        <time>2013-05-22T08:21:11Z</time>
      </trkpt>
      <trkpt lat="49.16825" lon="6.83114">
        <ele>245</ele>
        <time>2013-05-22T08:21:16Z</time>
      </trkpt>
      <trkpt lat="49.16827" lon="6.83114">
        <ele>245.2</ele>
        <time>2013-05-22T08:21:17Z</time>
      </trkpt>
      <trkpt lat="49.16841" lon="6.83114">
        <ele>244.7</ele>
        <time>2013-05-22T08:21:26Z</time>
      </trkpt>
      <trkpt lat="49.16848" lon="6.83115">
        <ele>244.5</ele>
        <time>2013-05-22T08:21:31Z</time>
      </trkpt>
      <trkpt lat="49.16854" lon="6.83114">
        <ele>244.6</ele>
        <time>2013-05-22T08:21:36Z</time>
      </trkpt>
      <trkpt lat="49.16859" lon="6.83115">
        <ele>243.4</ele>
        <time>2013-05-22T08:21:41Z</time>
      </trkpt>
      <trkpt lat="49.16865" lon="6.83117">
        <ele>243.5</ele>
        <time>2013-05-22T08:21:46Z</time>
      </trkpt>
      <trkpt lat="49.16871" lon="6.83118">
        <ele>243.2</ele>
        <time>2013-05-22T08:21:51Z</time>
      </trkpt>
      <trkpt lat="49.16876" lon="6.83118">
        <ele>242.2</ele>
        <time>2013-05-22T08:21:56Z</time>
      </trkpt>
      <trkpt lat="49.16881" lon="6.83119">
        <ele>242.7</ele>
        <time>2013-05-22T08:22:01Z</time>
      </trkpt>
      <trkpt lat="49.16887" lon="6.83119">
        <ele>242.8</ele>
        <time>2013-05-22T08:22:06Z</time>
      </trkpt>
      <trkpt lat="49.16892" lon="6.83119">
        <ele>242.4</ele>
        <time>2013-05-22T08:22:11Z</time>
      </trkpt>
      <trkpt lat="49.16899" lon="6.83119">
        <ele>242.3</ele>
        <time>2013-05-22T08:22:16Z</time>
      </trkpt>
      <trkpt lat="49.16905" lon="6.83119">
        <ele>241.9</ele>
        <time>2013-05-22T08:22:21Z</time>
      </trkpt>
      <trkpt lat="49.16906" lon="6.83119">
        <ele>241.8</ele>
        <time>2013-05-22T08:22:22Z</time>
      </trkpt>
      <trkpt lat="49.16917" lon="6.83117">
        <ele>241.6</ele>
        <time>2013-05-22T08:22:31Z</time>
      </trkpt>
      <trkpt lat="49.16924" lon="6.83117">
        <ele>240.3</ele>
        <time>2013-05-22T08:22:36Z</time>
      </trkpt>
      <trkpt lat="49.1693" lon="6.83117">
        <ele>239.7</ele>
        <time>2013-05-22T08:22:41Z</time>
      </trkpt>
      <trkpt lat="49.16938" lon="6.8312">
        <ele>239.8</ele>
        <time>2013-05-22T08:22:46Z</time>
      </trkpt>
      <trkpt lat="49.16944" lon="6.83122">
        <ele>240</ele>
        <time>2013-05-22T08:22:51Z</time>
      </trkpt>
      <trkpt lat="49.1695" lon="6.83121">
        <ele>240</ele>
        <time>2013-05-22T08:22:56Z</time>
      </trkpt>
      <trkpt lat="49.16955" lon="6.8312">
        <ele>239.5</ele>
        <time>2013-05-22T08:23:01Z</time>
      </trkpt>
      <trkpt lat="49.16962" lon="6.8312">
        <ele>238.8</ele>
        <time>2013-05-22T08:23:06Z</time>
      </trkpt>
      <trkpt lat="49.16968" lon="6.83119">
        <ele>239</ele>
        <time>2013-05-22T08:23:11Z</time>
      </trkpt>
      <trkpt lat="49.16973" lon="6.83119">
        <ele>238.7</ele>
        <time>2013-05-22T08:23:16Z</time>
      </trkpt>
      <trkpt lat="49.16978" lon="6.83121">
        <ele>238.3</ele>
        <time>2013-05-22T08:23:21Z</time>
      </trkpt>
      <trkpt lat="49.16983" lon="6.83121">
        <ele>237.1</ele>
        <time>2013-05-22T08:23:26Z</time>
      </trkpt>
      <trkpt lat="49.16983" lon="6.83121">
        <ele>237.1</ele>
        <time>2013-05-22T08:23:26Z</time>
      </trkpt>
      <trkpt lat="49.16984" lon="6.8312">
        <ele>237.1</ele>
        <time>2013-05-22T08:23:27Z</time>
      </trkpt>
      <trkpt lat="49.16996" lon="6.83118">
        <ele>235.9</ele>
        <time>2013-05-22T08:23:36Z</time>
      </trkpt>
      <trkpt lat="49.17001" lon="6.83112">
        <ele>235.6</ele>
        <time>2013-05-22T08:23:41Z</time>
      </trkpt>
      <trkpt lat="49.17005" lon="6.83104">
        <ele>235.6</ele>
        <time>2013-05-22T08:23:46Z</time>
      </trkpt>
      <trkpt lat="49.17006" lon="6.83096">
        <ele>234.7</ele>
        <time>2013-05-22T08:23:51Z</time>
      </trkpt>
      <trkpt lat="49.17008" lon="6.83086">
        <ele>234.7</ele>
        <time>2013-05-22T08:23:56Z</time>
      </trkpt>
      <trkpt lat="49.17009" lon="6.83077">
        <ele>234.3</ele>
        <time>2013-05-22T08:24:01Z</time>
      </trkpt>
      <trkpt lat="49.1701" lon="6.83069">
        <ele>233.7</ele>
        <time>2013-05-22T08:24:06Z</time>
      </trkpt>
      <trkpt lat="49.1701" lon="6.8306">
        <ele>233.2</ele>
        <time>2013-05-22T08:24:11Z</time>
      </trkpt>
      <trkpt lat="49.17008" lon="6.83051">
        <ele>231.9</ele>
        <time>2013-05-22T08:24:16Z</time>
      </trkpt>
      <trkpt lat="49.17008" lon="6.83041">
        <ele>231.8</ele>
        <time>2013-05-22T08:24:21Z</time>
      </trkpt>
      <trkpt lat="49.17007" lon="6.83031">
        <ele>231.4</ele>
        <time>2013-05-22T08:24:26Z</time>
      </trkpt>
      <trkpt lat="49.17007" lon="6.83022">
        <ele>231.7</ele>
        <time>2013-05-22T08:24:31Z</time>
      </trkpt>
      <trkpt lat="49.17008" lon="6.8302">
        <ele>231.9</ele>
        <time>2013-05-22T08:24:32Z</time>
      </trkpt>
      <trkpt lat="49.17005" lon="6.83002">
        <ele>231.3</ele>
        <time>2013-05-22T08:24:41Z</time>
      </trkpt>
      <trkpt lat="49.17004" lon="6.82992">
        <ele>230.4</ele>
        <time>2013-05-22T08:24:46Z</time>
      </trkpt>
      <trkpt lat="49.17004" lon="6.82982">
        <ele>230.2</ele>
        <time>2013-05-22T08:24:51Z</time>
      </trkpt>
      <trkpt lat="49.17004" lon="6.82972">
        <ele>229.7</ele>
        <time>2013-05-22T08:24:56Z</time>
      </trkpt>
      <trkpt lat="49.17005" lon="6.82963">
        <ele>229.6</ele>
        <time>2013-05-22T08:25:01Z</time>
      </trkpt>
      <trkpt lat="49.17005" lon="6.82954">
        <ele>228.7</ele>
        <time>2013-05-22T08:25:06Z</time>
      </trkpt>
      <trkpt lat="49.17005" lon="6.82951">
        <ele>228.9</ele>
        <time>2013-05-22T08:25:11Z</time>
      </trkpt>
      <trkpt lat="49.17009" lon="6.82947">
        <ele>228.8</ele>
        <time>2013-05-22T08:25:16Z</time>
      </trkpt>
      <trkpt lat="49.17013" lon="6.82938">
        <ele>228.5</ele>
        <time>2013-05-22T08:25:21Z</time>
      </trkpt>
      <trkpt lat="49.17017" lon="6.82931">
        <ele>227.9</ele>
        <time>2013-05-22T08:25:26Z</time>
      </trkpt>
      <trkpt lat="49.17017" lon="6.82931">
        <ele>227.9</ele>
        <time>2013-05-22T08:25:26Z</time>
      </trkpt>
      <trkpt lat="49.17022" lon="6.82933">
        <ele>227.9</ele>
        <time>2013-05-22T08:25:31Z</time>
      </trkpt>
      <trkpt lat="49.17026" lon="6.82939">
        <ele>227.5</ele>
        <time>2013-05-22T08:25:36Z</time>
      </trkpt>
      <trkpt lat="49.17027" lon="6.8294">
        <ele>227.5</ele>
        <time>2013-05-22T08:25:37Z</time>
      </trkpt>
      <trkpt lat="49.17037" lon="6.82951">
        <ele>228.6</ele>
        <time>2013-05-22T08:25:46Z</time>
      </trkpt>
      <trkpt lat="49.17042" lon="6.82956">
        <ele>227.2</ele>
        <time>2013-05-22T08:25:51Z</time>
      </trkpt>
      <trkpt lat="49.17047" lon="6.82962">
        <ele>227.5</ele>
        <time>2013-05-22T08:25:56Z</time>
      </trkpt>
      <trkpt lat="49.17052" lon="6.82969">
        <ele>227.5</ele>
        <time>2013-05-22T08:26:01Z</time>
      </trkpt>
      <trkpt lat="49.17054" lon="6.82976">
        <ele>227.4</ele>
        <time>2013-05-22T08:26:06Z</time>
      </trkpt>
      <trkpt lat="49.17059" lon="6.82983">
        <ele>226.8</ele>
        <time>2013-05-22T08:26:11Z</time>
      </trkpt>
      <trkpt lat="49.17064" lon="6.82989">
        <ele>227.2</ele>
        <time>2013-05-22T08:26:16Z</time>
      </trkpt>
      <trkpt lat="49.17069" lon="6.82995">
        <ele>226.8</ele>
        <time>2013-05-22T08:26:21Z</time>
      </trkpt>
      <trkpt lat="49.17072" lon="6.83002">
        <ele>226.3</ele>
        <time>2013-05-22T08:26:26Z</time>
      </trkpt>
      <trkpt lat="49.17076" lon="6.83009">
        <ele>226.6</ele>
        <time>2013-05-22T08:26:31Z</time>
      </trkpt>
      <trkpt lat="49.17081" lon="6.83017">
        <ele>225.2</ele>
        <time>2013-05-22T08:26:36Z</time>
      </trkpt>
      <trkpt lat="49.17085" lon="6.83024">
        <ele>225.8</ele>
        <time>2013-05-22T08:26:41Z</time>
      </trkpt>
      <trkpt lat="49.17086" lon="6.83025">
        <ele>226</ele>
        <time>2013-05-22T08:26:42Z</time>
      </trkpt>
      <trkpt lat="49.17094" lon="6.83038">
        <ele>226</ele>
        <time>2013-05-22T08:26:51Z</time>
      </trkpt>
      <trkpt lat="49.17098" lon="6.83046">
        <ele>225.7</ele>
        <time>2013-05-22T08:26:56Z</time>
      </trkpt>
      <trkpt lat="49.17103" lon="6.83053">
        <ele>225.7</ele>
        <time>2013-05-22T08:27:01Z</time>
      </trkpt>
      <trkpt lat="49.17107" lon="6.83061">
        <ele>224.8</ele>
        <time>2013-05-22T08:27:06Z</time>
      </trkpt>
      <trkpt lat="49.17112" lon="6.83069">
        <ele>224.9</ele>
        <time>2013-05-22T08:27:11Z</time>
      </trkpt>
      <trkpt lat="49.17116" lon="6.83077">
        <ele>224.5</ele>
        <time>2013-05-22T08:27:16Z</time>
      </trkpt>
      <trkpt lat="49.17121" lon="6.83083">
        <ele>224.4</ele>
        <time>2013-05-22T08:27:21Z</time>
      </trkpt>
      <trkpt lat="49.17126" lon="6.83091">
        <ele>224.7</ele>
        <time>2013-05-22T08:27:26Z</time>
      </trkpt>
      <trkpt lat="49.17131" lon="6.83098">
        <ele>224.1</ele>
        <time>2013-05-22T08:27:31Z</time>
      </trkpt>
      <trkpt lat="49.17135" lon="6.83105">
        <ele>224.6</ele>
        <time>2013-05-22T08:27:36Z</time>
      </trkpt>
      <trkpt lat="49.1714" lon="6.83113">
        <ele>224.6</ele>
        <time>2013-05-22T08:27:41Z</time>
      </trkpt>
      <trkpt lat="49.17144" lon="6.8312">
        <ele>224.9</ele>
        <time>2013-05-22T08:27:46Z</time>
      </trkpt>
      <trkpt lat="49.17145" lon="6.83122">
        <ele>225</ele>
        <time>2013-05-22T08:27:47Z</time>
      </trkpt>
      <trkpt lat="49.17153" lon="6.83136">
        <ele>224.2</ele>
        <time>2013-05-22T08:27:56Z</time>
      </trkpt>
      <trkpt lat="49.17157" lon="6.83143">
        <ele>223.5</ele>
        <time>2013-05-22T08:28:01Z</time>
      </trkpt>
      <trkpt lat="49.17161" lon="6.83151">
        <ele>222.8</ele>
        <time>2013-05-22T08:28:06Z</time>
      </trkpt>
      <trkpt lat="49.17165" lon="6.83158">
        <ele>223.6</ele>
        <time>2013-05-22T08:28:11Z</time>
      </trkpt>
      <trkpt lat="49.17169" lon="6.83166">
        <ele>223.7</ele>
        <time>2013-05-22T08:28:16Z</time>
      </trkpt>
      <trkpt lat="49.17174" lon="6.83173">
        <ele>223.9</ele>
        <time>2013-05-22T08:28:21Z</time>
      </trkpt>
      <trkpt lat="49.17177" lon="6.83179">
        <ele>223.4</ele>
        <time>2013-05-22T08:28:26Z</time>
      </trkpt>
      <trkpt lat="49.17181" lon="6.83185">
        <ele>223.8</ele>
        <time>2013-05-22T08:28:31Z</time>
      </trkpt>
      <trkpt lat="49.17185" lon="6.83192">
        <ele>224.8</ele>
        <time>2013-05-22T08:28:36Z</time>
      </trkpt>
      <trkpt lat="49.17188" lon="6.83199">
        <ele>223.2</ele>
        <time>2013-05-22T08:28:41Z</time>
      </trkpt>
      <trkpt lat="49.17191" lon="6.83205">
        <ele>223.5</ele>
        <time>2013-05-22T08:28:46Z</time>
      </trkpt>
      <trkpt lat="49.17194" lon="6.83213">
        <ele>222.2</ele>
        <time>2013-05-22T08:28:51Z</time>
      </trkpt>
      <trkpt lat="49.17194" lon="6.83215">
        <ele>222.5</ele>
        <time>2013-05-22T08:28:52Z</time>
      </trkpt>
      <trkpt lat="49.17201" lon="6.83227">
        <ele>222.2</ele>
        <time>2013-05-22T08:29:01Z</time>
      </trkpt>
      <trkpt lat="49.17204" lon="6.83235">
        <ele>222.4</ele>
        <time>2013-05-22T08:29:06Z</time>
      </trkpt>
      <trkpt lat="49.17207" lon="6.83242">
        <ele>222.2</ele>
        <time>2013-05-22T08:29:11Z</time>
      </trkpt>
      <trkpt lat="49.1721" lon="6.83249">
        <ele>222.4</ele>
        <time>2013-05-22T08:29:16Z</time>
      </trkpt>
      <trkpt lat="49.17211" lon="6.83257">
        <ele>221.7</ele>
        <time>2013-05-22T08:29:21Z</time>
      </trkpt>
      <trkpt lat="49.17212" lon="6.83265">
        <ele>221.7</ele>
        <time>2013-05-22T08:29:26Z</time>
      </trkpt>
      <trkpt lat="49.17213" lon="6.83273">
        <ele>220.9</ele>
        <time>2013-05-22T08:29:31Z</time>
      </trkpt>
      <trkpt lat="49.17215" lon="6.83281">
        <ele>220.3</ele>
        <time>2013-05-22T08:29:36Z</time>
      </trkpt>
      <trkpt lat="49.17216" lon="6.8329">
        <ele>220.5</ele>
        <time>2013-05-22T08:29:41Z</time>
      </trkpt>
      <trkpt lat="49.17218" lon="6.83299">
        <ele>220.5</ele>
        <time>2013-05-22T08:29:46Z</time>
      </trkpt>
      <trkpt lat="49.1722" lon="6.83308">
        <ele>220.8</ele>
        <time>2013-05-22T08:29:51Z</time>
      </trkpt>
      <trkpt lat="49.17222" lon="6.83318">
        <ele>220.9</ele>
        <time>2013-05-22T08:29:56Z</time>
      </trkpt>
      <trkpt lat="49.17222" lon="6.8332">
        <ele>220.8</ele>
        <time>2013-05-22T08:29:57Z</time>
      </trkpt>
      <trkpt lat="49.17224" lon="6.83337">
        <ele>220.1</ele>
        <time>2013-05-22T08:30:06Z</time>
      </trkpt>
      <trkpt lat="49.17225" lon="6.83347">
        <ele>219.6</ele>
        <time>2013-05-22T08:30:11Z</time>
      </trkpt>
      <trkpt lat="49.17227" lon="6.83356">
        <ele>220</ele>
        <time>2013-05-22T08:30:16Z</time>
      </trkpt>
      <trkpt lat="49.17229" lon="6.83365">
        <ele>220.4</ele>
        <time>2013-05-22T08:30:21Z</time>
      </trkpt>
      <trkpt lat="49.17232" lon="6.83373">
        <ele>219.3</ele>
        <time>2013-05-22T08:30:26Z</time>
      </trkpt>
      <trkpt lat="49.17235" lon="6.8338">
        <ele>219.5</ele>
        <time>2013-05-22T08:30:31Z</time>
      </trkpt>
      <trkpt lat="49.17239" lon="6.83387">
        <ele>219.5</ele>
        <time>2013-05-22T08:30:36Z</time>
      </trkpt>
      <trkpt lat="49.17244" lon="6.83393">
        <ele>219.6</ele>
        <time>2013-05-22T08:30:41Z</time>
      </trkpt>
      <trkpt lat="49.17248" lon="6.83397">
        <ele>219.8</ele>
        <time>2013-05-22T08:30:46Z</time>
      </trkpt>
      <trkpt lat="49.17254" lon="6.83401">
        <ele>219</ele>
        <time>2013-05-22T08:30:51Z</time>
      </trkpt>
      <trkpt lat="49.1726" lon="6.83404">
        <ele>218.5</ele>
        <time>2013-05-22T08:30:56Z</time>
      </trkpt>
      <trkpt lat="49.17266" lon="6.83407">
        <ele>219.1</ele>
        <time>2013-05-22T08:31:01Z</time>
      </trkpt>
      <trkpt lat="49.17267" lon="6.83408">
        <ele>219.3</ele>
        <time>2013-05-22T08:31:02Z</time>
      </trkpt>
      <trkpt lat="49.17276" lon="6.83418">
        <ele>217.7</ele>
        <time>2013-05-22T08:31:11Z</time>
      </trkpt>
      <trkpt lat="49.17281" lon="6.83421">
        <ele>217.9</ele>
        <time>2013-05-22T08:31:16Z</time>
      </trkpt>
      <trkpt lat="49.17285" lon="6.83425">
        <ele>218</ele>
        <time>2013-05-22T08:31:21Z</time>
      </trkpt>
      <trkpt lat="49.17289" lon="6.8343">
        <ele>217.9</ele>
        <time>2013-05-22T08:31:26Z</time>
      </trkpt>
      <trkpt lat="49.17293" lon="6.83434">
        <ele>217.6</ele>
        <time>2013-05-22T08:31:31Z</time>
      </trkpt>
      <trkpt lat="49.17298" lon="6.83439">
        <ele>217.8</ele>
        <time>2013-05-22T08:31:36Z</time>
      </trkpt>
      <trkpt lat="49.17304" lon="6.83443">
        <ele>217.7</ele>
        <time>2013-05-22T08:31:41Z</time>
      </trkpt>
      <trkpt lat="49.17311" lon="6.83447">
        <ele>218.3</ele>
        <time>2013-05-22T08:31:46Z</time>
      </trkpt>
      <trkpt lat="49.17317" lon="6.8345">
        <ele>217.5</ele>
        <time>2013-05-22T08:31:51Z</time>
      </trkpt>
      <trkpt lat="49.17322" lon="6.83455">
        <ele>217.4</ele>
        <time>2013-05-22T08:31:56Z</time>
      </trkpt>
      <trkpt lat="49.17328" lon="6.8346">
        <ele>216.6</ele>
        <time>2013-05-22T08:32:01Z</time>
      </trkpt>
      <trkpt lat="49.17334" lon="6.83464">
        <ele>217</ele>
        <time>2013-05-22T08:32:06Z</time>
      </trkpt>
      <trkpt lat="49.17335" lon="6.83464">
        <ele>216.9</ele>
        <time>2013-05-22T08:32:07Z</time>
      </trkpt>
      <trkpt lat="49.17345" lon="6.83471">
        <ele>216.6</ele>
        <time>2013-05-22T08:32:16Z</time>
      </trkpt>
      <trkpt lat="49.1735" lon="6.83475">
        <ele>216.3</ele>
        <time>2013-05-22T08:32:21Z</time>
      </trkpt>
      <trkpt lat="49.17355" lon="6.83479">
        <ele>216.8</ele>
        <time>2013-05-22T08:32:26Z</time>
      </trkpt>
      <trkpt lat="49.1736" lon="6.83484">
        <ele>216.2</ele>
        <time>2013-05-22T08:32:31Z</time>
      </trkpt>
      <trkpt lat="49.17365" lon="6.83488">
        <ele>216.4</ele>
        <time>2013-05-22T08:32:36Z</time>
      </trkpt>
      <trkpt lat="49.17371" lon="6.83493">
        <ele>216.3</ele>
        <time>2013-05-22T08:32:41Z</time>
      </trkpt>
      <trkpt lat="49.17375" lon="6.83497">
        <ele>215.9</ele>
        <time>2013-05-22T08:32:46Z</time>
      </trkpt>
      <trkpt lat="49.17381" lon="6.83501">
        <ele>216.1</ele>
        <time>2013-05-22T08:32:51Z</time>
      </trkpt>
      <trkpt lat="49.17387" lon="6.83505">
        <ele>215.7</ele>
        <time>2013-05-22T08:32:56Z</time>
      </trkpt>
      <trkpt lat="49.17394" lon="6.83506">
        <ele>215.7</ele>
        <time>2013-05-22T08:33:01Z</time>
      </trkpt>
      <trkpt lat="49.17399" lon="6.83508">
        <ele>215.8</ele>
        <time>2013-05-22T08:33:06Z</time>
      </trkpt>
      <trkpt lat="49.17405" lon="6.83508">
        <ele>216.3</ele>
        <time>2013-05-22T08:33:11Z</time>
      </trkpt>
      <trkpt lat="49.17442" lon="6.83503">
        <ele>215.7</ele>
        <time>2013-05-22T08:33:41Z</time>
      </trkpt>
      <trkpt lat="49.17447" lon="6.83504">
        <ele>216</ele>
        <time>2013-05-22T08:33:46Z</time>
      </trkpt>
      <trkpt lat="49.17452" lon="6.83507">
        <ele>216.5</ele>
        <time>2013-05-22T08:33:51Z</time>
      </trkpt>
      <trkpt lat="49.17458" lon="6.83511">
        <ele>216.2</ele>
        <time>2013-05-22T08:33:56Z</time>
      </trkpt>
      <trkpt lat="49.17463" lon="6.83516">
        <ele>215.9</ele>
        <time>2013-05-22T08:34:01Z</time>
      </trkpt>
      <trkpt lat="49.17469" lon="6.83521">
        <ele>216.8</ele>
        <time>2013-05-22T08:34:06Z</time>
      </trkpt>
      <trkpt lat="49.17473" lon="6.83527">
        <ele>217.5</ele>
        <time>2013-05-22T08:34:11Z</time>
      </trkpt>
      <trkpt lat="49.17475" lon="6.83532">
        <ele>218</ele>
        <time>2013-05-22T08:34:16Z</time>
      </trkpt>
      <trkpt lat="49.17476" lon="6.83533">
        <ele>218</ele>
        <time>2013-05-22T08:34:17Z</time>
      </trkpt>
      <trkpt lat="49.17483" lon="6.83543">
        <ele>217.8</ele>
        <time>2013-05-22T08:34:26Z</time>
      </trkpt>
      <trkpt lat="49.17487" lon="6.83551">
        <ele>217.8</ele>
        <time>2013-05-22T08:34:31Z</time>
      </trkpt>
      <trkpt lat="49.1749" lon="6.83559">
        <ele>217.7</ele>
        <time>2013-05-22T08:34:36Z</time>
      </trkpt>
      <trkpt lat="49.17494" lon="6.83567">
        <ele>217.7</ele>
        <time>2013-05-22T08:34:41Z</time>
      </trkpt>
      <trkpt lat="49.17497" lon="6.83575">
        <ele>216.8</ele>
        <time>2013-05-22T08:34:46Z</time>
      </trkpt>
      <trkpt lat="49.17501" lon="6.83583">
        <ele>216.9</ele>
        <time>2013-05-22T08:34:51Z</time>
      </trkpt>
      <trkpt lat="49.17504" lon="6.83591">
        <ele>216.8</ele>
        <time>2013-05-22T08:34:56Z</time>
      </trkpt>
      <trkpt lat="49.17507" lon="6.83599">
        <ele>216.7</ele>
        <time>2013-05-22T08:35:01Z</time>
      </trkpt>
      <trkpt lat="49.1751" lon="6.83607">
        <ele>216.2</ele>
        <time>2013-05-22T08:35:06Z</time>
      </trkpt>
      <trkpt lat="49.17511" lon="6.83617">
        <ele>216.5</ele>
        <time>2013-05-22T08:35:11Z</time>
      </trkpt>
      <trkpt lat="49.17514" lon="6.83626">
        <ele>215.8</ele>
        <time>2013-05-22T08:35:16Z</time>
      </trkpt>
      <trkpt lat="49.17517" lon="6.83635">
        <ele>215.3</ele>
        <time>2013-05-22T08:35:21Z</time>
      </trkpt>
      <trkpt lat="49.17517" lon="6.83637">
        <ele>215.6</ele>
        <time>2013-05-22T08:35:22Z</time>
      </trkpt>
      <trkpt lat="49.17522" lon="6.83652">
        <ele>215.4</ele>
        <time>2013-05-22T08:35:31Z</time>
      </trkpt>
      <trkpt lat="49.17524" lon="6.83662">
        <ele>216</ele>
        <time>2013-05-22T08:35:36Z</time>
      </trkpt>
      <trkpt lat="49.17527" lon="6.83672">
        <ele>215.7</ele>
        <time>2013-05-22T08:35:41Z</time>
      </trkpt>
      <trkpt lat="49.17529" lon="6.83682">
        <ele>215.6</ele>
        <time>2013-05-22T08:35:46Z</time>
      </trkpt>
      <trkpt lat="49.17531" lon="6.83691">
        <ele>215.5</ele>
        <time>2013-05-22T08:35:51Z</time>
      </trkpt>
      <trkpt lat="49.17533" lon="6.83701">
        <ele>215.5</ele>
        <time>2013-05-22T08:35:56Z</time>
      </trkpt>
      <trkpt lat="49.17535" lon="6.83711">
        <ele>215.1</ele>
        <time>2013-05-22T08:36:01Z</time>
      </trkpt>
      <trkpt lat="49.17537" lon="6.83722">
        <ele>215.1</ele>
        <time>2013-05-22T08:36:06Z</time>
      </trkpt>
      <trkpt lat="49.17539" lon="6.83732">
        <ele>214.6</ele>
        <time>2013-05-22T08:36:11Z</time>
      </trkpt>
      <trkpt lat="49.1754" lon="6.83743">
        <ele>215</ele>
        <time>2013-05-22T08:36:16Z</time>
      </trkpt>
      <trkpt lat="49.17542" lon="6.83753">
        <ele>214.1</ele>
        <time>2013-05-22T08:36:21Z</time>
      </trkpt>
      <trkpt lat="49.17544" lon="6.83762">
        <ele>215.1</ele>
        <time>2013-05-22T08:36:26Z</time>
      </trkpt>
      <trkpt lat="49.17545" lon="6.83764">
        <ele>215.2</ele>
        <time>2013-05-22T08:36:27Z</time>
      </trkpt>
      <trkpt lat="49.1755" lon="6.83776">
        <ele>214.7</ele>
        <time>2013-05-22T08:36:36Z</time>
      </trkpt>
      <trkpt lat="49.17554" lon="6.8378">
        <ele>214.3</ele>
        <time>2013-05-22T08:36:41Z</time>
      </trkpt>
      <trkpt lat="49.1756" lon="6.83783">
        <ele>214.4</ele>
        <time>2013-05-22T08:36:46Z</time>
      </trkpt>
      <trkpt lat="49.17567" lon="6.83786">
        <ele>213.9</ele>
        <time>2013-05-22T08:36:51Z</time>
      </trkpt>
      <trkpt lat="49.17572" lon="6.83788">
        <ele>213.8</ele>
        <time>2013-05-22T08:36:56Z</time>
      </trkpt>
      <trkpt lat="49.17576" lon="6.8379">
        <ele>214.3</ele>
        <time>2013-05-22T08:37:01Z</time>
      </trkpt>
      <trkpt lat="49.17582" lon="6.83791">
        <ele>213.6</ele>
        <time>2013-05-22T08:37:06Z</time>
      </trkpt>
      <trkpt lat="49.17588" lon="6.83794">
        <ele>214</ele>
        <time>2013-05-22T08:37:11Z</time>
      </trkpt>
      <trkpt lat="49.17593" lon="6.83798">
        <ele>213.1</ele>
        <time>2013-05-22T08:37:16Z</time>
      </trkpt>
      <trkpt lat="49.17599" lon="6.83803">
        <ele>213.2</ele>
        <time>2013-05-22T08:37:21Z</time>
      </trkpt>
      <trkpt lat="49.17604" lon="6.8381">
        <ele>213.7</ele>
        <time>2013-05-22T08:37:26Z</time>
      </trkpt>
      <trkpt lat="49.17608" lon="6.83817">
        <ele>212.8</ele>
        <time>2013-05-22T08:37:31Z</time>
      </trkpt>
      <trkpt lat="49.17609" lon="6.83819">
        <ele>213.1</ele>
        <time>2013-05-22T08:37:32Z</time>
      </trkpt>
      <trkpt lat="49.17613" lon="6.83833">
        <ele>213.5</ele>
        <time>2013-05-22T08:37:41Z</time>
      </trkpt>
      <trkpt lat="49.17615" lon="6.83842">
        <ele>213.7</ele>
        <time>2013-05-22T08:37:46Z</time>
      </trkpt>
      <trkpt lat="49.17617" lon="6.83852">
        <ele>213.3</ele>
        <time>2013-05-22T08:37:51Z</time>
      </trkpt>
      <trkpt lat="49.1762" lon="6.83861">
        <ele>213.5</ele>
        <time>2013-05-22T08:37:56Z</time>
      </trkpt>
      <trkpt lat="49.17622" lon="6.83869">
        <ele>213.3</ele>
        <time>2013-05-22T08:38:01Z</time>
      </trkpt>
      <trkpt lat="49.17625" lon="6.83877">
        <ele>213.7</ele>
        <time>2013-05-22T08:38:06Z</time>
      </trkpt>
      <trkpt lat="49.17626" lon="6.83886">
        <ele>213.6</ele>
        <time>2013-05-22T08:38:11Z</time>
      </trkpt>
      <trkpt lat="49.17627" lon="6.83895">
        <ele>214.2</ele>
        <time>2013-05-22T08:38:16Z</time>
      </trkpt>
      <trkpt lat="49.17629" lon="6.83904">
        <ele>213.5</ele>
        <time>2013-05-22T08:38:21Z</time>
      </trkpt>
      <trkpt lat="49.17631" lon="6.83913">
        <ele>213.4</ele>
        <time>2013-05-22T08:38:26Z</time>
      </trkpt>
      <trkpt lat="49.17634" lon="6.83923">
        <ele>213.8</ele>
        <time>2013-05-22T08:38:31Z</time>
      </trkpt>
      <trkpt lat="49.17637" lon="6.83932">
        <ele>214.2</ele>
        <time>2013-05-22T08:38:36Z</time>
      </trkpt>
      <trkpt lat="49.17637" lon="6.83933">
        <ele>214.5</ele>
        <time>2013-05-22T08:38:37Z</time>
      </trkpt>
      <trkpt lat="49.17644" lon="6.83947">
        <ele>214.5</ele>
        <time>2013-05-22T08:38:46Z</time>
      </trkpt>
      <trkpt lat="49.17648" lon="6.83954">
        <ele>214</ele>
        <time>2013-05-22T08:38:51Z</time>
      </trkpt>
      <trkpt lat="49.1765" lon="6.83963">
        <ele>214.4</ele>
        <time>2013-05-22T08:38:56Z</time>
      </trkpt>
      <trkpt lat="49.17653" lon="6.8397">
        <ele>215.3</ele>
        <time>2013-05-22T08:39:01Z</time>
      </trkpt>
      <trkpt lat="49.17657" lon="6.83976">
        <ele>214.7</ele>
        <time>2013-05-22T08:39:06Z</time>
      </trkpt>
      <trkpt lat="49.1766" lon="6.83982">
        <ele>215</ele>
        <time>2013-05-22T08:39:11Z</time>
      </trkpt>
      <trkpt lat="49.17663" lon="6.8399">
        <ele>215.6</ele>
        <time>2013-05-22T08:39:16Z</time>
      </trkpt>
      <trkpt lat="49.17665" lon="6.83997">
        <ele>215.6</ele>
        <time>2013-05-22T08:39:21Z</time>
      </trkpt>
      <trkpt lat="49.17669" lon="6.84003">
        <ele>215</ele>
        <time>2013-05-22T08:39:26Z</time>
      </trkpt>
      <trkpt lat="49.17671" lon="6.84012">
        <ele>214.7</ele>
        <time>2013-05-22T08:39:31Z</time>
      </trkpt>
      <trkpt lat="49.17675" lon="6.84019">
        <ele>214.8</ele>
        <time>2013-05-22T08:39:36Z</time>
      </trkpt>
      <trkpt lat="49.1768" lon="6.84027">
        <ele>215.4</ele>
        <time>2013-05-22T08:39:41Z</time>
      </trkpt>
      <trkpt lat="49.17681" lon="6.84028">
        <ele>215.4</ele>
        <time>2013-05-22T08:39:42Z</time>
      </trkpt>
      <trkpt lat="49.1769" lon="6.84041">
        <ele>215.5</ele>
        <time>2013-05-22T08:39:51Z</time>
      </trkpt>
      <trkpt lat="49.17694" lon="6.84047">
        <ele>215.3</ele>
        <time>2013-05-22T08:39:56Z</time>
      </trkpt>
      <trkpt lat="49.17697" lon="6.84055">
        <ele>215.3</ele>
        <time>2013-05-22T08:40:01Z</time>
      </trkpt>
      <trkpt lat="49.177" lon="6.84062">
        <ele>214.9</ele>
        <time>2013-05-22T08:40:06Z</time>
      </trkpt>
      <trkpt lat="49.17704" lon="6.84069">
        <ele>214.9</ele>
        <time>2013-05-22T08:40:11Z</time>
      </trkpt>
      <trkpt lat="49.17709" lon="6.84079">
        <ele>215.5</ele>
        <time>2013-05-22T08:40:16Z</time>
      </trkpt>
      <trkpt lat="49.17713" lon="6.84089">
        <ele>214.6</ele>
        <time>2013-05-22T08:40:21Z</time>
      </trkpt>
      <trkpt lat="49.17719" lon="6.84095">
        <ele>214.9</ele>
        <time>2013-05-22T08:40:26Z</time>
      </trkpt>
      <trkpt lat="49.17724" lon="6.84103">
        <ele>215.2</ele>
        <time>2013-05-22T08:40:31Z</time>
      </trkpt>
      <trkpt lat="49.17727" lon="6.84112">
        <ele>215.7</ele>
        <time>2013-05-22T08:40:36Z</time>
      </trkpt>
      <trkpt lat="49.17732" lon="6.8412">
        <ele>214.7</ele>
        <time>2013-05-22T08:40:41Z</time>
      </trkpt>
      <trkpt lat="49.17737" lon="6.84129">
        <ele>214.2</ele>
        <time>2013-05-22T08:40:46Z</time>
      </trkpt>
      <trkpt lat="49.17737" lon="6.8413">
        <ele>214.4</ele>
        <time>2013-05-22T08:40:47Z</time>
      </trkpt>
      <trkpt lat="49.17746" lon="6.84144">
        <ele>213.9</ele>
        <time>2013-05-22T08:40:56Z</time>
      </trkpt>
      <trkpt lat="49.17749" lon="6.84153">
        <ele>214.7</ele>
        <time>2013-05-22T08:41:01Z</time>
      </trkpt>
      <trkpt lat="49.17754" lon="6.84161">
        <ele>215.1</ele>
        <time>2013-05-22T08:41:06Z</time>
      </trkpt>
      <trkpt lat="49.17758" lon="6.84168">
        <ele>214.9</ele>
        <time>2013-05-22T08:41:11Z</time>
      </trkpt>
      <trkpt lat="49.17764" lon="6.84173">
        <ele>214.3</ele>
        <time>2013-05-22T08:41:16Z</time>
      </trkpt>
      <trkpt lat="49.17768" lon="6.84179">
        <ele>214.1</ele>
        <time>2013-05-22T08:41:21Z</time>
      </trkpt>
      <trkpt lat="49.17772" lon="6.84186">
        <ele>214.5</ele>
        <time>2013-05-22T08:41:26Z</time>
      </trkpt>
      <trkpt lat="49.17776" lon="6.84191">
        <ele>214.3</ele>
        <time>2013-05-22T08:41:31Z</time>
      </trkpt>
      <trkpt lat="49.17781" lon="6.84197">
        <ele>213.9</ele>
        <time>2013-05-22T08:41:36Z</time>
      </trkpt>
      <trkpt lat="49.17786" lon="6.84204">
        <ele>214.9</ele>
        <time>2013-05-22T08:41:41Z</time>
      </trkpt>
      <trkpt lat="49.17792" lon="6.84209">
        <ele>214.4</ele>
        <time>2013-05-22T08:41:46Z</time>
      </trkpt>
      <trkpt lat="49.17796" lon="6.84215">
        <ele>215.4</ele>
        <time>2013-05-22T08:41:51Z</time>
      </trkpt>
      <trkpt lat="49.17797" lon="6.84216">
        <ele>215.5</ele>
        <time>2013-05-22T08:41:52Z</time>
      </trkpt>
      <trkpt lat="49.17807" lon="6.84226">
        <ele>214.9</ele>
        <time>2013-05-22T08:42:01Z</time>
      </trkpt>
      <trkpt lat="49.17813" lon="6.84232">
        <ele>214.7</ele>
        <time>2013-05-22T08:42:06Z</time>
      </trkpt>
      <trkpt lat="49.17818" lon="6.84239">
        <ele>215.3</ele>
        <time>2013-05-22T08:42:11Z</time>
      </trkpt>
      <trkpt lat="49.17825" lon="6.84244">
        <ele>215.1</ele>
        <time>2013-05-22T08:42:16Z</time>
      </trkpt>
      <trkpt lat="49.17829" lon="6.84247">
        <ele>215.3</ele>
        <time>2013-05-22T08:42:21Z</time>
      </trkpt>
      <trkpt lat="49.17834" lon="6.84252">
        <ele>215.2</ele>
        <time>2013-05-22T08:42:26Z</time>
      </trkpt>
      <trkpt lat="49.17838" lon="6.84258">
        <ele>215.6</ele>
        <time>2013-05-22T08:42:31Z</time>
      </trkpt>
      <trkpt lat="49.17844" lon="6.84263">
        <ele>215.8</ele>
        <time>2013-05-22T08:42:36Z</time>
      </trkpt>
      <trkpt lat="49.17849" lon="6.84269">
        <ele>216.1</ele>
        <time>2013-05-22T08:42:41Z</time>
      </trkpt>
      <trkpt lat="49.17855" lon="6.84272">
        <ele>216</ele>
        <time>2013-05-22T08:42:46Z</time>
      </trkpt>
      <trkpt lat="49.1786" lon="6.84277">
        <ele>216.2</ele>
        <time>2013-05-22T08:42:51Z</time>
      </trkpt>
      <trkpt lat="49.17865" lon="6.84281">
        <ele>216.4</ele>
        <time>2013-05-22T08:42:56Z</time>
      </trkpt>
      <trkpt lat="49.17866" lon="6.84281">
        <ele>216.2</ele>
        <time>2013-05-22T08:42:57Z</time>
      </trkpt>
      <trkpt lat="49.17876" lon="6.84287">
        <ele>216.6</ele>
        <time>2013-05-22T08:43:06Z</time>
      </trkpt>
      <trkpt lat="49.17882" lon="6.8429">
        <ele>217.4</ele>
        <time>2013-05-22T08:43:11Z</time>
      </trkpt>
      <trkpt lat="49.17888" lon="6.84294">
        <ele>217.5</ele>
        <time>2013-05-22T08:43:16Z</time>
      </trkpt>
      <trkpt lat="49.17895" lon="6.84298">
        <ele>217.3</ele>
        <time>2013-05-22T08:43:21Z</time>
      </trkpt>
      <trkpt lat="49.17902" lon="6.84302">
        <ele>217.7</ele>
        <time>2013-05-22T08:43:26Z</time>
      </trkpt>
      <trkpt lat="49.17909" lon="6.84305">
        <ele>217</ele>
        <time>2013-05-22T08:43:31Z</time>
      </trkpt>
      <trkpt lat="49.17915" lon="6.84309">
        <ele>217.6</ele>
        <time>2013-05-22T08:43:36Z</time>
      </trkpt>
      <trkpt lat="49.17922" lon="6.84313">
        <ele>218.5</ele>
        <time>2013-05-22T08:43:41Z</time>
      </trkpt>
      <trkpt lat="49.17929" lon="6.84317">
        <ele>217.6</ele>
        <time>2013-05-22T08:43:46Z</time>
      </trkpt>
      <trkpt lat="49.17937" lon="6.84321">
        <ele>217.7</ele>
        <time>2013-05-22T08:43:51Z</time>
      </trkpt>
      <trkpt lat="49.17943" lon="6.84324">
        <ele>217.8</ele>
        <time>2013-05-22T08:43:56Z</time>
      </trkpt>
      <trkpt lat="49.17949" lon="6.84326">
        <ele>217.9</ele>
        <time>2013-05-22T08:44:01Z</time>
      </trkpt>
      <trkpt lat="49.1795" lon="6.84327">
        <ele>218.2</ele>
        <time>2013-05-22T08:44:02Z</time>
      </trkpt>
      <trkpt lat="49.17962" lon="6.84332">
        <ele>217.8</ele>
        <time>2013-05-22T08:44:11Z</time>
      </trkpt>
      <trkpt lat="49.17969" lon="6.84335">
        <ele>217.8</ele>
        <time>2013-05-22T08:44:16Z</time>
      </trkpt>
      <trkpt lat="49.17975" lon="6.84339">
        <ele>217.7</ele>
        <time>2013-05-22T08:44:21Z</time>
      </trkpt>
      <trkpt lat="49.17981" lon="6.84345">
        <ele>217.7</ele>
        <time>2013-05-22T08:44:26Z</time>
      </trkpt>
      <trkpt lat="49.17987" lon="6.84351">
        <ele>218.3</ele>
        <time>2013-05-22T08:44:31Z</time>
      </trkpt>
      <trkpt lat="49.17992" lon="6.84356">
        <ele>218.7</ele>
        <time>2013-05-22T08:44:36Z</time>
      </trkpt>
      <trkpt lat="49.17997" lon="6.84362">
        <ele>218.3</ele>
        <time>2013-05-22T08:44:41Z</time>
      </trkpt>
      <trkpt lat="49.18001" lon="6.84369">
        <ele>218.3</ele>
        <time>2013-05-22T08:44:46Z</time>
      </trkpt>
      <trkpt lat="49.18007" lon="6.84376">
        <ele>218</ele>
        <time>2013-05-22T08:44:51Z</time>
      </trkpt>
      <trkpt lat="49.18011" lon="6.84382">
        <ele>218</ele>
        <time>2013-05-22T08:44:56Z</time>
      </trkpt>
      <trkpt lat="49.18018" lon="6.84388">
        <ele>218.3</ele>
        <time>2013-05-22T08:45:01Z</time>
      </trkpt>
      <trkpt lat="49.18022" lon="6.84396">
        <ele>218.5</ele>
        <time>2013-05-22T08:45:06Z</time>
      </trkpt>
      <trkpt lat="49.18023" lon="6.84397">
        <ele>218.3</ele>
        <time>2013-05-22T08:45:07Z</time>
      </trkpt>
      <trkpt lat="49.18029" lon="6.84411">
        <ele>218.7</ele>
        <time>2013-05-22T08:45:16Z</time>
      </trkpt>
      <trkpt lat="49.18032" lon="6.8442">
        <ele>218.7</ele>
        <time>2013-05-22T08:45:21Z</time>
      </trkpt>
      <trkpt lat="49.18035" lon="6.84428">
        <ele>218.3</ele>
        <time>2013-05-22T08:45:26Z</time>
      </trkpt>
      <trkpt lat="49.18039" lon="6.84436">
        <ele>217.8</ele>
        <time>2013-05-22T08:45:31Z</time>
      </trkpt>
      <trkpt lat="49.18041" lon="6.84444">
        <ele>218.1</ele>
        <time>2013-05-22T08:45:36Z</time>
      </trkpt>
      <trkpt lat="49.18045" lon="6.84452">
        <ele>217.2</ele>
        <time>2013-05-22T08:45:41Z</time>
      </trkpt>
      <trkpt lat="49.18049" lon="6.84459">
        <ele>216.4</ele>
        <time>2013-05-22T08:45:46Z</time>
      </trkpt>
      <trkpt lat="49.18053" lon="6.84466">
        <ele>216.6</ele>
        <time>2013-05-22T08:45:51Z</time>
      </trkpt>
      <trkpt lat="49.18056" lon="6.84472">
        <ele>216.3</ele>
        <time>2013-05-22T08:45:56Z</time>
      </trkpt>
      <trkpt lat="49.18059" lon="6.84479">
        <ele>215.5</ele>
        <time>2013-05-22T08:46:01Z</time>
      </trkpt>
      <trkpt lat="49.18063" lon="6.84487">
        <ele>215.1</ele>
        <time>2013-05-22T08:46:06Z</time>
      </trkpt>
      <trkpt lat="49.18066" lon="6.84494">
        <ele>214.8</ele>
        <time>2013-05-22T08:46:11Z</time>
      </trkpt>
      <trkpt lat="49.18066" lon="6.84496">
        <ele>215</ele>
        <time>2013-05-22T08:46:12Z</time>
      </trkpt>
      <trkpt lat="49.18072" lon="6.84511">
        <ele>214.2</ele>
        <time>2013-05-22T08:46:21Z</time>
      </trkpt>
      <trkpt lat="49.18077" lon="6.84519">
        <ele>214.9</ele>
        <time>2013-05-22T08:46:26Z</time>
      </trkpt>
      <trkpt lat="49.18081" lon="6.84528">
        <ele>214.4</ele>
        <time>2013-05-22T08:46:31Z</time>
      </trkpt>
      <trkpt lat="49.18085" lon="6.84535">
        <ele>214</ele>
        <time>2013-05-22T08:46:36Z</time>
      </trkpt>
      <trkpt lat="49.18089" lon="6.84544">
        <ele>213.7</ele>
        <time>2013-05-22T08:46:41Z</time>
      </trkpt>
      <trkpt lat="49.18093" lon="6.84553">
        <ele>213.1</ele>
        <time>2013-05-22T08:46:46Z</time>
      </trkpt>
      <trkpt lat="49.18096" lon="6.84561">
        <ele>212.6</ele>
        <time>2013-05-22T08:46:51Z</time>
      </trkpt>
      <trkpt lat="49.181" lon="6.84569">
        <ele>212.7</ele>
        <time>2013-05-22T08:46:56Z</time>
      </trkpt>
      <trkpt lat="49.18102" lon="6.84578">
        <ele>213</ele>
        <time>2013-05-22T08:47:01Z</time>
      </trkpt>
      <trkpt lat="49.18105" lon="6.84585">
        <ele>212.6</ele>
        <time>2013-05-22T08:47:06Z</time>
      </trkpt>
      <trkpt lat="49.18107" lon="6.84593">
        <ele>212.3</ele>
        <time>2013-05-22T08:47:11Z</time>
      </trkpt>
      <trkpt lat="49.18108" lon="6.846">
        <ele>211.4</ele>
        <time>2013-05-22T08:47:16Z</time>
      </trkpt>
      <trkpt lat="49.18108" lon="6.84601">
        <ele>211.2</ele>
        <time>2013-05-22T08:47:17Z</time>
      </trkpt>
      <trkpt lat="49.18115" lon="6.84615">
        <ele>212.1</ele>
        <time>2013-05-22T08:47:26Z</time>
      </trkpt>
      <trkpt lat="49.18119" lon="6.84623">
        <ele>211.3</ele>
        <time>2013-05-22T08:47:31Z</time>
      </trkpt>
      <trkpt lat="49.18121" lon="6.84633">
        <ele>211.6</ele>
        <time>2013-05-22T08:47:36Z</time>
      </trkpt>
      <trkpt lat="49.18126" lon="6.84641">
        <ele>210.6</ele>
        <time>2013-05-22T08:47:41Z</time>
      </trkpt>
      <trkpt lat="49.18129" lon="6.84651">
        <ele>210.4</ele>
        <time>2013-05-22T08:47:46Z</time>
      </trkpt>
      <trkpt lat="49.18132" lon="6.8466">
        <ele>211</ele>
        <time>2013-05-22T08:47:51Z</time>
      </trkpt>
      <trkpt lat="49.18135" lon="6.84669">
        <ele>210.7</ele>
        <time>2013-05-22T08:47:56Z</time>
      </trkpt>
      <trkpt lat="49.18137" lon="6.84679">
        <ele>210.4</ele>
        <time>2013-05-22T08:48:01Z</time>
      </trkpt>
      <trkpt lat="49.1814" lon="6.84688">
        <ele>210.1</ele>
        <time>2013-05-22T08:48:06Z</time>
      </trkpt>
      <trkpt lat="49.18144" lon="6.84696">
        <ele>210.1</ele>
        <time>2013-05-22T08:48:11Z</time>
      </trkpt>
      <trkpt lat="49.18147" lon="6.84707">
        <ele>209.2</ele>
        <time>2013-05-22T08:48:16Z</time>
      </trkpt>
      <trkpt lat="49.18149" lon="6.84715">
        <ele>209.4</ele>
        <time>2013-05-22T08:48:21Z</time>
      </trkpt>
      <trkpt lat="49.18149" lon="6.84716">
        <ele>209.3</ele>
        <time>2013-05-22T08:48:22Z</time>
      </trkpt>
      <trkpt lat="49.18152" lon="6.84734">
        <ele>208.9</ele>
        <time>2013-05-22T08:48:31Z</time>
      </trkpt>
      <trkpt lat="49.18155" lon="6.84743">
        <ele>208.8</ele>
        <time>2013-05-22T08:48:36Z</time>
      </trkpt>
      <trkpt lat="49.18158" lon="6.84752">
        <ele>208</ele>
        <time>2013-05-22T08:48:41Z</time>
      </trkpt>
      <trkpt lat="49.18161" lon="6.8476">
        <ele>208.4</ele>
        <time>2013-05-22T08:48:46Z</time>
      </trkpt>
      <trkpt lat="49.18163" lon="6.84769">
        <ele>207.6</ele>
        <time>2013-05-22T08:48:51Z</time>
      </trkpt>
      <trkpt lat="49.18164" lon="6.8478">
        <ele>207.8</ele>
        <time>2013-05-22T08:48:56Z</time>
      </trkpt>
      <trkpt lat="49.18166" lon="6.84791">
        <ele>207.5</ele>
        <time>2013-05-22T08:49:01Z</time>
      </trkpt>
      <trkpt lat="49.18168" lon="6.848">
        <ele>207.3</ele>
        <time>2013-05-22T08:49:06Z</time>
      </trkpt>
      <trkpt lat="49.18172" lon="6.84806">
        <ele>208</ele>
        <time>2013-05-22T08:49:11Z</time>
      </trkpt>
      <trkpt lat="49.18176" lon="6.84808">
        <ele>207.4</ele>
        <time>2013-05-22T08:49:16Z</time>
      </trkpt>
      <trkpt lat="49.18181" lon="6.84808">
        <ele>206.7</ele>
        <time>2013-05-22T08:49:21Z</time>
      </trkpt>
      <trkpt lat="49.18186" lon="6.84808">
        <ele>205.8</ele>
        <time>2013-05-22T08:49:26Z</time>
      </trkpt>
      <trkpt lat="49.18238" lon="6.84798">
        <ele>206.3</ele>
        <time>2013-05-22T08:50:06Z</time>
      </trkpt>
      <trkpt lat="49.18244" lon="6.84801">
        <ele>206.4</ele>
        <time>2013-05-22T08:50:11Z</time>
      </trkpt>
      <trkpt lat="49.18249" lon="6.84807">
        <ele>207.2</ele>
        <time>2013-05-22T08:50:16Z</time>
      </trkpt>
      <trkpt lat="49.18253" lon="6.84815">
        <ele>207.7</ele>
        <time>2013-05-22T08:50:21Z</time>
      </trkpt>
      <trkpt lat="49.18256" lon="6.84822">
        <ele>208.5</ele>
        <time>2013-05-22T08:50:26Z</time>
      </trkpt>
      <trkpt lat="49.18258" lon="6.84827">
        <ele>208</ele>
        <time>2013-05-22T08:50:31Z</time>
      </trkpt>
      <trkpt lat="49.18258" lon="6.84829">
        <ele>208</ele>
        <time>2013-05-22T08:50:32Z</time>
      </trkpt>
      <trkpt lat="49.18262" lon="6.84843">
        <ele>207.7</ele>
        <time>2013-05-22T08:50:41Z</time>
      </trkpt>
      <trkpt lat="49.18264" lon="6.8485">
        <ele>208.9</ele>
        <time>2013-05-22T08:50:46Z</time>
      </trkpt>
      <trkpt lat="49.18266" lon="6.84858">
        <ele>208.3</ele>
        <time>2013-05-22T08:50:51Z</time>
      </trkpt>
      <trkpt lat="49.18268" lon="6.84866">
        <ele>209</ele>
        <time>2013-05-22T08:50:56Z</time>
      </trkpt>
      <trkpt lat="49.18269" lon="6.84873">
        <ele>208.5</ele>
        <time>2013-05-22T08:51:01Z</time>
      </trkpt>
      <trkpt lat="49.18271" lon="6.84881">
        <ele>208.1</ele>
        <time>2013-05-22T08:51:06Z</time>
      </trkpt>
      <trkpt lat="49.18272" lon="6.8489">
        <ele>208.1</ele>
        <time>2013-05-22T08:51:11Z</time>
      </trkpt>
      <trkpt lat="49.18272" lon="6.84899">
        <ele>207.6</ele>
        <time>2013-05-22T08:51:16Z</time>
      </trkpt>
      <trkpt lat="49.18273" lon="6.84907">
        <ele>208.2</ele>
        <time>2013-05-22T08:51:21Z</time>
      </trkpt>
      <trkpt lat="49.18275" lon="6.84917">
        <ele>207.9</ele>
        <time>2013-05-22T08:51:26Z</time>
      </trkpt>
      <trkpt lat="49.18277" lon="6.84926">
        <ele>207.8</ele>
        <time>2013-05-22T08:51:31Z</time>
      </trkpt>
      <trkpt lat="49.18279" lon="6.84937">
        <ele>208.1</ele>
        <time>2013-05-22T08:51:36Z</time>
      </trkpt>
      <trkpt lat="49.1828" lon="6.84939">
        <ele>208.2</ele>
        <time>2013-05-22T08:51:37Z</time>
      </trkpt>
      <trkpt lat="49.18283" lon="6.84957">
        <ele>209.3</ele>
        <time>2013-05-22T08:51:46Z</time>
      </trkpt>
      <trkpt lat="49.18284" lon="6.84967">
        <ele>208.7</ele>
        <time>2013-05-22T08:51:51Z</time>
      </trkpt>
      <trkpt lat="49.18286" lon="6.84976">
        <ele>208.7</ele>
        <time>2013-05-22T08:51:56Z</time>
      </trkpt>
      <trkpt lat="49.18288" lon="6.84985">
        <ele>208.8</ele>
        <time>2013-05-22T08:52:01Z</time>
      </trkpt>
      <trkpt lat="49.18291" lon="6.84993">
        <ele>208.4</ele>
        <time>2013-05-22T08:52:06Z</time>
      </trkpt>
      <trkpt lat="49.18293" lon="6.85003">
        <ele>208.9</ele>
        <time>2013-05-22T08:52:11Z</time>
      </trkpt>
      <trkpt lat="49.18295" lon="6.85011">
        <ele>209.9</ele>
        <time>2013-05-22T08:52:16Z</time>
      </trkpt>
      <trkpt lat="49.18297" lon="6.8502">
        <ele>209.3</ele>
        <time>2013-05-22T08:52:21Z</time>
      </trkpt>
      <trkpt lat="49.183" lon="6.85028">
        <ele>209.1</ele>
        <time>2013-05-22T08:52:26Z</time>
      </trkpt>
      <trkpt lat="49.18302" lon="6.85039">
        <ele>208.9</ele>
        <time>2013-05-22T08:52:31Z</time>
      </trkpt>
      <trkpt lat="49.18305" lon="6.85049">
        <ele>209</ele>
        <time>2013-05-22T08:52:36Z</time>
      </trkpt>
      <trkpt lat="49.18308" lon="6.85059">
        <ele>208.3</ele>
        <time>2013-05-22T08:52:41Z</time>
      </trkpt>
      <trkpt lat="49.18309" lon="6.85061">
        <ele>208.4</ele>
        <time>2013-05-22T08:52:42Z</time>
      </trkpt>
      <trkpt lat="49.18312" lon="6.8508">
        <ele>208.9</ele>
        <time>2013-05-22T08:52:51Z</time>
      </trkpt>
      <trkpt lat="49.18314" lon="6.8509">
        <ele>208.6</ele>
        <time>2013-05-22T08:52:56Z</time>
      </trkpt>
      <trkpt lat="49.18316" lon="6.85099">
        <ele>208.9</ele>
        <time>2013-05-22T08:53:01Z</time>
      </trkpt>
      <trkpt lat="49.18318" lon="6.85107">
        <ele>209</ele>
        <time>2013-05-22T08:53:06Z</time>
      </trkpt>
      <trkpt lat="49.18321" lon="6.85115">
        <ele>209.5</ele>
        <time>2013-05-22T08:53:11Z</time>
      </trkpt>
      <trkpt lat="49.18325" lon="6.85123">
        <ele>209.4</ele>
        <time>2013-05-22T08:53:16Z</time>
      </trkpt>
      <trkpt lat="49.18328" lon="6.85131">
        <ele>208.9</ele>
        <time>2013-05-22T08:53:21Z</time>
      </trkpt>
      <trkpt lat="49.18331" lon="6.8514">
        <ele>209.4</ele>
        <time>2013-05-22T08:53:26Z</time>
      </trkpt>
      <trkpt lat="49.18334" lon="6.85149">
        <ele>209</ele>
        <time>2013-05-22T08:53:31Z</time>
      </trkpt>
      <trkpt lat="49.18337" lon="6.85159">
        <ele>208.2</ele>
        <time>2013-05-22T08:53:36Z</time>
      </trkpt>
      <trkpt lat="49.1834" lon="6.85171">
        <ele>208.3</ele>
        <time>2013-05-22T08:53:41Z</time>
      </trkpt>
      <trkpt lat="49.18342" lon="6.85181">
        <ele>208.7</ele>
        <time>2013-05-22T08:53:46Z</time>
      </trkpt>
      <trkpt lat="49.18342" lon="6.85183">
        <ele>208.3</ele>
        <time>2013-05-22T08:53:47Z</time>
      </trkpt>
      <trkpt lat="49.18347" lon="6.85199">
        <ele>208.8</ele>
        <time>2013-05-22T08:53:56Z</time>
      </trkpt>
      <trkpt lat="49.1835" lon="6.85209">
        <ele>208.4</ele>
        <time>2013-05-22T08:54:01Z</time>
      </trkpt>
      <trkpt lat="49.18353" lon="6.85216">
        <ele>208.3</ele>
        <time>2013-05-22T08:54:06Z</time>
      </trkpt>
      <trkpt lat="49.18356" lon="6.85224">
        <ele>208.3</ele>
        <time>2013-05-22T08:54:11Z</time>
      </trkpt>
      <trkpt lat="49.1836" lon="6.85233">
        <ele>208.9</ele>
        <time>2013-05-22T08:54:16Z</time>
      </trkpt>
      <trkpt lat="49.18363" lon="6.85242">
        <ele>208.4</ele>
        <time>2013-05-22T08:54:21Z</time>
      </trkpt>
      <trkpt lat="49.18366" lon="6.85252">
        <ele>208.5</ele>
        <time>2013-05-22T08:54:26Z</time>
      </trkpt>
      <trkpt lat="49.18369" lon="6.85263">
        <ele>207.5</ele>
        <time>2013-05-22T08:54:31Z</time>
      </trkpt>
      <trkpt lat="49.18371" lon="6.85273">
        <ele>208.4</ele>
        <time>2013-05-22T08:54:36Z</time>
      </trkpt>
      <trkpt lat="49.18374" lon="6.85283">
        <ele>207.3</ele>
        <time>2013-05-22T08:54:41Z</time>
      </trkpt>
      <trkpt lat="49.18377" lon="6.85294">
        <ele>207.7</ele>
        <time>2013-05-22T08:54:46Z</time>
      </trkpt>
      <trkpt lat="49.1838" lon="6.85304">
        <ele>207.4</ele>
        <time>2013-05-22T08:54:51Z</time>
      </trkpt>
      <trkpt lat="49.1838" lon="6.85306">
        <ele>207.2</ele>
        <time>2013-05-22T08:54:52Z</time>
      </trkpt>
      <trkpt lat="49.18384" lon="6.85325">
        <ele>207.8</ele>
        <time>2013-05-22T08:55:01Z</time>
      </trkpt>
      <trkpt lat="49.18386" lon="6.85337">
        <ele>207.2</ele>
        <time>2013-05-22T08:55:06Z</time>
      </trkpt>
      <trkpt lat="49.18388" lon="6.85347">
        <ele>206.6</ele>
        <time>2013-05-22T08:55:11Z</time>
      </trkpt>
      <trkpt lat="49.18391" lon="6.85358">
        <ele>206.6</ele>
        <time>2013-05-22T08:55:16Z</time>
      </trkpt>
      <trkpt lat="49.18393" lon="6.85368">
        <ele>206</ele>
        <time>2013-05-22T08:55:21Z</time>
      </trkpt>
      <trkpt lat="49.18396" lon="6.85378">
        <ele>206.6</ele>
        <time>2013-05-22T08:55:26Z</time>
      </trkpt>
      <trkpt lat="49.18399" lon="6.85388">
        <ele>206</ele>
        <time>2013-05-22T08:55:31Z</time>
      </trkpt>
      <trkpt lat="49.18403" lon="6.85397">
        <ele>206.1</ele>
        <time>2013-05-22T08:55:36Z</time>
      </trkpt>
      <trkpt lat="49.18405" lon="6.85405">
        <ele>206.9</ele>
        <time>2013-05-22T08:55:41Z</time>
      </trkpt>
      <trkpt lat="49.18408" lon="6.85414">
        <ele>206.2</ele>
        <time>2013-05-22T08:55:46Z</time>
      </trkpt>
      <trkpt lat="49.18412" lon="6.85422">
        <ele>205.8</ele>
        <time>2013-05-22T08:55:51Z</time>
      </trkpt>
      <trkpt lat="49.18416" lon="6.85428">
        <ele>205.6</ele>
        <time>2013-05-22T08:55:56Z</time>
      </trkpt>
      <trkpt lat="49.18416" lon="6.8543">
        <ele>205.5</ele>
        <time>2013-05-22T08:55:57Z</time>
      </trkpt>
      <trkpt lat="49.18425" lon="6.85443">
        <ele>205.5</ele>
        <time>2013-05-22T08:56:06Z</time>
      </trkpt>
      <trkpt lat="49.1843" lon="6.85449">
        <ele>206.2</ele>
        <time>2013-05-22T08:56:11Z</time>
      </trkpt>
      <trkpt lat="49.18435" lon="6.85456">
        <ele>206</ele>
        <time>2013-05-22T08:56:16Z</time>
      </trkpt>
      <trkpt lat="49.1844" lon="6.85463">
        <ele>205.2</ele>
        <time>2013-05-22T08:56:21Z</time>
      </trkpt>
      <trkpt lat="49.18445" lon="6.85469">
        <ele>206.3</ele>
        <time>2013-05-22T08:56:26Z</time>
      </trkpt>
      <trkpt lat="49.1845" lon="6.85476">
        <ele>206.9</ele>
        <time>2013-05-22T08:56:31Z</time>
      </trkpt>
      <trkpt lat="49.18455" lon="6.85482">
        <ele>206.4</ele>
        <time>2013-05-22T08:56:36Z</time>
      </trkpt>
      <trkpt lat="49.1846" lon="6.85489">
        <ele>207.1</ele>
        <time>2013-05-22T08:56:41Z</time>
      </trkpt>
      <trkpt lat="49.18464" lon="6.85495">
        <ele>206.9</ele>
        <time>2013-05-22T08:56:46Z</time>
      </trkpt>
      <trkpt lat="49.18469" lon="6.85501">
        <ele>207.7</ele>
        <time>2013-05-22T08:56:51Z</time>
      </trkpt>
      <trkpt lat="49.18474" lon="6.85508">
        <ele>207</ele>
        <time>2013-05-22T08:56:56Z</time>
      </trkpt>
      <trkpt lat="49.18479" lon="6.85514">
        <ele>206</ele>
        <time>2013-05-22T08:57:01Z</time>
      </trkpt>
      <trkpt lat="49.1848" lon="6.85516">
        <ele>205.9</ele>
        <time>2013-05-22T08:57:02Z</time>
      </trkpt>
      <trkpt lat="49.18486" lon="6.85529">
        <ele>205.8</ele>
        <time>2013-05-22T08:57:11Z</time>
      </trkpt>
      <trkpt lat="49.18484" lon="6.85539">
        <ele>205.2</ele>
        <time>2013-05-22T08:57:16Z</time>
      </trkpt>
      <trkpt lat="49.18481" lon="6.85548">
        <ele>204.4</ele>
        <time>2013-05-22T08:57:21Z</time>
      </trkpt>
      <trkpt lat="49.18478" lon="6.85557">
        <ele>204.2</ele>
        <time>2013-05-22T08:57:26Z</time>
      </trkpt>
      <trkpt lat="49.18475" lon="6.85566">
        <ele>203.9</ele>
        <time>2013-05-22T08:57:31Z</time>
      </trkpt>
      <trkpt lat="49.18475" lon="6.85566">
        <ele>203.9</ele>
        <time>2013-05-22T08:57:31Z</time>
      </trkpt>
      <trkpt lat="49.18471" lon="6.85575">
        <ele>203.5</ele>
        <time>2013-05-22T08:57:36Z</time>
      </trkpt>
      <trkpt lat="49.18467" lon="6.85585">
        <ele>203.3</ele>
        <time>2013-05-22T08:57:41Z</time>
      </trkpt>
      <trkpt lat="49.18464" lon="6.85593">
        <ele>202.8</ele>
        <time>2013-05-22T08:57:46Z</time>
      </trkpt>
      <trkpt lat="49.1846" lon="6.85602">
        <ele>203.3</ele>
        <time>2013-05-22T08:57:51Z</time>
      </trkpt>
      <trkpt lat="49.18456" lon="6.85611">
        <ele>203.8</ele>
        <time>2013-05-22T08:57:56Z</time>
      </trkpt>
      <trkpt lat="49.18453" lon="6.85618">
        <ele>203.7</ele>
        <time>2013-05-22T08:58:01Z</time>
      </trkpt>
      <trkpt lat="49.18452" lon="6.85628">
        <ele>203.3</ele>
        <time>2013-05-22T08:58:06Z</time>
      </trkpt>
      <trkpt lat="49.18452" lon="6.8563">
        <ele>203</ele>
        <time>2013-05-22T08:58:07Z</time>
      </trkpt>
      <trkpt lat="49.18453" lon="6.85648">
        <ele>203.6</ele>
        <time>2013-05-22T08:58:16Z</time>
      </trkpt>
      <trkpt lat="49.18454" lon="6.85658">
        <ele>203.5</ele>
        <time>2013-05-22T08:58:21Z</time>
      </trkpt>
      <trkpt lat="49.18456" lon="6.85669">
        <ele>203.6</ele>
        <time>2013-05-22T08:58:26Z</time>
      </trkpt>
      <trkpt lat="49.18457" lon="6.85679">
        <ele>203.1</ele>
        <time>2013-05-22T08:58:31Z</time>
      </trkpt>
      <trkpt lat="49.18459" lon="6.85689">
        <ele>203.6</ele>
        <time>2013-05-22T08:58:36Z</time>
      </trkpt>
      <trkpt lat="49.1846" lon="6.85695">
        <ele>202.9</ele>
        <time>2013-05-22T08:58:41Z</time>
      </trkpt>
      <trkpt lat="49.18461" lon="6.85701">
        <ele>203.4</ele>
        <time>2013-05-22T08:58:46Z</time>
      </trkpt>
      <trkpt lat="49.18463" lon="6.85711">
        <ele>203.4</ele>
        <time>2013-05-22T08:58:51Z</time>
      </trkpt>
      <trkpt lat="49.18465" lon="6.85721">
        <ele>203.2</ele>
        <time>2013-05-22T08:58:56Z</time>
      </trkpt>
      <trkpt lat="49.18467" lon="6.85731">
        <ele>203</ele>
        <time>2013-05-22T08:59:01Z</time>
      </trkpt>
      <trkpt lat="49.18469" lon="6.8574">
        <ele>202.6</ele>
        <time>2013-05-22T08:59:06Z</time>
      </trkpt>
      <trkpt lat="49.18473" lon="6.85749">
        <ele>203.4</ele>
        <time>2013-05-22T08:59:11Z</time>
      </trkpt>
      <trkpt lat="49.18473" lon="6.85751">
        <ele>203</ele>
        <time>2013-05-22T08:59:12Z</time>
      </trkpt>
      <trkpt lat="49.18481" lon="6.85765">
        <ele>202.3</ele>
        <time>2013-05-22T08:59:21Z</time>
      </trkpt>
      <trkpt lat="49.18485" lon="6.85773">
        <ele>202.7</ele>
        <time>2013-05-22T08:59:26Z</time>
      </trkpt>
      <trkpt lat="49.18489" lon="6.85782">
        <ele>202.5</ele>
        <time>2013-05-22T08:59:31Z</time>
      </trkpt>
      <trkpt lat="49.18494" lon="6.85791">
        <ele>203.3</ele>
        <time>2013-05-22T08:59:36Z</time>
      </trkpt>
      <trkpt lat="49.18498" lon="6.85798">
        <ele>202.8</ele>
        <time>2013-05-22T08:59:41Z</time>
      </trkpt>
      <trkpt lat="49.18503" lon="6.85807">
        <ele>203.2</ele>
        <time>2013-05-22T08:59:46Z</time>
      </trkpt>
      <trkpt lat="49.18508" lon="6.85816">
        <ele>203</ele>
        <time>2013-05-22T08:59:51Z</time>
      </trkpt>
      <trkpt lat="49.18513" lon="6.85824">
        <ele>203.1</ele>
        <time>2013-05-22T08:59:56Z</time>
      </trkpt>
      <trkpt lat="49.1852" lon="6.85828">
        <ele>202.4</ele>
        <time>2013-05-22T09:00:01Z</time>
      </trkpt>
      <trkpt lat="49.1852" lon="6.85828">
        <ele>202.4</ele>
        <time>2013-05-22T09:00:01Z</time>
      </trkpt>
      <trkpt lat="49.18528" lon="6.85828">
        <ele>203.1</ele>
        <time>2013-05-22T09:00:06Z</time>
      </trkpt>
      <trkpt lat="49.18535" lon="6.85831">
        <ele>202.3</ele>
        <time>2013-05-22T09:00:11Z</time>
      </trkpt>
      <trkpt lat="49.18542" lon="6.85835">
        <ele>202.5</ele>
        <time>2013-05-22T09:00:16Z</time>
      </trkpt>
      <trkpt lat="49.18543" lon="6.85836">
        <ele>202.6</ele>
        <time>2013-05-22T09:00:17Z</time>
      </trkpt>
      <trkpt lat="49.18556" lon="6.85842">
        <ele>202.7</ele>
        <time>2013-05-22T09:00:26Z</time>
      </trkpt>
      <trkpt lat="49.18564" lon="6.85845">
        <ele>202.3</ele>
        <time>2013-05-22T09:00:31Z</time>
      </trkpt>
      <trkpt lat="49.18571" lon="6.85846">
        <ele>202.3</ele>
        <time>2013-05-22T09:00:36Z</time>
      </trkpt>
      <trkpt lat="49.18579" lon="6.85848">
        <ele>202.1</ele>
        <time>2013-05-22T09:00:41Z</time>
      </trkpt>
      <trkpt lat="49.18586" lon="6.85851">
        <ele>202.2</ele>
        <time>2013-05-22T09:00:46Z</time>
      </trkpt>
      <trkpt lat="49.18593" lon="6.85852">
        <ele>202</ele>
        <time>2013-05-22T09:00:51Z</time>
      </trkpt>
      <trkpt lat="49.18599" lon="6.85854">
        <ele>202.2</ele>
        <time>2013-05-22T09:00:56Z</time>
      </trkpt>
      <trkpt lat="49.18606" lon="6.85855">
        <ele>202.4</ele>
        <time>2013-05-22T09:01:01Z</time>
      </trkpt>
      <trkpt lat="49.18612" lon="6.85855">
        <ele>202.4</ele>
        <time>2013-05-22T09:01:06Z</time>
      </trkpt>
      <trkpt lat="49.18619" lon="6.85854">
        <ele>202.5</ele>
        <time>2013-05-22T09:01:11Z</time>
      </trkpt>
      <trkpt lat="49.18625" lon="6.85852">
        <ele>203.5</ele>
        <time>2013-05-22T09:01:16Z</time>
      </trkpt>
      <trkpt lat="49.18658" lon="6.85821">
        <ele>201.8</ele>
        <time>2013-05-22T09:01:56Z</time>
      </trkpt>
      <trkpt lat="49.18663" lon="6.85826">
        <ele>202.4</ele>
        <time>2013-05-22T09:02:01Z</time>
      </trkpt>
      <trkpt lat="49.18667" lon="6.85833">
        <ele>202.5</ele>
        <time>2013-05-22T09:02:06Z</time>
      </trkpt>
      <trkpt lat="49.18673" lon="6.85841">
        <ele>201.3</ele>
        <time>2013-05-22T09:02:11Z</time>
      </trkpt>
      <trkpt lat="49.18678" lon="6.85848">
        <ele>201.7</ele>
        <time>2013-05-22T09:02:16Z</time>
      </trkpt>
      <trkpt lat="49.18683" lon="6.85855">
        <ele>201.5</ele>
        <time>2013-05-22T09:02:21Z</time>
      </trkpt>
      <trkpt lat="49.18688" lon="6.85862">
        <ele>202</ele>
        <time>2013-05-22T09:02:26Z</time>
      </trkpt>
      <trkpt lat="49.18688" lon="6.85863">
        <ele>201.9</ele>
        <time>2013-05-22T09:02:27Z</time>
      </trkpt>
      <trkpt lat="49.18697" lon="6.85874">
        <ele>202.1</ele>
        <time>2013-05-22T09:02:36Z</time>
      </trkpt>
      <trkpt lat="49.18701" lon="6.85882">
        <ele>201.7</ele>
        <time>2013-05-22T09:02:41Z</time>
      </trkpt>
      <trkpt lat="49.18705" lon="6.85889">
        <ele>202.1</ele>
        <time>2013-05-22T09:02:46Z</time>
      </trkpt>
      <trkpt lat="49.18709" lon="6.85896">
        <ele>202.5</ele>
        <time>2013-05-22T09:02:51Z</time>
      </trkpt>
      <trkpt lat="49.18713" lon="6.85903">
        <ele>203</ele>
        <time>2013-05-22T09:02:56Z</time>
      </trkpt>
      <trkpt lat="49.18717" lon="6.8591">
        <ele>203.4</ele>
        <time>2013-05-22T09:03:01Z</time>
      </trkpt>
      <trkpt lat="49.18721" lon="6.85917">
        <ele>203.3</ele>
        <time>2013-05-22T09:03:06Z</time>
      </trkpt>
      <trkpt lat="49.18726" lon="6.85925">
        <ele>204</ele>
        <time>2013-05-22T09:03:11Z</time>
      </trkpt>
      <trkpt lat="49.18729" lon="6.85933">
        <ele>203.6</ele>
        <time>2013-05-22T09:03:16Z</time>
      </trkpt>
      <trkpt lat="49.18728" lon="6.85943">
        <ele>203.6</ele>
        <time>2013-05-22T09:03:21Z</time>
      </trkpt>
      <trkpt lat="49.18728" lon="6.85951">
        <ele>204.5</ele>
        <time>2013-05-22T09:03:26Z</time>
      </trkpt>
      <trkpt lat="49.18727" lon="6.8596">
        <ele>204.1</ele>
        <time>2013-05-22T09:03:31Z</time>
      </trkpt>
      <trkpt lat="49.18727" lon="6.8596">
        <ele>204.1</ele>
        <time>2013-05-22T09:03:31Z</time>
      </trkpt>
      <trkpt lat="49.18726" lon="6.85961">
        <ele>204.2</ele>
        <time>2013-05-22T09:03:32Z</time>
      </trkpt>
      <trkpt lat="49.18718" lon="6.85975">
        <ele>204.4</ele>
        <time>2013-05-22T09:03:41Z</time>
      </trkpt>
      <trkpt lat="49.18713" lon="6.85981">
        <ele>204.4</ele>
        <time>2013-05-22T09:03:46Z</time>
      </trkpt>
      <trkpt lat="49.18707" lon="6.85987">
        <ele>204</ele>
        <time>2013-05-22T09:03:51Z</time>
      </trkpt>
      <trkpt lat="49.18702" lon="6.85994">
        <ele>204.4</ele>
        <time>2013-05-22T09:03:56Z</time>
      </trkpt>
      <trkpt lat="49.18697" lon="6.86">
        <ele>203.9</ele>
        <time>2013-05-22T09:04:01Z</time>
      </trkpt>
      <trkpt lat="49.18691" lon="6.86005">
        <ele>203</ele>
        <time>2013-05-22T09:04:06Z</time>
      </trkpt>
      <trkpt lat="49.18686" lon="6.86012">
        <ele>203.2</ele>
        <time>2013-05-22T09:04:11Z</time>
      </trkpt>
      <trkpt lat="49.1868" lon="6.86018">
        <ele>203.5</ele>
        <time>2013-05-22T09:04:16Z</time>
      </trkpt>
      <trkpt lat="49.18673" lon="6.86024">
        <ele>203</ele>
        <time>2013-05-22T09:04:21Z</time>
      </trkpt>
      <trkpt lat="49.18668" lon="6.8603">
        <ele>203.8</ele>
        <time>2013-05-22T09:04:26Z</time>
      </trkpt>
      <trkpt lat="49.18662" lon="6.86036">
        <ele>204</ele>
        <time>2013-05-22T09:04:31Z</time>
      </trkpt>
      <trkpt lat="49.18657" lon="6.86042">
        <ele>202.9</ele>
        <time>2013-05-22T09:04:36Z</time>
      </trkpt>
      <trkpt lat="49.18656" lon="6.86043">
        <ele>203</ele>
        <time>2013-05-22T09:04:37Z</time>
      </trkpt>
      <trkpt lat="49.18645" lon="6.86056">
        <ele>203.6</ele>
        <time>2013-05-22T09:04:46Z</time>
      </trkpt>
      <trkpt lat="49.18639" lon="6.86062">
        <ele>202.4</ele>
        <time>2013-05-22T09:04:51Z</time>
      </trkpt>
      <trkpt lat="49.18633" lon="6.86068">
        <ele>202.6</ele>
        <time>2013-05-22T09:04:56Z</time>
      </trkpt>
      <trkpt lat="49.18628" lon="6.86075">
        <ele>203.6</ele>
        <time>2013-05-22T09:05:01Z</time>
      </trkpt>
      <trkpt lat="49.18622" lon="6.86081">
        <ele>203.4</ele>
        <time>2013-05-22T09:05:06Z</time>
      </trkpt>
      <trkpt lat="49.18617" lon="6.86087">
        <ele>204.2</ele>
        <time>2013-05-22T09:05:11Z</time>
      </trkpt>
      <trkpt lat="49.18612" lon="6.86093">
        <ele>203.5</ele>
        <time>2013-05-22T09:05:16Z</time>
      </trkpt>
      <trkpt lat="49.18607" lon="6.86099">
        <ele>203.1</ele>
        <time>2013-05-22T09:05:21Z</time>
      </trkpt>
      <trkpt lat="49.18601" lon="6.86105">
        <ele>202.4</ele>
        <time>2013-05-22T09:05:26Z</time>
      </trkpt>
      <trkpt lat="49.18595" lon="6.8611">
        <ele>202.5</ele>
        <time>2013-05-22T09:05:31Z</time>
      </trkpt>
      <trkpt lat="49.1859" lon="6.86115">
        <ele>202.8</ele>
        <time>2013-05-22T09:05:36Z</time>
      </trkpt>
      <trkpt lat="49.18585" lon="6.86121">
        <ele>202.6</ele>
        <time>2013-05-22T09:05:41Z</time>
      </trkpt>
      <trkpt lat="49.18584" lon="6.86122">
        <ele>202.4</ele>
        <time>2013-05-22T09:05:42Z</time>
      </trkpt>
      <trkpt lat="49.18575" lon="6.86136">
        <ele>202.9</ele>
        <time>2013-05-22T09:05:51Z</time>
      </trkpt>
      <trkpt lat="49.18571" lon="6.86145">
        <ele>202.6</ele>
        <time>2013-05-22T09:05:56Z</time>
      </trkpt>
      <trkpt lat="49.18567" lon="6.86155">
        <ele>202.5</ele>
        <time>2013-05-22T09:06:01Z</time>
      </trkpt>
      <trkpt lat="49.18564" lon="6.86165">
        <ele>203</ele>
        <time>2013-05-22T09:06:06Z</time>
      </trkpt>
      <trkpt lat="49.18563" lon="6.86175">
        <ele>203.5</ele>
        <time>2013-05-22T09:06:11Z</time>
      </trkpt>
      <trkpt lat="49.18562" lon="6.86185">
        <ele>204</ele>
        <time>2013-05-22T09:06:16Z</time>
      </trkpt>
      <trkpt lat="49.18563" lon="6.86195">
        <ele>204.4</ele>
        <time>2013-05-22T09:06:21Z</time>
      </trkpt>
      <trkpt lat="49.18564" lon="6.86205">
        <ele>204.7</ele>
        <time>2013-05-22T09:06:26Z</time>
      </trkpt>
      <trkpt lat="49.18564" lon="6.86205">
        <ele>204.7</ele>
        <time>2013-05-22T09:06:26Z</time>
      </trkpt>
      <trkpt lat="49.18566" lon="6.86215">
        <ele>204.4</ele>
        <time>2013-05-22T09:06:31Z</time>
      </trkpt>
      <trkpt lat="49.18567" lon="6.86223">
        <ele>204.3</ele>
        <time>2013-05-22T09:06:36Z</time>
      </trkpt>
      <trkpt lat="49.18567" lon="6.86232">
        <ele>203.9</ele>
        <time>2013-05-22T09:06:41Z</time>
      </trkpt>
      <trkpt lat="49.18568" lon="6.86243">
        <ele>204.3</ele>
        <time>2013-05-22T09:06:46Z</time>
      </trkpt>
      <trkpt lat="49.18569" lon="6.86244">
        <ele>204.4</ele>
        <time>2013-05-22T09:06:47Z</time>
      </trkpt>
      <trkpt lat="49.18569" lon="6.86264">
        <ele>205.1</ele>
        <time>2013-05-22T09:06:56Z</time>
      </trkpt>
      <trkpt lat="49.18569" lon="6.86276">
        <ele>205.1</ele>
        <time>2013-05-22T09:07:01Z</time>
      </trkpt>
      <trkpt lat="49.18568" lon="6.86288">
        <ele>204.5</ele>
        <time>2013-05-22T09:07:06Z</time>
      </trkpt>
      <trkpt lat="49.18566" lon="6.86299">
        <ele>205.3</ele>
        <time>2013-05-22T09:07:11Z</time>
      </trkpt>
      <trkpt lat="49.18564" lon="6.8631">
        <ele>204.9</ele>
        <time>2013-05-22T09:07:16Z</time>
      </trkpt>
      <trkpt lat="49.18561" lon="6.86319">
        <ele>205.4</ele>
        <time>2013-05-22T09:07:21Z</time>
      </trkpt>
      <trkpt lat="49.18557" lon="6.86328">
        <ele>205</ele>
        <time>2013-05-22T09:07:26Z</time>
      </trkpt>
      <trkpt lat="49.18552" lon="6.86334">
        <ele>205.3</ele>
        <time>2013-05-22T09:07:31Z</time>
      </trkpt>
      <trkpt lat="49.18548" lon="6.86341">
        <ele>204.8</ele>
        <time>2013-05-22T09:07:36Z</time>
      </trkpt>
      <trkpt lat="49.18543" lon="6.86349">
        <ele>204.9</ele>
        <time>2013-05-22T09:07:41Z</time>
      </trkpt>
      <trkpt lat="49.18537" lon="6.86355">
        <ele>204.6</ele>
        <time>2013-05-22T09:07:46Z</time>
      </trkpt>
      <trkpt lat="49.18532" lon="6.8636">
        <ele>205.4</ele>
        <time>2013-05-22T09:07:51Z</time>
      </trkpt>
      <trkpt lat="49.18531" lon="6.86361">
        <ele>205.1</ele>
        <time>2013-05-22T09:07:52Z</time>
      </trkpt>
      <trkpt lat="49.18519" lon="6.86369">
        <ele>205.3</ele>
        <time>2013-05-22T09:08:01Z</time>
      </trkpt>
      <trkpt lat="49.18514" lon="6.86373">
        <ele>205.6</ele>
        <time>2013-05-22T09:08:06Z</time>
      </trkpt>
      <trkpt lat="49.18508" lon="6.86378">
        <ele>205.3</ele>
        <time>2013-05-22T09:08:11Z</time>
      </trkpt>
      <trkpt lat="49.18503" lon="6.86382">
        <ele>206.1</ele>
        <time>2013-05-22T09:08:16Z</time>
      </trkpt>
      <trkpt lat="49.18497" lon="6.86387">
        <ele>205.3</ele>
        <time>2013-05-22T09:08:21Z</time>
      </trkpt>
      <trkpt lat="49.18491" lon="6.86392">
        <ele>205.3</ele>
        <time>2013-05-22T09:08:26Z</time>
      </trkpt>
      <trkpt lat="49.18485" lon="6.86398">
        <ele>204.7</ele>
        <time>2013-05-22T09:08:31Z</time>
      </trkpt>
      <trkpt lat="49.18479" lon="6.86402">
        <ele>204.2</ele>
        <time>2013-05-22T09:08:36Z</time>
      </trkpt>
      <trkpt lat="49.18474" lon="6.86408">
        <ele>204.6</ele>
        <time>2013-05-22T09:08:41Z</time>
      </trkpt>
      <trkpt lat="49.18467" lon="6.86412">
        <ele>204.6</ele>
        <time>2013-05-22T09:08:46Z</time>
      </trkpt>
      <trkpt lat="49.1846" lon="6.86415">
        <ele>204.2</ele>
        <time>2013-05-22T09:08:51Z</time>
      </trkpt>
      <trkpt lat="49.18453" lon="6.86418">
        <ele>204.1</ele>
        <time>2013-05-22T09:08:56Z</time>
      </trkpt>
      <trkpt lat="49.18452" lon="6.86419">
        <ele>204.1</ele>
        <time>2013-05-22T09:08:57Z</time>
      </trkpt>
      <trkpt lat="49.18439" lon="6.86422">
        <ele>203.7</ele>
        <time>2013-05-22T09:09:06Z</time>
      </trkpt>
      <trkpt lat="49.18433" lon="6.86423">
        <ele>204.4</ele>
        <time>2013-05-22T09:09:11Z</time>
      </trkpt>
      <trkpt lat="49.18426" lon="6.86425">
        <ele>204.9</ele>
        <time>2013-05-22T09:09:16Z</time>
      </trkpt>
      <trkpt lat="49.18419" lon="6.86427">
        <ele>205.5</ele>
        <time>2013-05-22T09:09:21Z</time>
      </trkpt>
      <trkpt lat="49.18412" lon="6.8643">
        <ele>205.2</ele>
        <time>2013-05-22T09:09:26Z</time>
      </trkpt>
      <trkpt lat="49.18406" lon="6.86434">
        <ele>204.8</ele>
        <time>2013-05-22T09:09:31Z</time>
      </trkpt>
      <trkpt lat="49.18401" lon="6.86436">
        <ele>204.2</ele>
        <time>2013-05-22T09:09:36Z</time>
      </trkpt>
      <trkpt lat="49.18396" lon="6.8644">
        <ele>203.4</ele>
        <time>2013-05-22T09:09:41Z</time>
      </trkpt>
      <trkpt lat="49.18392" lon="6.86442">
        <ele>203.8</ele>
        <time>2013-05-22T09:09:46Z</time>
      </trkpt>
      <trkpt lat="49.18387" lon="6.86444">
        <ele>204.1</ele>
        <time>2013-05-22T09:09:51Z</time>
      </trkpt>
      <trkpt lat="49.18381" lon="6.86445">
        <ele>204.2</ele>
        <time>2013-05-22T09:09:56Z</time>
      </trkpt>
      <trkpt lat="49.18375" lon="6.86449">
        <ele>204.7</ele>
        <time>2013-05-22T09:10:01Z</time>
      </trkpt>
      <trkpt lat="49.18374" lon="6.8645">
        <ele>204.8</ele>
        <time>2013-05-22T09:10:02Z</time>
      </trkpt>
      <trkpt lat="49.18364" lon="6.86458">
        <ele>205.1</ele>
        <time>2013-05-22T09:10:11Z</time>
      </trkpt>
      <trkpt lat="49.18358" lon="6.8646">
        <ele>205</ele>
        <time>2013-05-22T09:10:16Z</time>
      </trkpt>
      <trkpt lat="49.18353" lon="6.86463">
        <ele>204.7</ele>
        <time>2013-05-22T09:10:21Z</time>
      </trkpt>
      <trkpt lat="49.18347" lon="6.86466">
        <ele>205.2</ele>
        <time>2013-05-22T09:10:26Z</time>
      </trkpt>
      <trkpt lat="49.1834" lon="6.86469">
        <ele>205</ele>
        <time>2013-05-22T09:10:31Z</time>
      </trkpt>
      <trkpt lat="49.18333" lon="6.86471">
        <ele>205.8</ele>
        <time>2013-05-22T09:10:36Z</time>
      </trkpt>
      <trkpt lat="49.18327" lon="6.86471">
        <ele>205.1</ele>
        <time>2013-05-22T09:10:41Z</time>
      </trkpt>
      <trkpt lat="49.18322" lon="6.8647">
        <ele>204.9</ele>
        <time>2013-05-22T09:10:46Z</time>
      </trkpt>
      <trkpt lat="49.18317" lon="6.86471">
        <ele>204.7</ele>
        <time>2013-05-22T09:10:51Z</time>
      </trkpt>
      <trkpt lat="49.18311" lon="6.8647">
        <ele>205.1</ele>
        <time>2013-05-22T09:10:56Z</time>
      </trkpt>
      <trkpt lat="49.18303" lon="6.86469">
        <ele>205</ele>
        <time>2013-05-22T09:11:01Z</time>
      </trkpt>
      <trkpt lat="49.18295" lon="6.86468">
        <ele>205</ele>
        <time>2013-05-22T09:11:06Z</time>
      </trkpt>
      <trkpt lat="49.18293" lon="6.86468">
        <ele>205.1</ele>
        <time>2013-05-22T09:11:07Z</time>
      </trkpt>
      <trkpt lat="49.18281" lon="6.86468">
        <ele>205.2</ele>
        <time>2013-05-22T09:11:16Z</time>
      </trkpt>
      <trkpt lat="49.18275" lon="6.86467">
        <ele>204.9</ele>
        <time>2013-05-22T09:11:21Z</time>
      </trkpt>
      <trkpt lat="49.18269" lon="6.86466">
        <ele>205.1</ele>
        <time>2013-05-22T09:11:26Z</time>
      </trkpt>
      <trkpt lat="49.18263" lon="6.86466">
        <ele>204.7</ele>
        <time>2013-05-22T09:11:31Z</time>
      </trkpt>
      <trkpt lat="49.18257" lon="6.86464">
        <ele>204.5</ele>
        <time>2013-05-22T09:11:36Z</time>
      </trkpt>
      <trkpt lat="49.1825" lon="6.86463">
        <ele>205.1</ele>
        <time>2013-05-22T09:11:41Z</time>
      </trkpt>
      <trkpt lat="49.18243" lon="6.86461">
        <ele>204.2</ele>
        <time>2013-05-22T09:11:46Z</time>
      </trkpt>
      <trkpt lat="49.18235" lon="6.86459">
        <ele>204.6</ele>
        <time>2013-05-22T09:11:51Z</time>
      </trkpt>
      <trkpt lat="49.18229" lon="6.86458">
        <ele>204.9</ele>
        <time>2013-05-22T09:11:56Z</time>
      </trkpt>
      <trkpt lat="49.18221" lon="6.86456">
        <ele>205.3</ele>
        <time>2013-05-22T09:12:01Z</time>
      </trkpt>
      <trkpt lat="49.18213" lon="6.86454">
        <ele>205.7</ele>
        <time>2013-05-22T09:12:06Z</time>
      </trkpt>
      <trkpt lat="49.18204" lon="6.86451">
        <ele>206.3</ele>
        <time>2013-05-22T09:12:11Z</time>
      </trkpt>
      <trkpt lat="49.18203" lon="6.86451">
        <ele>206.4</ele>
        <time>2013-05-22T09:12:12Z</time>
      </trkpt>
      <trkpt lat="49.18189" lon="6.86451">
        <ele>205.6</ele>
        <time>2013-05-22T09:12:21Z</time>
      </trkpt>
      <trkpt lat="49.18182" lon="6.86452">
        <ele>206.8</ele>
        <time>2013-05-22T09:12:26Z</time>
      </trkpt>
      <trkpt lat="49.18175" lon="6.86453">
        <ele>207.8</ele>
        <time>2013-05-22T09:12:31Z</time>
      </trkpt>
      <trkpt lat="49.18169" lon="6.86455">
        <ele>207.9</ele>
        <time>2013-05-22T09:12:36Z</time>
      </trkpt>
      <trkpt lat="49.18163" lon="6.86456">
        <ele>208.4</ele>
        <time>2013-05-22T09:12:41Z</time>
      </trkpt>
      <trkpt lat="49.18156" lon="6.86456">
        <ele>209.3</ele>
        <time>2013-05-22T09:12:46Z</time>
      </trkpt>
      <trkpt lat="49.18149" lon="6.86455">
        <ele>210.4</ele>
        <time>2013-05-22T09:12:51Z</time>
      </trkpt>
      <trkpt lat="49.18142" lon="6.86455">
        <ele>211.3</ele>
        <time>2013-05-22T09:12:56Z</time>
      </trkpt>
      <trkpt lat="49.18135" lon="6.86455">
        <ele>211.7</ele>
        <time>2013-05-22T09:13:01Z</time>
      </trkpt>
      <trkpt lat="49.18128" lon="6.86455">
        <ele>211.3</ele>
        <time>2013-05-22T09:13:06Z</time>
      </trkpt>
      <trkpt lat="49.18121" lon="6.86453">
        <ele>212.6</ele>
        <time>2013-05-22T09:13:11Z</time>
      </trkpt>
      <trkpt lat="49.18114" lon="6.86451">
        <ele>212.6</ele>
        <time>2013-05-22T09:13:16Z</time>
      </trkpt>
      <trkpt lat="49.18113" lon="6.8645">
        <ele>212.4</ele>
        <time>2013-05-22T09:13:17Z</time>
      </trkpt>
      <trkpt lat="49.18102" lon="6.86445">
        <ele>211.6</ele>
        <time>2013-05-22T09:13:26Z</time>
      </trkpt>
      <trkpt lat="49.18096" lon="6.86443">
        <ele>211.6</ele>
        <time>2013-05-22T09:13:31Z</time>
      </trkpt>
      <trkpt lat="49.18091" lon="6.8644">
        <ele>211.2</ele>
        <time>2013-05-22T09:13:36Z</time>
      </trkpt>
      <trkpt lat="49.18085" lon="6.86435">
        <ele>211.7</ele>
        <time>2013-05-22T09:13:41Z</time>
      </trkpt>
      <trkpt lat="49.18079" lon="6.86429">
        <ele>210.3</ele>
        <time>2013-05-22T09:13:46Z</time>
      </trkpt>
      <trkpt lat="49.18072" lon="6.86423">
        <ele>211.4</ele>
        <time>2013-05-22T09:13:51Z</time>
      </trkpt>
      <trkpt lat="49.18066" lon="6.86417">
        <ele>211.9</ele>
        <time>2013-05-22T09:13:56Z</time>
      </trkpt>
      <trkpt lat="49.18059" lon="6.86413">
        <ele>211.5</ele>
        <time>2013-05-22T09:14:01Z</time>
      </trkpt>
      <trkpt lat="49.18053" lon="6.86411">
        <ele>211.2</ele>
        <time>2013-05-22T09:14:06Z</time>
      </trkpt>
      <trkpt lat="49.18046" lon="6.86408">
        <ele>211.2</ele>
        <time>2013-05-22T09:14:11Z</time>
      </trkpt>
      <trkpt lat="49.18039" lon="6.86405">
        <ele>211.3</ele>
        <time>2013-05-22T09:14:16Z</time>
      </trkpt>
      <trkpt lat="49.18033" lon="6.86401">
        <ele>211.2</ele>
        <time>2013-05-22T09:14:21Z</time>
      </trkpt>
      <trkpt lat="49.18031" lon="6.86401">
        <ele>211.1</ele>
        <time>2013-05-22T09:14:22Z</time>
      </trkpt>
      <trkpt lat="49.18018" lon="6.86393">
        <ele>211.8</ele>
        <time>2013-05-22T09:14:31Z</time>
      </trkpt>
      <trkpt lat="49.18012" lon="6.8639">
        <ele>212.5</ele>
        <time>2013-05-22T09:14:36Z</time>
      </trkpt>
      <trkpt lat="49.18005" lon="6.86387">
        <ele>212</ele>
        <time>2013-05-22T09:14:41Z</time>
      </trkpt>
      <trkpt lat="49.17998" lon="6.86384">
        <ele>211.5</ele>
        <time>2013-05-22T09:14:46Z</time>
      </trkpt>
      <trkpt lat="49.17992" lon="6.86381">
        <ele>211</ele>
        <time>2013-05-22T09:14:51Z</time>
      </trkpt>
      <trkpt lat="49.17985" lon="6.86378">
        <ele>211.8</ele>
        <time>2013-05-22T09:14:56Z</time>
      </trkpt>
      <trkpt lat="49.17978" lon="6.86375">
        <ele>211.3</ele>
        <time>2013-05-22T09:15:01Z</time>
      </trkpt>
      <trkpt lat="49.17971" lon="6.86372">
        <ele>211.9</ele>
        <time>2013-05-22T09:15:06Z</time>
      </trkpt>
      <trkpt lat="49.17964" lon="6.8637">
        <ele>211.9</ele>
        <time>2013-05-22T09:15:11Z</time>
      </trkpt>
      <trkpt lat="49.17957" lon="6.86368">
        <ele>211.2</ele>
        <time>2013-05-22T09:15:16Z</time>
      </trkpt>
      <trkpt lat="49.17951" lon="6.86367">
        <ele>211.7</ele>
        <time>2013-05-22T09:15:21Z</time>
      </trkpt>
      <trkpt lat="49.17944" lon="6.86365">
        <ele>211.8</ele>
        <time>2013-05-22T09:15:26Z</time>
      </trkpt>
      <trkpt lat="49.17943" lon="6.86365">
        <ele>211.8</ele>
        <time>2013-05-22T09:15:27Z</time>
      </trkpt>
      <trkpt lat="49.17932" lon="6.86364">
        <ele>211.4</ele>
        <time>2013-05-22T09:15:36Z</time>
      </trkpt>
      <trkpt lat="49.17925" lon="6.86362">
        <ele>211.6</ele>
        <time>2013-05-22T09:15:41Z</time>
      </trkpt>
      <trkpt lat="49.17919" lon="6.86361">
        <ele>210.9</ele>
        <time>2013-05-22T09:15:46Z</time>
      </trkpt>
      <trkpt lat="49.17912" lon="6.86358">
        <ele>211.5</ele>
        <time>2013-05-22T09:15:51Z</time>
      </trkpt>
      <trkpt lat="49.17906" lon="6.86355">
        <ele>211.5</ele>
        <time>2013-05-22T09:15:56Z</time>
      </trkpt>
      <trkpt lat="49.17899" lon="6.8635">
        <ele>211.4</ele>
        <time>2013-05-22T09:16:01Z</time>
      </trkpt>
      <trkpt lat="49.17893" lon="6.86346">
        <ele>211.8</ele>
        <time>2013-05-22T09:16:06Z</time>
      </trkpt>
      <trkpt lat="49.17886" lon="6.86342">
        <ele>211.3</ele>
        <time>2013-05-22T09:16:11Z</time>
      </trkpt>
      <trkpt lat="49.17879" lon="6.86339">
        <ele>211.5</ele>
        <time>2013-05-22T09:16:16Z</time>
      </trkpt>
      <trkpt lat="49.17873" lon="6.86339">
        <ele>211.5</ele>
        <time>2013-05-22T09:16:21Z</time>
      </trkpt>
      <trkpt lat="49.17867" lon="6.86339">
        <ele>211.4</ele>
        <time>2013-05-22T09:16:26Z</time>
      </trkpt>
      <trkpt lat="49.17861" lon="6.86338">
        <ele>211.3</ele>
        <time>2013-05-22T09:16:31Z</time>
      </trkpt>
      <trkpt lat="49.1786" lon="6.86337">
        <ele>211.3</ele>
        <time>2013-05-22T09:16:32Z</time>
      </trkpt>
      <trkpt lat="49.17849" lon="6.86336">
        <ele>212</ele>
        <time>2013-05-22T09:16:41Z</time>
      </trkpt>
      <trkpt lat="49.17843" lon="6.86337">
        <ele>212</ele>
        <time>2013-05-22T09:16:46Z</time>
      </trkpt>
      <trkpt lat="49.17836" lon="6.86335">
        <ele>212.1</ele>
        <time>2013-05-22T09:16:51Z</time>
      </trkpt>
      <trkpt lat="49.17829" lon="6.86334">
        <ele>212.3</ele>
        <time>2013-05-22T09:16:56Z</time>
      </trkpt>
      <trkpt lat="49.17822" lon="6.86333">
        <ele>212.8</ele>
        <time>2013-05-22T09:17:01Z</time>
      </trkpt>
      <trkpt lat="49.17816" lon="6.8633">
        <ele>212</ele>
        <time>2013-05-22T09:17:06Z</time>
      </trkpt>
      <trkpt lat="49.1781" lon="6.86327">
        <ele>211</ele>
        <time>2013-05-22T09:17:11Z</time>
      </trkpt>
      <trkpt lat="49.17804" lon="6.86323">
        <ele>211.2</ele>
        <time>2013-05-22T09:17:16Z</time>
      </trkpt>
      <trkpt lat="49.17798" lon="6.86319">
        <ele>211.1</ele>
        <time>2013-05-22T09:17:21Z</time>
      </trkpt>
      <trkpt lat="49.17791" lon="6.86314">
        <ele>211.5</ele>
        <time>2013-05-22T09:17:26Z</time>
      </trkpt>
      <trkpt lat="49.17786" lon="6.86311">
        <ele>211.4</ele>
        <time>2013-05-22T09:17:31Z</time>
      </trkpt>
      <trkpt lat="49.17779" lon="6.86305">
        <ele>211.3</ele>
        <time>2013-05-22T09:17:36Z</time>
      </trkpt>
      <trkpt lat="49.17778" lon="6.86305">
        <ele>211.3</ele>
        <time>2013-05-22T09:17:37Z</time>
      </trkpt>
      <trkpt lat="49.17767" lon="6.86295">
        <ele>212</ele>
        <time>2013-05-22T09:17:46Z</time>
      </trkpt>
      <trkpt lat="49.17761" lon="6.86288">
        <ele>212.4</ele>
        <time>2013-05-22T09:17:51Z</time>
      </trkpt>
      <trkpt lat="49.17756" lon="6.86282">
        <ele>212</ele>
        <time>2013-05-22T09:17:56Z</time>
      </trkpt>
      <trkpt lat="49.17756" lon="6.86282">
        <ele>212</ele>
        <time>2013-05-22T09:17:56Z</time>
      </trkpt>
      <trkpt lat="49.17751" lon="6.86273">
        <ele>212</ele>
        <time>2013-05-22T09:18:01Z</time>
      </trkpt>
      <trkpt lat="49.17748" lon="6.86263">
        <ele>211.7</ele>
        <time>2013-05-22T09:18:06Z</time>
      </trkpt>
      <trkpt lat="49.17746" lon="6.86252">
        <ele>211.3</ele>
        <time>2013-05-22T09:18:11Z</time>
      </trkpt>
      <trkpt lat="49.17745" lon="6.86241">
        <ele>210.7</ele>
        <time>2013-05-22T09:18:16Z</time>
      </trkpt>
      <trkpt lat="49.17743" lon="6.86231">
        <ele>211</ele>
        <time>2013-05-22T09:18:21Z</time>
      </trkpt>
      <trkpt lat="49.17743" lon="6.86221">
        <ele>211.2</ele>
        <time>2013-05-22T09:18:26Z</time>
      </trkpt>
      <trkpt lat="49.17742" lon="6.86211">
        <ele>210.9</ele>
        <time>2013-05-22T09:18:31Z</time>
      </trkpt>
      <trkpt lat="49.1774" lon="6.862">
        <ele>210.5</ele>
        <time>2013-05-22T09:18:36Z</time>
      </trkpt>
      <trkpt lat="49.17739" lon="6.86189">
        <ele>211.4</ele>
        <time>2013-05-22T09:18:41Z</time>
      </trkpt>
      <trkpt lat="49.17738" lon="6.86187">
        <ele>211.4</ele>
        <time>2013-05-22T09:18:42Z</time>
      </trkpt>
      <trkpt lat="49.17735" lon="6.86169">
        <ele>210.9</ele>
        <time>2013-05-22T09:18:51Z</time>
      </trkpt>
      <trkpt lat="49.17734" lon="6.86159">
        <ele>210.4</ele>
        <time>2013-05-22T09:18:56Z</time>
      </trkpt>
      <trkpt lat="49.17732" lon="6.8615">
        <ele>210.3</ele>
        <time>2013-05-22T09:19:01Z</time>
      </trkpt>
      <trkpt lat="49.17729" lon="6.8614">
        <ele>211.1</ele>
        <time>2013-05-22T09:19:06Z</time>
      </trkpt>
      <trkpt lat="49.17727" lon="6.86131">
        <ele>210.8</ele>
        <time>2013-05-22T09:19:11Z</time>
      </trkpt>
      <trkpt lat="49.17724" lon="6.86121">
        <ele>210.8</ele>
        <time>2013-05-22T09:19:16Z</time>
      </trkpt>
      <trkpt lat="49.17721" lon="6.86112">
        <ele>209.6</ele>
        <time>2013-05-22T09:19:21Z</time>
      </trkpt>
      <trkpt lat="49.17716" lon="6.86105">
        <ele>210.7</ele>
        <time>2013-05-22T09:19:26Z</time>
      </trkpt>
      <trkpt lat="49.17711" lon="6.86099">
        <ele>210.5</ele>
        <time>2013-05-22T09:19:31Z</time>
      </trkpt>
      <trkpt lat="49.17705" lon="6.86094">
        <ele>209.3</ele>
        <time>2013-05-22T09:19:36Z</time>
      </trkpt>
      <trkpt lat="49.17695" lon="6.86084">
        <ele>210</ele>
        <time>2013-05-22T09:19:44Z</time>
      </trkpt>
      <trkpt lat="49.17694" lon="6.86083">
        <ele>210.4</ele>
        <time>2013-05-22T09:19:46Z</time>
      </trkpt>
      <trkpt lat="49.17675" lon="6.86066">
        <ele>210</ele>
        <time>2013-05-22T09:20:00Z</time>
      </trkpt>
      <trkpt lat="49.17666" lon="6.86057">
        <ele>210</ele>
        <time>2013-05-22T09:20:08Z</time>
      </trkpt>
      <trkpt lat="49.17655" lon="6.86044">
        <ele>210</ele>
        <time>2013-05-22T09:20:16Z</time>
      </trkpt>
      <trkpt lat="49.17644" lon="6.86032">
        <ele>210</ele>
        <time>2013-05-22T09:20:24Z</time>
      </trkpt>
      <trkpt lat="49.17633" lon="6.86026">
        <ele>209</ele>
        <time>2013-05-22T09:20:32Z</time>
      </trkpt>
      <trkpt lat="49.17628" lon="6.86025">
        <ele>210</ele>
        <time>2013-05-22T09:20:37Z</time>
      </trkpt>
      <trkpt lat="49.17623" lon="6.86024">
        <ele>209.7</ele>
        <time>2013-05-22T09:20:42Z</time>
      </trkpt>
      <trkpt lat="49.17618" lon="6.86022">
        <ele>210.1</ele>
        <time>2013-05-22T09:20:47Z</time>
      </trkpt>
      <trkpt lat="49.17616" lon="6.86022">
        <ele>209.8</ele>
        <time>2013-05-22T09:20:48Z</time>
      </trkpt>
      <trkpt lat="49.17606" lon="6.86018">
        <ele>209.1</ele>
        <time>2013-05-22T09:20:57Z</time>
      </trkpt>
      <trkpt lat="49.17601" lon="6.86015">
        <ele>209.6</ele>
        <time>2013-05-22T09:21:02Z</time>
      </trkpt>
      <trkpt lat="49.17596" lon="6.86012">
        <ele>209.6</ele>
        <time>2013-05-22T09:21:07Z</time>
      </trkpt>
      <trkpt lat="49.17589" lon="6.86008">
        <ele>210.5</ele>
        <time>2013-05-22T09:21:12Z</time>
      </trkpt>
      <trkpt lat="49.17584" lon="6.86004">
        <ele>210</ele>
        <time>2013-05-22T09:21:17Z</time>
      </trkpt>
      <trkpt lat="49.17578" lon="6.85999">
        <ele>209.8</ele>
        <time>2013-05-22T09:21:22Z</time>
      </trkpt>
      <trkpt lat="49.17573" lon="6.85995">
        <ele>210.3</ele>
        <time>2013-05-22T09:21:27Z</time>
      </trkpt>
      <trkpt lat="49.17566" lon="6.8599">
        <ele>210.3</ele>
        <time>2013-05-22T09:21:32Z</time>
      </trkpt>
      <trkpt lat="49.1756" lon="6.85985">
        <ele>210.7</ele>
        <time>2013-05-22T09:21:37Z</time>
      </trkpt>
      <trkpt lat="49.17554" lon="6.85981">
        <ele>210</ele>
        <time>2013-05-22T09:21:42Z</time>
      </trkpt>
      <trkpt lat="49.17547" lon="6.85976">
        <ele>209</ele>
        <time>2013-05-22T09:21:47Z</time>
      </trkpt>
      <trkpt lat="49.1754" lon="6.85972">
        <ele>209</ele>
        <time>2013-05-22T09:21:52Z</time>
      </trkpt>
      <trkpt lat="49.17538" lon="6.85971">
        <ele>208.9</ele>
        <time>2013-05-22T09:21:53Z</time>
      </trkpt>
      <trkpt lat="49.17527" lon="6.85964">
        <ele>207.8</ele>
        <time>2013-05-22T09:22:02Z</time>
      </trkpt>
      <trkpt lat="49.1752" lon="6.8596">
        <ele>207.8</ele>
        <time>2013-05-22T09:22:07Z</time>
      </trkpt>
      <trkpt lat="49.17514" lon="6.85956">
        <ele>207.3</ele>
        <time>2013-05-22T09:22:12Z</time>
      </trkpt>
      <trkpt lat="49.17507" lon="6.85951">
        <ele>206.7</ele>
        <time>2013-05-22T09:22:17Z</time>
      </trkpt>
      <trkpt lat="49.175" lon="6.85947">
        <ele>206.1</ele>
        <time>2013-05-22T09:22:22Z</time>
      </trkpt>
      <trkpt lat="49.17493" lon="6.85944">
        <ele>206.4</ele>
        <time>2013-05-22T09:22:27Z</time>
      </trkpt>
      <trkpt lat="49.17487" lon="6.85942">
        <ele>206.6</ele>
        <time>2013-05-22T09:22:32Z</time>
      </trkpt>
      <trkpt lat="49.1748" lon="6.85941">
        <ele>206.5</ele>
        <time>2013-05-22T09:22:37Z</time>
      </trkpt>
      <trkpt lat="49.17475" lon="6.8594">
        <ele>206.6</ele>
        <time>2013-05-22T09:22:42Z</time>
      </trkpt>
      <trkpt lat="49.17468" lon="6.85937">
        <ele>206.6</ele>
        <time>2013-05-22T09:22:47Z</time>
      </trkpt>
      <trkpt lat="49.17461" lon="6.85934">
        <ele>207</ele>
        <time>2013-05-22T09:22:52Z</time>
      </trkpt>
      <trkpt lat="49.17454" lon="6.85931">
        <ele>206.9</ele>
        <time>2013-05-22T09:22:57Z</time>
      </trkpt>
      <trkpt lat="49.17453" lon="6.8593">
        <ele>207</ele>
        <time>2013-05-22T09:22:58Z</time>
      </trkpt>
      <trkpt lat="49.17441" lon="6.85926">
        <ele>205.9</ele>
        <time>2013-05-22T09:23:07Z</time>
      </trkpt>
      <trkpt lat="49.17434" lon="6.85925">
        <ele>207</ele>
        <time>2013-05-22T09:23:12Z</time>
      </trkpt>
      <trkpt lat="49.17427" lon="6.85923">
        <ele>206.4</ele>
        <time>2013-05-22T09:23:17Z</time>
      </trkpt>
      <trkpt lat="49.1742" lon="6.85921">
        <ele>206.4</ele>
        <time>2013-05-22T09:23:22Z</time>
      </trkpt>
      <trkpt lat="49.17413" lon="6.8592">
        <ele>207.2</ele>
        <time>2013-05-22T09:23:27Z</time>
      </trkpt>
      <trkpt lat="49.17406" lon="6.85917">
        <ele>207</ele>
        <time>2013-05-22T09:23:32Z</time>
      </trkpt>
      <trkpt lat="49.17399" lon="6.85916">
        <ele>207</ele>
        <time>2013-05-22T09:23:37Z</time>
      </trkpt>
      <trkpt lat="49.17392" lon="6.85914">
        <ele>206.8</ele>
        <time>2013-05-22T09:23:42Z</time>
      </trkpt>
      <trkpt lat="49.17384" lon="6.85911">
        <ele>206.6</ele>
        <time>2013-05-22T09:23:47Z</time>
      </trkpt>
      <trkpt lat="49.17377" lon="6.85911">
        <ele>206.2</ele>
        <time>2013-05-22T09:23:52Z</time>
      </trkpt>
      <trkpt lat="49.1737" lon="6.85909">
        <ele>206.3</ele>
        <time>2013-05-22T09:23:57Z</time>
      </trkpt>
      <trkpt lat="49.17363" lon="6.85908">
        <ele>206.1</ele>
        <time>2013-05-22T09:24:02Z</time>
      </trkpt>
      <trkpt lat="49.17361" lon="6.85908">
        <ele>206.1</ele>
        <time>2013-05-22T09:24:03Z</time>
      </trkpt>
      <trkpt lat="49.1735" lon="6.85903">
        <ele>206.5</ele>
        <time>2013-05-22T09:24:12Z</time>
      </trkpt>
      <trkpt lat="49.17342" lon="6.859">
        <ele>206.2</ele>
        <time>2013-05-22T09:24:17Z</time>
      </trkpt>
      <trkpt lat="49.17336" lon="6.85897">
        <ele>205</ele>
        <time>2013-05-22T09:24:22Z</time>
      </trkpt>
      <trkpt lat="49.17329" lon="6.85893">
        <ele>205</ele>
        <time>2013-05-22T09:24:27Z</time>
      </trkpt>
      <trkpt lat="49.17323" lon="6.8589">
        <ele>204.8</ele>
        <time>2013-05-22T09:24:32Z</time>
      </trkpt>
      <trkpt lat="49.17316" lon="6.85888">
        <ele>204.7</ele>
        <time>2013-05-22T09:24:37Z</time>
      </trkpt>
      <trkpt lat="49.17309" lon="6.85884">
        <ele>204.7</ele>
        <time>2013-05-22T09:24:42Z</time>
      </trkpt>
      <trkpt lat="49.17302" lon="6.8588">
        <ele>203.7</ele>
        <time>2013-05-22T09:24:47Z</time>
      </trkpt>
      <trkpt lat="49.17296" lon="6.85878">
        <ele>202.7</ele>
        <time>2013-05-22T09:24:52Z</time>
      </trkpt>
      <trkpt lat="49.17289" lon="6.85878">
        <ele>202.1</ele>
        <time>2013-05-22T09:24:57Z</time>
      </trkpt>
      <trkpt lat="49.17289" lon="6.85878">
        <ele>202.1</ele>
        <time>2013-05-22T09:24:57Z</time>
      </trkpt>
      <trkpt lat="49.17284" lon="6.85884">
        <ele>202.8</ele>
        <time>2013-05-22T09:25:02Z</time>
      </trkpt>
      <trkpt lat="49.17281" lon="6.85893">
        <ele>203.1</ele>
        <time>2013-05-22T09:25:07Z</time>
      </trkpt>
      <trkpt lat="49.1728" lon="6.85895">
        <ele>203.3</ele>
        <time>2013-05-22T09:25:08Z</time>
      </trkpt>
      <trkpt lat="49.17275" lon="6.85913">
        <ele>202</ele>
        <time>2013-05-22T09:25:17Z</time>
      </trkpt>
      <trkpt lat="49.17273" lon="6.85923">
        <ele>202.4</ele>
        <time>2013-05-22T09:25:22Z</time>
      </trkpt>
      <trkpt lat="49.1727" lon="6.85933">
        <ele>202</ele>
        <time>2013-05-22T09:25:27Z</time>
      </trkpt>
      <trkpt lat="49.17269" lon="6.85941">
        <ele>202</ele>
        <time>2013-05-22T09:25:32Z</time>
      </trkpt>
      <trkpt lat="49.17268" lon="6.85949">
        <ele>203</ele>
        <time>2013-05-22T09:25:37Z</time>
      </trkpt>
      <trkpt lat="49.17266" lon="6.85958">
        <ele>203.4</ele>
        <time>2013-05-22T09:25:42Z</time>
      </trkpt>
      <trkpt lat="49.17264" lon="6.85967">
        <ele>203</ele>
        <time>2013-05-22T09:25:47Z</time>
      </trkpt>
      <trkpt lat="49.17263" lon="6.85974">
        <ele>203</ele>
        <time>2013-05-22T09:25:52Z</time>
      </trkpt>
      <trkpt lat="49.17261" lon="6.85981">
        <ele>203.5</ele>
        <time>2013-05-22T09:25:57Z</time>
      </trkpt>
      <trkpt lat="49.17258" lon="6.85989">
        <ele>203.7</ele>
        <time>2013-05-22T09:26:02Z</time>
      </trkpt>
      <trkpt lat="49.17256" lon="6.86">
        <ele>203.7</ele>
        <time>2013-05-22T09:26:07Z</time>
      </trkpt>
      <trkpt lat="49.17255" lon="6.8601">
        <ele>202.5</ele>
        <time>2013-05-22T09:26:12Z</time>
      </trkpt>
      <trkpt lat="49.17255" lon="6.86012">
        <ele>202.7</ele>
        <time>2013-05-22T09:26:13Z</time>
      </trkpt>
      <trkpt lat="49.17252" lon="6.86031">
        <ele>203.7</ele>
        <time>2013-05-22T09:26:22Z</time>
      </trkpt>
      <trkpt lat="49.1725" lon="6.86042">
        <ele>204</ele>
        <time>2013-05-22T09:26:27Z</time>
      </trkpt>
      <trkpt lat="49.17247" lon="6.86053">
        <ele>203.1</ele>
        <time>2013-05-22T09:26:32Z</time>
      </trkpt>
      <trkpt lat="49.17246" lon="6.86064">
        <ele>203.2</ele>
        <time>2013-05-22T09:26:37Z</time>
      </trkpt>
      <trkpt lat="49.17244" lon="6.86074">
        <ele>203.8</ele>
        <time>2013-05-22T09:26:42Z</time>
      </trkpt>
      <trkpt lat="49.17243" lon="6.86085">
        <ele>203</ele>
        <time>2013-05-22T09:26:47Z</time>
      </trkpt>
      <trkpt lat="49.17241" lon="6.86096">
        <ele>203.4</ele>
        <time>2013-05-22T09:26:52Z</time>
      </trkpt>
      <trkpt lat="49.1724" lon="6.86104">
        <ele>204.4</ele>
        <time>2013-05-22T09:26:57Z</time>
      </trkpt>
      <trkpt lat="49.17239" lon="6.86114">
        <ele>205.3</ele>
        <time>2013-05-22T09:27:02Z</time>
      </trkpt>
      <trkpt lat="49.17237" lon="6.86124">
        <ele>205.2</ele>
        <time>2013-05-22T09:27:07Z</time>
      </trkpt>
      <trkpt lat="49.17236" lon="6.86135">
        <ele>205.4</ele>
        <time>2013-05-22T09:27:12Z</time>
      </trkpt>
      <trkpt lat="49.17234" lon="6.86144">
        <ele>205.6</ele>
        <time>2013-05-22T09:27:17Z</time>
      </trkpt>
      <trkpt lat="49.17233" lon="6.86146">
        <ele>205.5</ele>
        <time>2013-05-22T09:27:18Z</time>
      </trkpt>
      <trkpt lat="49.1723" lon="6.86159">
        <ele>206.5</ele>
        <time>2013-05-22T09:27:27Z</time>
      </trkpt>
      <trkpt lat="49.17229" lon="6.86161">
        <ele>206.2</ele>
        <time>2013-05-22T09:27:32Z</time>
      </trkpt>
      <trkpt lat="49.17229" lon="6.86163">
        <ele>206.4</ele>
        <time>2013-05-22T09:27:37Z</time>
      </trkpt>
      <trkpt lat="49.17229" lon="6.86164">
        <ele>206.5</ele>
        <time>2013-05-22T09:27:42Z</time>
      </trkpt>
      <trkpt lat="49.17229" lon="6.86165">
        <ele>207.3</ele>
        <time>2013-05-22T09:27:47Z</time>
      </trkpt>
      <trkpt lat="49.17229" lon="6.86165">
        <ele>207</ele>
        <time>2013-05-22T09:27:52Z</time>
      </trkpt>
      <trkpt lat="49.17229" lon="6.86167">
        <ele>206.4</ele>
        <time>2013-05-22T09:27:57Z</time>
      </trkpt>
      <trkpt lat="49.17229" lon="6.86174">
        <ele>207.1</ele>
        <time>2013-05-22T09:28:02Z</time>
      </trkpt>
      <trkpt lat="49.17228" lon="6.86182">
        <ele>207.3</ele>
        <time>2013-05-22T09:28:07Z</time>
      </trkpt>
      <trkpt lat="49.17227" lon="6.86192">
        <ele>207.1</ele>
        <time>2013-05-22T09:28:12Z</time>
      </trkpt>
      <trkpt lat="49.17226" lon="6.86202">
        <ele>207</ele>
        <time>2013-05-22T09:28:17Z</time>
      </trkpt>
      <trkpt lat="49.17226" lon="6.86212">
        <ele>207.5</ele>
        <time>2013-05-22T09:28:22Z</time>
      </trkpt>
      <trkpt lat="49.17225" lon="6.86214">
        <ele>207.7</ele>
        <time>2013-05-22T09:28:23Z</time>
      </trkpt>
      <trkpt lat="49.17222" lon="6.86227">
        <ele>206.6</ele>
        <time>2013-05-22T09:28:32Z</time>
      </trkpt>
      <trkpt lat="49.17221" lon="6.86236">
        <ele>206.3</ele>
        <time>2013-05-22T09:28:37Z</time>
      </trkpt>
      <trkpt lat="49.1722" lon="6.86245">
        <ele>206.3</ele>
        <time>2013-05-22T09:28:42Z</time>
      </trkpt>
      <trkpt lat="49.1722" lon="6.86254">
        <ele>206.7</ele>
        <time>2013-05-22T09:28:47Z</time>
      </trkpt>
      <trkpt lat="49.17219" lon="6.86263">
        <ele>206.6</ele>
        <time>2013-05-22T09:28:52Z</time>
      </trkpt>
      <trkpt lat="49.17219" lon="6.86271">
        <ele>207.5</ele>
        <time>2013-05-22T09:28:57Z</time>
      </trkpt>
      <trkpt lat="49.17218" lon="6.86279">
        <ele>207.6</ele>
        <time>2013-05-22T09:29:02Z</time>
      </trkpt>
      <trkpt lat="49.17217" lon="6.86288">
        <ele>207.8</ele>
        <time>2013-05-22T09:29:07Z</time>
      </trkpt>
      <trkpt lat="49.17217" lon="6.86298">
        <ele>208.5</ele>
        <time>2013-05-22T09:29:12Z</time>
      </trkpt>
      <trkpt lat="49.17217" lon="6.86309">
        <ele>208.4</ele>
        <time>2013-05-22T09:29:17Z</time>
      </trkpt>
      <trkpt lat="49.17216" lon="6.86318">
        <ele>209.1</ele>
        <time>2013-05-22T09:29:22Z</time>
      </trkpt>
      <trkpt lat="49.17216" lon="6.86328">
        <ele>209.5</ele>
        <time>2013-05-22T09:29:27Z</time>
      </trkpt>
      <trkpt lat="49.17215" lon="6.8633">
        <ele>209.4</ele>
        <time>2013-05-22T09:29:28Z</time>
      </trkpt>
      <trkpt lat="49.17213" lon="6.86347">
        <ele>209.3</ele>
        <time>2013-05-22T09:29:37Z</time>
      </trkpt>
      <trkpt lat="49.17211" lon="6.86356">
        <ele>210.1</ele>
        <time>2013-05-22T09:29:42Z</time>
      </trkpt>
      <trkpt lat="49.17208" lon="6.86365">
        <ele>210.4</ele>
        <time>2013-05-22T09:29:47Z</time>
      </trkpt>
      <trkpt lat="49.17206" lon="6.86374">
        <ele>210.6</ele>
        <time>2013-05-22T09:29:52Z</time>
      </trkpt>
      <trkpt lat="49.17203" lon="6.86383">
        <ele>211.2</ele>
        <time>2013-05-22T09:29:57Z</time>
      </trkpt>
      <trkpt lat="49.17201" lon="6.86392">
        <ele>211.3</ele>
        <time>2013-05-22T09:30:02Z</time>
      </trkpt>
      <trkpt lat="49.17198" lon="6.864">
        <ele>212</ele>
        <time>2013-05-22T09:30:07Z</time>
      </trkpt>
      <trkpt lat="49.17195" lon="6.86408">
        <ele>212.6</ele>
        <time>2013-05-22T09:30:12Z</time>
      </trkpt>
      <trkpt lat="49.17192" lon="6.86416">
        <ele>212.8</ele>
        <time>2013-05-22T09:30:17Z</time>
      </trkpt>
      <trkpt lat="49.17187" lon="6.86423">
        <ele>213.6</ele>
        <time>2013-05-22T09:30:22Z</time>
      </trkpt>
      <trkpt lat="49.17182" lon="6.86432">
        <ele>214.1</ele>
        <time>2013-05-22T09:30:27Z</time>
      </trkpt>
      <trkpt lat="49.17177" lon="6.8644">
        <ele>213.6</ele>
        <time>2013-05-22T09:30:32Z</time>
      </trkpt>
      <trkpt lat="49.17176" lon="6.86441">
        <ele>213.9</ele>
        <time>2013-05-22T09:30:33Z</time>
      </trkpt>
      <trkpt lat="49.17169" lon="6.86456">
        <ele>215.8</ele>
        <time>2013-05-22T09:30:42Z</time>
      </trkpt>
      <trkpt lat="49.17165" lon="6.86462">
        <ele>215.7</ele>
        <time>2013-05-22T09:30:47Z</time>
      </trkpt>
      <trkpt lat="49.1716" lon="6.8647">
        <ele>215.9</ele>
        <time>2013-05-22T09:30:52Z</time>
      </trkpt>
      <trkpt lat="49.17156" lon="6.86476">
        <ele>216.2</ele>
        <time>2013-05-22T09:30:57Z</time>
      </trkpt>
      <trkpt lat="49.17149" lon="6.8648">
        <ele>216.1</ele>
        <time>2013-05-22T09:31:02Z</time>
      </trkpt>
      <trkpt lat="49.17149" lon="6.8648">
        <ele>216.1</ele>
        <time>2013-05-22T09:31:02Z</time>
      </trkpt>
      <trkpt lat="49.17143" lon="6.8648">
        <ele>217</ele>
        <time>2013-05-22T09:31:07Z</time>
      </trkpt>
      <trkpt lat="49.17137" lon="6.86482">
        <ele>217.5</ele>
        <time>2013-05-22T09:31:12Z</time>
      </trkpt>
      <trkpt lat="49.17132" lon="6.86488">
        <ele>217.4</ele>
        <time>2013-05-22T09:31:17Z</time>
      </trkpt>
      <trkpt lat="49.17128" lon="6.86494">
        <ele>217.3</ele>
        <time>2013-05-22T09:31:22Z</time>
      </trkpt>
      <trkpt lat="49.17123" lon="6.865">
        <ele>217.2</ele>
        <time>2013-05-22T09:31:27Z</time>
      </trkpt>
      <trkpt lat="49.17117" lon="6.86505">
        <ele>217.2</ele>
        <time>2013-05-22T09:31:32Z</time>
      </trkpt>
      <trkpt lat="49.17111" lon="6.86509">
        <ele>218.6</ele>
        <time>2013-05-22T09:31:37Z</time>
      </trkpt>
      <trkpt lat="49.1711" lon="6.8651">
        <ele>218.3</ele>
        <time>2013-05-22T09:31:38Z</time>
      </trkpt>
      <trkpt lat="49.171" lon="6.86521">
        <ele>217.5</ele>
        <time>2013-05-22T09:31:47Z</time>
      </trkpt>
      <trkpt lat="49.17095" lon="6.86527">
        <ele>218.4</ele>
        <time>2013-05-22T09:31:52Z</time>
      </trkpt>
      <trkpt lat="49.1709" lon="6.86533">
        <ele>218.3</ele>
        <time>2013-05-22T09:31:57Z</time>
      </trkpt>
      <trkpt lat="49.17084" lon="6.86537">
        <ele>219.8</ele>
        <time>2013-05-22T09:32:02Z</time>
      </trkpt>
      <trkpt lat="49.17078" lon="6.86542">
        <ele>219.2</ele>
        <time>2013-05-22T09:32:07Z</time>
      </trkpt>
      <trkpt lat="49.17072" lon="6.86548">
        <ele>220.2</ele>
        <time>2013-05-22T09:32:12Z</time>
      </trkpt>
      <trkpt lat="49.17068" lon="6.86554">
        <ele>220.2</ele>
        <time>2013-05-22T09:32:17Z</time>
      </trkpt>
      <trkpt lat="49.17063" lon="6.8656">
        <ele>220</ele>
        <time>2013-05-22T09:32:22Z</time>
      </trkpt>
      <trkpt lat="49.17057" lon="6.86565">
        <ele>220.1</ele>
        <time>2013-05-22T09:32:27Z</time>
      </trkpt>
      <trkpt lat="49.17053" lon="6.86571">
        <ele>220.6</ele>
        <time>2013-05-22T09:32:32Z</time>
      </trkpt>
      <trkpt lat="49.17048" lon="6.86577">
        <ele>220.8</ele>
        <time>2013-05-22T09:32:37Z</time>
      </trkpt>
      <trkpt lat="49.17043" lon="6.86583">
        <ele>220.9</ele>
        <time>2013-05-22T09:32:42Z</time>
      </trkpt>
      <trkpt lat="49.17042" lon="6.86583">
        <ele>221</ele>
        <time>2013-05-22T09:32:43Z</time>
      </trkpt>
      <trkpt lat="49.17034" lon="6.86594">
        <ele>221.9</ele>
        <time>2013-05-22T09:32:52Z</time>
      </trkpt>
      <trkpt lat="49.1703" lon="6.86601">
        <ele>222.4</ele>
        <time>2013-05-22T09:32:57Z</time>
      </trkpt>
      <trkpt lat="49.17025" lon="6.86605">
        <ele>222.5</ele>
        <time>2013-05-22T09:33:02Z</time>
      </trkpt>
      <trkpt lat="49.1702" lon="6.86608">
        <ele>222.1</ele>
        <time>2013-05-22T09:33:07Z</time>
      </trkpt>
      <trkpt lat="49.17016" lon="6.86615">
        <ele>222.7</ele>
        <time>2013-05-22T09:33:12Z</time>
      </trkpt>
      <trkpt lat="49.17013" lon="6.86622">
        <ele>221.6</ele>
        <time>2013-05-22T09:33:17Z</time>
      </trkpt>
      <trkpt lat="49.1701" lon="6.86629">
        <ele>221.9</ele>
        <time>2013-05-22T09:33:22Z</time>
      </trkpt>
      <trkpt lat="49.17006" lon="6.86636">
        <ele>222</ele>
        <time>2013-05-22T09:33:27Z</time>
      </trkpt>
      <trkpt lat="49.17003" lon="6.86644">
        <ele>221.4</ele>
        <time>2013-05-22T09:33:32Z</time>
      </trkpt>
      <trkpt lat="49.16999" lon="6.86652">
        <ele>222.1</ele>
        <time>2013-05-22T09:33:37Z</time>
      </trkpt>
      <trkpt lat="49.16995" lon="6.86661">
        <ele>221.9</ele>
        <time>2013-05-22T09:33:42Z</time>
      </trkpt>
      <trkpt lat="49.16991" lon="6.86669">
        <ele>222.6</ele>
        <time>2013-05-22T09:33:47Z</time>
      </trkpt>
      <trkpt lat="49.16991" lon="6.86671">
        <ele>222.9</ele>
        <time>2013-05-22T09:33:48Z</time>
      </trkpt>
      <trkpt lat="49.16983" lon="6.86684">
        <ele>222.9</ele>
        <time>2013-05-22T09:33:57Z</time>
      </trkpt>
      <trkpt lat="49.1698" lon="6.86691">
        <ele>222.3</ele>
        <time>2013-05-22T09:34:02Z</time>
      </trkpt>
      <trkpt lat="49.16979" lon="6.86695">
        <ele>222.7</ele>
        <time>2013-05-22T09:34:07Z</time>
      </trkpt>
      <trkpt lat="49.16976" lon="6.86702">
        <ele>223.2</ele>
        <time>2013-05-22T09:34:12Z</time>
      </trkpt>
      <trkpt lat="49.16972" lon="6.86709">
        <ele>223.1</ele>
        <time>2013-05-22T09:34:17Z</time>
      </trkpt>
      <trkpt lat="49.16967" lon="6.86716">
        <ele>222.5</ele>
        <time>2013-05-22T09:34:22Z</time>
      </trkpt>
      <trkpt lat="49.16963" lon="6.86723">
        <ele>223.3</ele>
        <time>2013-05-22T09:34:27Z</time>
      </trkpt>
      <trkpt lat="49.1696" lon="6.86728">
        <ele>223.1</ele>
        <time>2013-05-22T09:34:32Z</time>
      </trkpt>
      <trkpt lat="49.16955" lon="6.86734">
        <ele>223.4</ele>
        <time>2013-05-22T09:34:37Z</time>
      </trkpt>
      <trkpt lat="49.16951" lon="6.86742">
        <ele>222.9</ele>
        <time>2013-05-22T09:34:42Z</time>
      </trkpt>
      <trkpt lat="49.16948" lon="6.8675">
        <ele>223.1</ele>
        <time>2013-05-22T09:34:47Z</time>
      </trkpt>
      <trkpt lat="49.16945" lon="6.86757">
        <ele>223.4</ele>
        <time>2013-05-22T09:34:52Z</time>
      </trkpt>
      <trkpt lat="49.16944" lon="6.86759">
        <ele>223.2</ele>
        <time>2013-05-22T09:34:53Z</time>
      </trkpt>
      <trkpt lat="49.16937" lon="6.8677">
        <ele>223.2</ele>
        <time>2013-05-22T09:35:02Z</time>
      </trkpt>
      <trkpt lat="49.16933" lon="6.86778">
        <ele>222.8</ele>
        <time>2013-05-22T09:35:07Z</time>
      </trkpt>
      <trkpt lat="49.16929" lon="6.86786">
        <ele>223.3</ele>
        <time>2013-05-22T09:35:12Z</time>
      </trkpt>
      <trkpt lat="49.16925" lon="6.86793">
        <ele>223.4</ele>
        <time>2013-05-22T09:35:17Z</time>
      </trkpt>
      <trkpt lat="49.16921" lon="6.86799">
        <ele>223.8</ele>
        <time>2013-05-22T09:35:22Z</time>
      </trkpt>
      <trkpt lat="49.16916" lon="6.86805">
        <ele>223.4</ele>
        <time>2013-05-22T09:35:27Z</time>
      </trkpt>
      <trkpt lat="49.16912" lon="6.86812">
        <ele>222.3</ele>
        <time>2013-05-22T09:35:32Z</time>
      </trkpt>
      <trkpt lat="49.16906" lon="6.8682">
        <ele>223.2</ele>
        <time>2013-05-22T09:35:37Z</time>
      </trkpt>
      <trkpt lat="49.16901" lon="6.86826">
        <ele>223.1</ele>
        <time>2013-05-22T09:35:42Z</time>
      </trkpt>
      <trkpt lat="49.16895" lon="6.86833">
        <ele>223.4</ele>
        <time>2013-05-22T09:35:47Z</time>
      </trkpt>
      <trkpt lat="49.16891" lon="6.8684">
        <ele>222.5</ele>
        <time>2013-05-22T09:35:52Z</time>
      </trkpt>
      <trkpt lat="49.16886" lon="6.86846">
        <ele>222.6</ele>
        <time>2013-05-22T09:35:57Z</time>
      </trkpt>
      <trkpt lat="49.16885" lon="6.86847">
        <ele>222.7</ele>
        <time>2013-05-22T09:35:58Z</time>
      </trkpt>
      <trkpt lat="49.16875" lon="6.86859">
        <ele>222.3</ele>
        <time>2013-05-22T09:36:07Z</time>
      </trkpt>
      <trkpt lat="49.16871" lon="6.86865">
        <ele>221.8</ele>
        <time>2013-05-22T09:36:12Z</time>
      </trkpt>
      <trkpt lat="49.16867" lon="6.8687">
        <ele>222.2</ele>
        <time>2013-05-22T09:36:17Z</time>
      </trkpt>
      <trkpt lat="49.16863" lon="6.86875">
        <ele>222.2</ele>
        <time>2013-05-22T09:36:22Z</time>
      </trkpt>
      <trkpt lat="49.16858" lon="6.86881">
        <ele>222.1</ele>
        <time>2013-05-22T09:36:27Z</time>
      </trkpt>
      <trkpt lat="49.16852" lon="6.86885">
        <ele>221.7</ele>
        <time>2013-05-22T09:36:32Z</time>
      </trkpt>
      <trkpt lat="49.16848" lon="6.86891">
        <ele>222</ele>
        <time>2013-05-22T09:36:37Z</time>
      </trkpt>
      <trkpt lat="49.16843" lon="6.86891">
        <ele>222.3</ele>
        <time>2013-05-22T09:36:42Z</time>
      </trkpt>
      <trkpt lat="49.16842" lon="6.86896">
        <ele>222.1</ele>
        <time>2013-05-22T09:36:47Z</time>
      </trkpt>
      <trkpt lat="49.16841" lon="6.86901">
        <ele>221.3</ele>
        <time>2013-05-22T09:36:52Z</time>
      </trkpt>
      <trkpt lat="49.16837" lon="6.86907">
        <ele>221.1</ele>
        <time>2013-05-22T09:36:57Z</time>
      </trkpt>
      <trkpt lat="49.16831" lon="6.86913">
        <ele>221.6</ele>
        <time>2013-05-22T09:37:02Z</time>
      </trkpt>
      <trkpt lat="49.1683" lon="6.86914">
        <ele>221.8</ele>
        <time>2013-05-22T09:37:03Z</time>
      </trkpt>
      <trkpt lat="49.1682" lon="6.86924">
        <ele>222.3</ele>
        <time>2013-05-22T09:37:12Z</time>
      </trkpt>
      <trkpt lat="49.16815" lon="6.86929">
        <ele>221.4</ele>
        <time>2013-05-22T09:37:17Z</time>
      </trkpt>
      <trkpt lat="49.16809" lon="6.86934">
        <ele>221.5</ele>
        <time>2013-05-22T09:37:22Z</time>
      </trkpt>
      <trkpt lat="49.16804" lon="6.86939">
        <ele>220.6</ele>
        <time>2013-05-22T09:37:27Z</time>
      </trkpt>
      <trkpt lat="49.16798" lon="6.86943">
        <ele>220.7</ele>
        <time>2013-05-22T09:37:32Z</time>
      </trkpt>
      <trkpt lat="49.16791" lon="6.86948">
        <ele>221.3</ele>
        <time>2013-05-22T09:37:37Z</time>
      </trkpt>
      <trkpt lat="49.16784" lon="6.86952">
        <ele>221.4</ele>
        <time>2013-05-22T09:37:42Z</time>
      </trkpt>
      <trkpt lat="49.16777" lon="6.86957">
        <ele>221.1</ele>
        <time>2013-05-22T09:37:47Z</time>
      </trkpt>
      <trkpt lat="49.16771" lon="6.86961">
        <ele>221</ele>
        <time>2013-05-22T09:37:52Z</time>
      </trkpt>
      <trkpt lat="49.16765" lon="6.86965">
        <ele>220.5</ele>
        <time>2013-05-22T09:37:57Z</time>
      </trkpt>
      <trkpt lat="49.16758" lon="6.86968">
        <ele>221.7</ele>
        <time>2013-05-22T09:38:02Z</time>
      </trkpt>
      <trkpt lat="49.16752" lon="6.86972">
        <ele>221.1</ele>
        <time>2013-05-22T09:38:07Z</time>
      </trkpt>
      <trkpt lat="49.1675" lon="6.86972">
        <ele>221</ele>
        <time>2013-05-22T09:38:08Z</time>
      </trkpt>
      <trkpt lat="49.16738" lon="6.86975">
        <ele>220.9</ele>
        <time>2013-05-22T09:38:17Z</time>
      </trkpt>
      <trkpt lat="49.16731" lon="6.86975">
        <ele>220.4</ele>
        <time>2013-05-22T09:38:22Z</time>
      </trkpt>
      <trkpt lat="49.16725" lon="6.86976">
        <ele>221</ele>
        <time>2013-05-22T09:38:27Z</time>
      </trkpt>
      <trkpt lat="49.16723" lon="6.86976">
        <ele>220.2</ele>
        <time>2013-05-22T09:38:32Z</time>
      </trkpt>
      <trkpt lat="49.16719" lon="6.86974">
        <ele>220.3</ele>
        <time>2013-05-22T09:38:37Z</time>
      </trkpt>
      <trkpt lat="49.16714" lon="6.86975">
        <ele>220.7</ele>
        <time>2013-05-22T09:38:42Z</time>
      </trkpt>
      <trkpt lat="49.16708" lon="6.86975">
        <ele>220.9</ele>
        <time>2013-05-22T09:38:47Z</time>
      </trkpt>
      <trkpt lat="49.16703" lon="6.86974">
        <ele>221.1</ele>
        <time>2013-05-22T09:38:52Z</time>
      </trkpt>
      <trkpt lat="49.16698" lon="6.86979">
        <ele>219.9</ele>
        <time>2013-05-22T09:38:57Z</time>
      </trkpt>
      <trkpt lat="49.1669" lon="6.86981">
        <ele>219.6</ele>
        <time>2013-05-22T09:39:02Z</time>
      </trkpt>
      <trkpt lat="49.16685" lon="6.8698">
        <ele>219.4</ele>
        <time>2013-05-22T09:39:07Z</time>
      </trkpt>
      <trkpt lat="49.16681" lon="6.8698">
        <ele>219.9</ele>
        <time>2013-05-22T09:39:12Z</time>
      </trkpt>
      <trkpt lat="49.1668" lon="6.86981">
        <ele>220.1</ele>
        <time>2013-05-22T09:39:13Z</time>
      </trkpt>
      <trkpt lat="49.16677" lon="6.86982">
        <ele>219.6</ele>
        <time>2013-05-22T09:39:27Z</time>
      </trkpt>
      <trkpt lat="49.16676" lon="6.86981">
        <ele>219.3</ele>
        <time>2013-05-22T09:39:32Z</time>
      </trkpt>
    </trkseg>
  </trk>
</gpx>